     2              OBSERVATION DATA    GPS                 RINEX VERSION / TYPE
teqc 2000Feb29 Duncan Agnew 20000527 01:00:21UTC            PGM / RUN BY / DATE
                                                            COMMENT
L2: 1 -> 1; 5 -> 5; 60 -> 9                                 COMMENT
L2: 1 -> 1; 5 -> 5; 60 -> 9                                 COMMENT
L2: 1 -> 1; 5 -> 5; 60 -> 9                                 COMMENT
L2: 1 -> 1; 5 -> 5; 60 -> 9                                 COMMENT
L2: 1 -> 1; 5 -> 5; 60 -> 9                                 COMMENT
Original Marker Name: DASH                                  COMMENT
Campaign Name: CSRC Post Hector                             COMMENT
4-Character Station Name: DASH                              COMMENT
6-Character Antenna Code: TRMSST                            COMMENT
Vertical Measurement Point: BPA                             COMMENT
Vertical Offset to Rinex Ref. Point: 0.0000                 COMMENT
Radial Measurement Point: RRP                               COMMENT
Radial Offset to Rinex Ref. Point: 0.0000                   COMMENT
Antenna Height from Field Measurement: 2.0000 m             COMMENT
Additional Antenna Identification Info.:                    COMMENT
Model 14532.00                                              COMMENT
Original XYZ: -2420587.1401 -4733046.4864 3513113.4970      COMMENT
New XYZ position is based on association with SCEC monument COMMENT
E1D0F9J4+0011. Position of that monument is believed to be  COMMENT
valid to within 1 m horizontally; vertical accuracy         COMMENT
should be no worse than 3-times this value.                 COMMENT
                                                            COMMENT
Revised Rinex header created by UCSD GPS archive for        COMMENT
GSAC on 15-Jun-2000 (2000:167) 23:58:15 GMT                 COMMENT
For assistance contact dagnew@ucsd.edu                      COMMENT
or anderson@python.ucsd.edu                                 COMMENT
                                                            COMMENT
DASH 1992                                                   MARKER NAME
DASH                                                        MARKER NUMBER
-Unknown- NATIONAL GEODETIC SURVEY                          OBSERVER / AGENCY
6669 TRIMBLE 4000 SSE NP 7.29; SP 3.07                      REC # / TYPE / VERS
9 TR 4000SST L1/L2 GEO                                      ANT # / TYPE
 -2420586.6597 -4733049.1724  3513110.5923                  APPROX POSITION XYZ
        2.0000        0.0000        0.0000                  ANTENNA: DELTA H/E/N
     1     1     0                                          WAVELENGTH FACT L1/2
     7    C1    L1    L2    P1    P2    S1    S2            # / TYPES OF OBSERV
     0                                                      INTERVAL
  2000     5    15    18    57   15.000000                  TIME OF FIRST OBS
  2000     5    16     0    32   15.000000                  TIME OF LAST OBS
                                                            END OF HEADER
 00  5 15 18 57 15.0000000  0  6G30G 5G 6G10G17G24
  20752916.7734      -5218.11658
        30.7504
  20701036.6254      23640.69557     18420.66557                  20701042.3914
        27.5004         35.2504
  22484992.0864     -25108.64156    -19564.71956                  22484998.1804
        19.2504         16.5004
  20989784.8594      -4623.30857     -3602.46157                  20989790.8594
        26.7504         35.0004
  23937991.9774     -32165.38955    -19270.75955                  23938003.5824
        10.7504          6.0004
  21989706.8594      34091.51957     26564.91056                  21989712.8484
        25.0004         25.5004
 00  5 15 18 57 30.0000000  0  6G30G 5G 6G10G17G24
  20751123.9144     -14639.64448
        30.7504
  20706311.9064      51362.08347     40021.72747                  20706317.5554
        27.2504         35.2504
  22479537.1884     -53775.14846    -41902.21746                  22479543.1294
        19.5004         16.0004
  20988855.1644      -9509.17147     -7409.59547                  20988861.0474
        26.7504         35.0004
  23930992.3134     -68945.62145    -47930.53345                  23931002.8874
        11.5004          6.0004
  21997261.0864      73789.84747     57498.65446                  21997267.1914
        25.2504         25.2504
 00  5 15 18 57 45.0000000  0  6G30G 5G 6G10G17G24
  20749417.0314     -23609.49448     -1370.28958                  20749421.3914
        30.2504         40.5004
  20711670.3284      79520.85347     61963.61047                  20711676.0124
        27.5004         35.0004
  22474144.0084     -82116.49746    -63986.34246                  22474149.9734
        18.7504         15.2504
  20988013.6174     -13930.47447    -10854.73047                  20988019.6524
        26.7504         34.7504
  23924062.6564    -105364.51445    -76308.79345                  23924073.8984
        11.5004          6.2504
  22004880.4384     113829.77847     88698.59646                  22004886.5084
        25.0004         25.2504
 00  5 15 18 58  0.0000000  0  6G30G 5G 6G10G17G24
  20747794.7194     -32135.13548     -8013.63848                  20747799.1484
        30.2504         40.2504
  20717110.6804     108109.27647     84240.28547                  20717116.3524
        27.5004         35.0004
  22468811.0944    -110140.21546    -85822.95846                  22468817.3874
        19.5004         15.7504
  20987259.2034     -17894.90247    -13943.86347                  20987265.2034
        27.0004         34.5004
  23917198.8674    -141429.67245   -104411.35945                  23917210.0394
        10.7504          6.0004
  22012563.4064     154203.48147    120158.60046                  22012569.4414
        25.7504         25.2504
 00  5 15 18 58 15.0000000  0  6G30G 5G 6G10G17G24
  20746254.0234     -40231.16048    -14322.21948                  20746258.5474
        30.2504         40.0004
  20722629.7664     137112.46547    106840.14947                  20722635.2974
        27.5004         35.2504
  22463535.9774    -137860.90246   -107423.45346                  22463541.9414
        19.7504         16.7504
  20986589.0084     -21417.07447    -16688.37547                  20986594.9734
        26.5004         34.2504
  23910401.0164    -177155.69045   -132249.69745                  23910411.8014
        11.2504          5.7504
  22020306.9064     194896.06847    151867.09547                  22020312.9884
        25.7504         26.0004
 00  5 15 18 58 30.0000000  0  6G30G 5G 6G10G17G24
  20744794.7114     -47898.93048    -20297.09348                  20744799.3404
        30.2504         40.5004
  20728227.6724     166528.67647    129761.85147                  20728233.2034
        27.7504         35.5004
  22458318.3444    -165280.03746   -128788.97246                  22458324.2154
        19.0004         16.0004
  20986002.6094     -24498.35447    -19089.33847                  20986008.6804
        26.7504         34.2504
  23903666.4774    -212544.06645   -159824.93645                  23903678.0824
        10.5004          5.5004
  22028111.0084     235905.86747    183822.76147                  22028117.1134
        25.2504         25.7504
 00  5 15 18 58 45.0000000  0  6G30G 5G 6G10G17G24
  20743417.1334     -55139.35548    -25938.97048                  20743421.6564
        30.2504         40.2504
  20733903.6884     196356.65447    153004.40647                  20733909.2424
        27.2504         35.5004
  22453157.9224    -192398.60946   -149920.28846                  22453163.7464
        19.7504         16.5004
  20985499.9774     -27139.83147    -21147.59747                  20985505.9774
        26.7504         34.5004
  23896996.4534    -247595.81145   -187137.84445                  23897007.7774
        10.7504          6.0004
  22035975.0004     277231.35847    216024.42946                  22035981.0944
        25.0004         25.5004
 00  5 15 18 59  0.0000000  0  6G30G 5G 6G10G17G24
  20742119.2974     -61959.75748    -31253.56348                  20742123.7504
        30.0004         39.7504
  20739656.7424     226588.84047    176561.93147                  20739662.5554
        27.2504         35.7504
  22448053.4694    -219223.95847   -170823.13246                  22448059.4104
        20.5004         17.0004
  20985079.5704     -29348.69247    -22868.75447                  20985085.5124
        26.7504         34.7504
  23890388.9304    -282318.22045   -214194.15045                  23890400.5594
        10.5004          5.7504
  22043897.4304     318864.99947    248466.20646                  22043903.7814
        25.0004         25.5004
 00  5 15 18 59 15.0000000  0  6G30G 5G 6G10G17G24
  20740899.3364     -68370.15348    -36248.66948                  20740903.7894
        30.0004         39.7504
  20745484.7424     257214.85747    200426.33547                  20745490.5084
        27.5004         35.2504
  22443002.5474    -245766.19547   -191505.35146                  22443008.5234
        20.0004         17.5004
  20984739.6954     -31135.13547    -24260.75747                  20984745.7774
        26.5004         34.2504
  23883842.0314    -316721.54145   -241001.80845                  23883853.8594
        10.2504          5.2504
  22051876.8524     360796.39347    281139.99746                  22051882.8754
        25.0004         25.0004
 00  5 15 18 59 30.0000000  0  6G30G 5G 6G10G17G24
  20739755.2814     -74381.78148    -40933.04848                  20739759.8524
        29.5004         40.0004
  20751385.3134     288223.13847    224588.60947                  20751391.1484
        27.0004         35.5004
  22438003.2344    -272036.55746   -211975.71746                  22438009.3164
        19.7504         17.0004
  20984477.9844     -32510.46247    -25332.40847                  20984483.9964
        26.5004         34.7504
  23877354.0394    -350816.92645   -267569.50545                  23877366.1134
        10.2504          6.2504
  22059910.3674     403013.82147    314036.68046                  22059916.3794
        25.2504         25.5004
 00  5 15 18 59 45.0000000  0  6G30G 5G 6G10G17G24
  20738687.2664     -79994.28948    -45306.42448                  20738691.9774
        30.0004         39.7504
  20757358.6884     319613.74747    249048.80147                  20757364.4184
        27.5004         35.2504
  22433056.1334    -298034.76347   -232234.03246                  22433062.0164
        20.2504         17.2504
  20984294.6804     -33474.37147    -26083.47547                  20984300.6684
        26.7504         34.5004
  23870924.1174    -384604.16445   -293897.11145                  23870935.5124
        10.2504          5.5004
  22067998.6954     445517.35847    347156.29146                  22068004.8244
        25.5004         25.0004
 00  5 15 19  0  0.0000000  0  6G30G 5G 6G10G17G24
  20737694.0164     -85214.35248    -49374.00148                  20737698.7734
        30.0004         40.2504
  20763403.6954     351379.66447    273801.43647                  20763409.5904
        27.5004         35.2504
  22428159.0944    -323767.49447   -252285.47546                  22428165.1054
        20.2504         17.0004
  20984188.0004     -34033.66647    -26519.25847                  20984194.0824
        27.0004         34.5004
  23864552.1174    -418090.00145   -319989.84345                  23864563.2424
        11.0004          6.0004
  22076139.9694     488299.88247    380493.30546                  22076146.1914
        24.7504         25.0004
 00  5 15 19  0 15.0000000  0  6G30G 5G 6G10G17G24
  20736773.2114     -90052.54648    -53144.01648                  20736777.9694
        29.7504         40.7504
  20769517.9304     383509.89647    298837.95647                  20769523.7544
        27.2504         34.7504
  22423310.8134    -349245.51847   -272138.45146                  22423316.7424
        21.0004         18.2504
  20984156.4224     -34199.01147    -26648.06647                  20984162.4224
        27.0004         35.0004
  23858235.2114    -451285.16645   -345856.08945                  23858247.2974
        10.5004          6.2504
  22084332.1334     531350.48947    414039.21246                  22084338.1094
        24.5004         24.5004
 00  5 15 19  0 30.0000000  0  6G30G 5G 6G10G17G24
  20735925.2344     -94510.06848    -56617.40348                  20735930.0984
        29.7504         40.7504
  20775701.1094     416002.96247    324157.20547                  20775706.8754
        27.0004         34.7504
  22418510.8674    -374469.98847   -291793.84246                  22418516.9494
        20.5004         17.5004
  20984199.8754     -33971.59047    -26470.82947                  20984205.9454
        27.5004         34.5004
  23851973.7344    -484190.88645   -371496.78745                  23851984.4964
        11.0004          6.7504
  22092575.3444     574667.59547    447792.77146                  22092581.4144
        25.0004         24.5004
 00  5 15 19  0 45.0000000  0  6G30G 5G 6G10G17G24
  20735146.1024     -98604.05148    -59807.50948                  20735150.8244
        30.0004         41.0004
  20781950.2424     448841.54747    349745.69247                  20781955.9734
        27.0004         35.0004
  22413755.7814    -399458.07047   -311265.04246                  22413761.6524
        20.5004         17.0004
  20984314.5554     -33368.61447    -26000.95047                  20984320.4614
        26.7504         34.5004
  23845762.9304    -516824.32745   -396925.31445                  23845773.9384
        11.2504          6.7504
  22100865.5474     618233.72047    481740.38946                  22100871.4774
        24.7504         24.5004
 00  5 15 19  1  0.0000000  0  6G30G 5G 6G10G17G24
  20734434.1334    -102345.01648    -62722.54048                  20734438.8794
        30.0004         41.0004
  20788262.8054     482014.72047    375594.89847                  20788268.6994
        26.7504         34.0004
  22409043.7584    -424220.34847   -330560.29646                  22409049.7814
        20.5004         17.7504
  20984498.8204     -32400.79347    -25246.77247                  20984504.7624
        27.0004         34.7504
  23839602.8914    -549196.17945   -422150.01245                  23839614.1094
        10.7504          6.7504
  22109201.2664     662038.10147    515873.64546                  22109207.3244
        25.0004         24.5004
 00  5 15 19  1 15.0000000  0  6G30G 5G 6G10G17G24
  20733787.0084    -105746.47648    -65373.02348                  20733791.7894
        30.2504         40.7504
  20794636.5784     515508.73347    401694.10247                  20794642.4614
        27.0004         34.5004
  22404371.5634    -448770.28147   -349690.07346                  22404377.5514
        20.2504         17.7504
  20984749.8674     -31081.56147    -24218.77747                  20984755.8324
        26.7504         34.5004
  23833490.1174    -581319.88745   -447181.33945                  23833500.3984
        11.5004          6.7504
  22117579.6094     706066.73247    550181.64446                  22117585.7504
        24.5004         23.7504
 00  5 15 19  1 30.0000000  0  6G30G 5G 6G10G17G24
  20733203.2894    -108812.96648    -67762.48748                  20733208.1294
        30.0004         41.0004
  20801070.4454     549318.79547    428039.58347                  20801076.1884
        26.5004         34.0004
  22399739.6804    -473112.40947   -368657.92646                  22399745.7734
        20.5004         17.5004
  20985066.9454     -29415.45747    -22920.48847                  20985072.9224
        27.0004         35.0004
  23827423.5554    -613199.97045   -472022.86145                  23827433.6604
        11.5004          7.0004
  22126000.0784     750314.96047    584660.75646                  22126006.1374
        25.0004         25.0004
 00  5 15 19  1 45.0000000  0  6G30G 5G 6G10G17G24
  20732680.5164    -111561.41548    -69904.12848                  20732685.3554
        30.0004         41.0004
  20807561.1414     583427.55047    454617.80647                  20807567.0354
        26.2504         34.0004
  22395144.0394    -497263.85747   -387477.22246                  22395149.8404
        21.0004         17.5004
  20985446.6724     -27419.67847    -21365.30947                  20985452.6484
        27.0004         34.7504
  23821400.0474    -644853.56745   -496687.87845                  23821411.3594
        10.7504          7.2504
  22134458.7114     794765.16647    619297.25946                  22134464.7934
        25.2504         25.0004
 00  5 15 19  2  0.0000000  0  6G30G 5G 6G10G17G24
  20732216.5234    -113999.07948    -71803.60048                  20732221.2934
        30.0004         41.0004
  20814107.1174     617827.41247    481422.86847                  20814113.0004
        26.2504         33.5004
  22390582.7584    -521231.87147   -406153.56346                  22390588.7704
        20.5004         17.7504
  20985887.7344     -25101.48347    -19558.89347                  20985893.6054
        27.0004         34.7504
  23815418.1334    -676287.99045   -521182.10445                  23815429.7854
        11.0004          7.2504
  22142954.3754     839409.94447    654085.36346                  22142960.4344
        25.2504         24.5004
 00  5 15 19  2 15.0000000  0  6G30G 5G 6G10G17G24
  20731809.3754    -116138.35948    -73470.56448                  20731814.0514
        30.0004         41.0004
  20820706.2974     652505.49747    508444.72747                  20820712.2384
        26.2504         33.5004
  22386054.4614    -545029.06047   -424696.77246                  22386060.5084
        21.0004         18.0004
  20986387.7974     -22473.59947    -17511.17047                  20986393.8324
        26.7504         34.5004
  23809475.2274    -707515.87145   -545515.40745                  23809486.4104
        11.0004          6.7504
  22151484.5554     884236.39547    689015.04746                  22151490.7194
        25.0004         24.7504
 00  5 15 19  2 30.0000000  0  6G30G 5G 6G10G17G24
  20731457.4774    -117987.74348    -74911.63948                  20731462.2114
        30.0004         40.7504
  20827356.5004     687453.14747    535676.63447                  20827362.4064
        26.2504         33.5004
  22381556.8594    -568663.75247   -443113.39346                  22381562.6024
        21.5004         18.5004
  20986945.3364     -19544.41047    -15228.65547                  20986951.3834
        26.5004         34.7504
  23803570.2504    -738545.65045   -569694.34145                  23803581.1994
        10.7504          6.5004
  22160047.6884     929235.68747    724079.39546                  22160053.6884
        25.5004         25.0004
 00  5 15 19  2 45.0000000  0  6G30G 5G 6G10G17G24
  20731162.5554    -119537.69248    -76119.38348                  20731167.2424
        30.0004         41.0004
  20834059.9924     722679.66247    563125.83747                  20834065.9574
        26.7504         34.2504
  22377091.7664    -592126.39747   -461395.95946                  22377097.5904
        20.7504         17.5004
  20987561.8674     -16304.23947    -12703.82347                  20987567.9024
        27.0004         34.7504
  23797705.2114    -769367.72845   -593711.42645                  23797716.2894
        11.0004          7.0004
  22168645.4694     974417.19847    759285.74146                  22168651.6334
        25.0004         24.7504
 00  5 15 19  3  0.0000000  0  6G30G 5G 6G10G17G24
  20730920.8754    -120808.27548    -77109.44248                  20730925.6684
        30.0004         40.5004
  20840812.4614     758164.58047    590776.38847                  20840818.4494
        26.5004         33.7504
  22372656.0234    -615437.22947   -479560.20246                  22372662.0354
        20.7504         17.5004
  20988233.7894     -12773.41947     -9952.51247                  20988239.8134
        27.2504         34.7504
  23791875.6884    -800002.32345   -617582.42545                  23791886.2854
        11.7504          7.2504
  22177273.9454    1019760.21947    794617.93146                  22177280.2384
        26.0004         24.7504
 00  5 15 19  3 15.0000000  0  6G30G 5G 6G10G17G24
  20730731.0944    -121805.50648    -77886.50048                  20730735.9804
        29.7504         40.2504
  20847613.1954     793901.54547    618623.34947                  20847619.0664
        26.2504         33.7504
  22368247.8364    -638602.26247   -497610.83046                  22368253.8134
        20.7504         18.7504
  20988959.6884      -8958.09447     -6979.51247                  20988965.6414
        27.7504         35.0004
  23786080.6804    -830455.52146   -641312.07345                  23786091.0084
        12.0004          7.0004
  22185932.2504    1065258.58047    830071.17446                  22185938.2624
        25.5004         24.0004
 00  5 15 19  3 30.0000000  0  6G30G 5G 6G10G17G24
  20730590.9534    -122540.81248    -78459.46148                  20730595.7814
        29.5004         40.2504
  20854459.5164     829878.82347    646657.55947                  20854465.4104
        26.2504         34.0004
  22363865.3524    -661632.95847   -515556.80346                  22363871.1414
        21.5004         18.7504
  20989737.9304      -4869.58547     -3793.63547                  20989744.0004
        27.5004         35.0004
  23780317.6254    -860738.81545   -664909.34245                  23780328.3984
        11.5004          6.7504
  22194617.5784    1110900.48447    865636.27046                  22194623.6844
        24.5004         24.0004
 00  5 15 19  3 45.0000000  0  6G30G 5G 6G10G17G24
  20730500.3674    -123017.42748    -78830.84548                  20730505.2544
        29.5004         40.0004
  20861350.8204     866092.91847    674876.31147                  20861356.7154
        26.5004         33.5004
  22359507.6954    -684532.46247   -533400.54646                  22359513.4264
        21.7504         18.7504
  20990567.0634       -511.23647      -397.50447                  20990573.0514
        27.0004         35.0004
  23774586.5474    -890855.46645   -688376.75545                  23774596.6884
        11.5004          6.7504
  22203329.6174    1156682.49947    901310.53546                  22203335.7584
        24.7504         24.5004
 00  5 15 19  4  0.0000000  0  6G30G 5G 6G10G17G24
  20730458.0004    -123239.64848    -79003.99848                  20730463.0164
        29.2504         40.0004
  20868286.3204     902539.14347    703275.93447                  20868292.2154
        26.5004         33.5004
  22355174.3444    -707305.10647   -551145.43346                  22355180.3674
        21.5004         18.5004
  20991447.0394       4112.53047      3205.44947                  20991453.1094
        27.0004         35.0004
  23768886.6024    -920809.79845   -711717.67045                  23768897.1414
        11.7504          7.5004
  22212067.3284    1202599.94947    937090.33746                  22212073.4224
        25.2504         24.5004
 00  5 15 19  4 15.0000000  0  6G30G 5G 6G10G17G24
  20730464.7974    -123204.04648    -78976.25248                  20730469.6844
        29.0004         39.5004
  20875266.6414     939220.49547    731858.77547                  20875272.5944
        26.5004         34.0004
  22350865.4844    -729947.66047   -568788.94846                  22350871.4144
        21.7504         19.2504
  20992377.9694       9004.88147      7017.68747                  20992383.8634
        27.0004         34.7504
  23763217.9534    -950598.61046   -734929.62845                  23763228.5274
        12.2504          7.7504
  22220831.6954    1248655.66247    972977.86546                  22220837.6604
        26.0004         23.7504
 00  5 15 19  4 30.0000000  0  6G30G 5G 6G10G17G24
  20730519.7664    -122915.37948    -78751.31548                  20730524.6764
        29.0004         39.5004
  20882290.6644     976132.06647    760621.01247                  20882296.5234
        26.5004         33.7504
  22346580.6804    -752464.71947   -586334.67746                  22346586.7624
        22.0004         19.0004
  20993359.0864      14161.19647     11035.61847                  20993365.0274
        27.0004         34.7504
  23757579.1414    -980226.57945   -758016.25545                  23757590.1374
        11.0004          6.7504
  22229621.3754    1294844.68247   1008969.28746                  22229627.3984
        24.5004         24.0004
 00  5 15 19  4 45.0000000  0  6G30G 5G 6G10G17G24
  20730621.7664    -122378.92048    -78333.29247                  20730626.7934
        28.7504         39.2504
  20889357.5784    1013268.26247    789558.27647                  20889363.4844
        26.5004         33.7504
  22342318.7194    -774861.57447   -603786.74346                  22342324.5554
        21.5004         19.0004
  20994389.6884      19576.13347     15255.06747                  20994395.7114
        27.0004         35.0004
  23751971.2734   -1009698.99246   -780981.66145                  23751981.4964
        12.0004          7.0004
  22238435.0234    1341161.49847   1045060.28046                  22238441.0234
        25.0004         23.7504
 00  5 15 19  5  0.0000000  0  6G30G 5G 6G10G17G24
  20730771.0234    -121594.91448    -77722.37547                  20730776.1214
        28.7504         39.2504
  20896466.9694    1050628.58947    818670.19247                  20896472.8284
        26.5004         33.0004
  22338079.4614    -797138.51347   -621145.36546                  22338085.1804
        21.7504         18.7504
  20995469.3364      25249.46647     19675.86347                  20995475.3134
        27.5004         35.2504
  23746392.5944   -1039016.15046   -803826.09145                  23746402.9104
        12.2504          7.2504
  22247272.9694    1387605.58147   1081250.43746                  22247278.9104
        25.2504         23.2504
 00  5 15 19  5 15.0000000  0  6G30G 5G 6G10G17G24
  20730967.1644    -120564.53848    -76919.48347                  20730972.2854
        28.2504         38.2504
  20903618.8444    1088211.54047    847955.57647                  20903624.7854
        26.2504         32.7504
  22333863.0864    -819296.71447   -638411.45646                  22333869.0864
        21.5004         19.2504
  20996597.8204      31179.77747     24296.90147                  20996603.7624
        27.0004         34.7504
  23740842.6254   -1068179.39045   -826550.60745                  23740853.7154
        11.7504          7.5004
  22256135.0634    1434175.40247   1117538.58546                  22256141.3914
        25.0004         23.5004
 00  5 15 19  5 30.0000000  0  6G30G 5G 6G10G17G24
  20731209.4144    -119291.24248    -75927.30248                  20731214.5944
        28.7504         39.5004
  20910812.2424    1126013.38947    877411.52947                  20910818.1024
        26.7504         32.7504
  22329668.2504    -841339.57747   -655587.68046                  22329674.1334
        22.0004         19.7504
  20997774.3364      37363.55147     29115.43947                  20997780.3484
        27.5004         35.2504
  23735321.5704   -1097192.16445   -849157.84245                  23735332.0044
        11.5004          7.0004
  22265020.0234    1480867.09347   1153921.68546                  22265026.0594
        24.5004         23.0004
 00  5 15 19  5 45.0000000  0  6G30G 5G 6G10G17G24
  20731497.4844    -117778.00048    -74748.15348                  20731502.4884
        29.2504         39.5004
  20918046.7664    1164030.72447    907035.39247                  20918052.6134
        26.2504         32.7504
  22325494.9924    -863270.19747   -672676.46246                  22325500.8984
        22.2504         19.7504
  20998998.8364      43797.63047     34129.02347                  20999004.8134
        27.0004         35.7504
  23729828.9304   -1126057.52945   -871650.24445                  23729838.8834
        11.7504          6.7504
  22273927.8444    1527677.38447   1190397.20946                  22273934.1844
        23.5004         23.2504
 00  5 15 19  6  0.0000000  0  6G30G 5G 6G10G17G24
  20731830.6334    -116026.54048    -73383.37948                  20731835.4844
        29.2504         39.7504
  20925321.8364    1202261.51247    936825.58847                  20925327.7074
        26.2504         32.5004
  22321342.6174    -885090.37447   -689679.16346                  22321348.6884
        21.2504         19.7504
  21000270.4924      50480.17347     39336.21247                  21000276.4924
        27.0004         35.5004
  23724363.4774   -1154777.37945   -894029.23945                  23724373.4774
        11.7504          7.2504
  22282857.5944    1574604.17547   1226963.50746                  22282863.8524
        24.2504         23.5004
 00  5 15 19  6 15.0000000  0  6G30G 5G 6G10G17G24
  20732208.7504    -114040.62048    -71835.90648                  20732213.6484
        29.5004         40.0004
  20932636.8284    1240701.72747    966778.96747                  20932642.7114
        26.5004         32.2504
  22317210.6024    -906803.76947   -706598.63346                  22317216.6024
        22.0004         20.0004
  21001588.6724      57407.43147     44734.09347                  21001594.6484
        27.0004         35.0004
  23718924.9774   -1183355.35545   -916297.68545                  23718935.7624
        11.5004          6.5004
  22291809.0634    1621643.36047   1263617.38546                  22291815.3674
        24.2504         22.5004
 00  5 15 19  6 30.0000000  0  6G30G 5G 6G10G17G24
  20732630.9064    -111822.07848    -70107.17348                  20732635.8164
        29.2504         40.2504
  20939991.3594    1279349.22047    996893.85947                  20939997.1134
        26.5004         32.2504
  22313098.6484    -928412.17547   -723436.34946                  22313104.4024
        22.7504         20.5004
  21002953.0864      64577.58247     50321.23047                  21002959.0164
        27.2504         35.7504
  23713513.1644   -1211793.37145   -938457.07745                  23713523.5634
        11.7504          7.0004
  22300781.1954    1668792.91147   1300357.26646                  22300787.3484
        23.7504         22.5004
 00  5 15 19  6 45.0000000  0  6G30G 5G 6G10G17G24
  20733096.8914    -109372.96648    -68198.77448                  20733101.6484
        29.7504         41.0004
  20947384.6414    1318201.48147   1027168.31547                  20947390.4304
        26.2504         32.2504
  22309006.1334    -949917.72147   -740193.88146                  22309012.1454
        21.2504         20.2504
  21004363.2734      71988.29347     56095.82447                  21004369.2384
        27.5004         35.5004
  23708127.8914   -1240093.67045   -960509.16945                  23708138.2304
        11.7504          7.2504
  22309774.1174    1716050.35347   1337181.21546                  22309780.3874
        24.2504         22.7504
 00  5 15 19  7  0.0000000  0  6G30G 5G 6G10G17G24
  20733606.1564    -106696.95348    -66113.56948                  20733610.9264
        29.7504         40.7504
  20954816.3594    1357254.72847   1057599.38447                  20954822.3014
        26.0004         32.0004
  22304932.8914    -971323.95047   -756874.00146                  22304939.0314
        22.0004         20.2504
  21005818.6564      79636.15147     62055.20747                  21005824.6804
        27.0004         35.2504
  23702767.7814   -1268259.81345   -982456.69745                  23702777.9224
        11.7504          7.0004
  22318786.4844    1763411.84847   1374086.24646                  22318792.8134
        23.7504         22.2504
 00  5 15 19  7 15.0000000  0  6G30G 5G 6G10G17G24
  20734158.7894    -103793.97048    -63851.50548                  20734163.5824
        29.7504         40.5004
  20962285.9774    1396508.53847   1088186.73447                  20962291.8594
        26.2504         32.2504
  22300878.4304    -992630.96047   -773476.87046                  22300884.2304
        23.0004         20.7504
  21007319.0704      87520.77947     68199.08247                  21007325.0474
        26.7504         35.7504
  23697433.7424   -1296291.82546  -1004299.72445                  23697443.6604
        12.0004          7.7504
  22327819.2974    1810877.05547   1411072.07946                  22327825.5204
        23.5004         22.0004
 00  5 15 19  7 30.0000000  0  6G30G 5G 6G10G17G24
  20734753.5474    -100667.53148    -61415.31848                  20734758.3404
        29.7504         41.2504
  20969793.2344    1435959.25747   1118927.51947                  20969799.0124
        26.2504         32.0004
  22296842.0004   -1013842.08447   -790005.00046                  22296847.9304
        22.0004         20.5004
  21008863.8834      95638.85247     74524.86447                  21008869.9884
        27.0004         36.0004
  23692124.1094   -1324193.15146  -1026040.92045                  23692134.1094
        12.2504          7.7504
  22336870.3984    1858442.22747   1448135.82946                  22336876.6214
        23.0004         21.5004
 00  5 15 19  7 45.0000000  0  6G30G 5G 6G10G17G24
  20735390.2734     -97322.09148    -58808.48448                  20735395.0314
        29.5004         40.7504
  20977337.1484    1475602.10247   1149818.01447                  20977342.9264
        26.2504         32.2504
  22292823.0944   -1034961.82247   -806461.88146                  22292829.2344
        22.2504         20.7504
  21010452.3134     103985.76847     81028.96347                  21010458.2894
        27.2504         35.5004
  23686838.6174   -1351968.31545  -1047683.79645                  23686848.7814
        11.7504          7.0004
  22345939.9384    1906102.50947   1485273.66846                  22345945.9144
        23.5004         21.2504
 00  5 15 19  8  0.0000000  0  6G30G 5G 6G10G17G24
  20736068.0944     -93759.65848    -56032.56448                  20736072.8984
        29.5004         40.7504
  20984917.0944    1515434.68347   1180856.35347                  20984923.0824
        26.5004         32.7504
  22288820.9844   -1055992.25047   -822849.22046                  22288826.9964
        22.0004         20.7504
  21012083.7274     112559.38747     87709.71547                  21012089.7734
        27.5004         36.0004
  23681577.0084   -1379619.44046  -1069230.03245                  23681587.5704
        12.0004          7.5004
  22355026.9614    1953855.71547   1522483.93546                  22355033.3714
        23.0004         21.7504
 00  5 15 19  8 15.0000000  0  6G30G 5G 6G10G17G24
  20736788.4144     -89974.83048    -53083.34848                  20736793.2074
        29.2504         40.0004
  20992534.1334    1555462.13447   1212046.54047                  20992539.9924
        26.5004         32.7504
  22284837.3204   -1076927.87147   -839162.65446                  22284843.2734
        23.0004         20.7504
  21013759.5004     121365.06047     94571.28647                  21013765.4774
        26.7504         35.2504
  23676339.6954   -1407141.13446  -1090675.41345                  23676349.6254
        12.2504          7.7504
  22364132.9224    2001706.79747   1559770.45246                  22364138.9224
        23.5004         21.2504
 00  5 15 19  8 30.0000000  0  6G30G 5G 6G10G17G24
  20737549.9844     -85972.04648    -49964.30148                  20737554.8484
        29.2504         40.2504
  21000187.1484    1595679.53947   1243384.73947                  21000192.9844
        26.5004         32.5004
  22280870.5234   -1097773.29647   -855405.82846                  22280876.4414
        23.5004         22.0004
  21015478.4844     130398.06847    101610.00247                  21015484.4734
        27.5004         35.2504
  23671125.9694   -1434538.04846  -1112023.56445                  23671136.4384
        12.2504          7.5004
  22373256.1174    2049650.86647   1597129.44046                  22373262.1764
        22.7504         21.0004
 00  5 15 19  8 45.0000000  0  6G30G 5G 6G10G17G24
  20738352.9774     -81753.13548    -46676.83648                  20738357.6644
        29.2504         40.0004
  21007876.2034    1636084.86947   1274869.38247                  21007882.1214
        26.7504         32.5004
  22276920.5004   -1118530.20547   -871579.99646                  22276926.4064
        22.5004         20.7504
  21017240.2894     139656.79347    108824.60347                  21017246.2304
        27.5004         35.2504
  23665936.3364   -1461811.92546  -1133275.83545                  23665945.2344
        12.5004          8.0004
  22382397.2894    2097686.08647   1634559.44946                  22382403.3594
        23.0004         20.7504
 00  5 15 19  9  0.0000000  0  6G30G 5G 6G10G17G24
  20739197.0944     -77316.29448    -43219.56148                  20739202.0394
        29.0004         40.0004
  21015601.1334    1676679.62747   1306501.62047                  21015606.9344
        26.2504         32.2504
  22272987.7974   -1139196.71847   -887683.76346                  22272993.4574
        23.7504         21.2504
  21019045.4454     149142.79047    116216.29747                  21019051.3754
        27.5004         35.7504
  23660769.6954   -1488960.98046  -1154430.85545                  23660779.8014
        12.5004          8.2504
  22391555.4694    2145813.86447   1672061.58146                  22391561.7624
        22.7504         21.2504
 00  5 15 19  9 15.0000000  0  6G30G 5G 6G10G17G24
  20740082.0394     -72665.76748    -39595.77748                  20740087.0904
        29.2504         40.2504
  21023361.2584    1717459.36147   1338277.99747                  21023367.0704
        26.2504         32.5004
  22269071.2424   -1159777.09447   -903720.40446                  22269077.1134
        22.0004         20.2504
  21020893.0704     158851.84247    123781.80347                  21020899.1764
        27.7504         35.7504
  23655626.2274   -1515989.45846  -1175491.91745                  23655636.0164
        12.5004          7.7504
  22400730.8284    2194029.71647   1709632.32746                  22400736.7814
        24.0004         21.0004
 00  5 15 19  9 30.0000000  0  6G30G 5G 6G10G17G24
  20741007.5554     -67803.05948    -35806.65548                  20741012.4884
        29.0004         40.2504
  21031156.3364    1758422.20647   1370197.05947                  21031162.3364
        26.2504         32.5004
  22265171.1484   -1180272.91147   -919691.11846                  22265177.0084
        23.0004         20.7504
  21022782.6414     168782.22747    131519.77747                  21022788.6054
        27.7504         35.5004
  23650505.3134   -1542898.97246  -1196460.27245                  23650514.9734
        13.0004          8.0004
  22409922.2424    2242331.65747   1747270.19246                  22409928.4184
        22.2504         21.0004
 00  5 15 19  9 45.0000000  0  6G30G 5G 6G10G17G24
  20741973.4454     -62727.14248    -31851.40048                  20741978.4494
        29.0004         39.7504
  21038986.3204    1799568.88347   1402259.36547                  21038992.3324
        26.2504         31.5004
  22261287.3594   -1200683.01947   -935595.09046                  22261292.7274
        23.7504         21.2504
  21024714.7344     178934.99447    139431.03347                  21024720.6644
        27.2504         35.7504
  23645407.4614   -1569688.50946  -1217335.15145                  23645416.4884
        12.5004          8.2504
  22419130.5474    2290720.68647   1784975.87746                  22419137.0634
        22.2504         21.0004
 00  5 15 19 10  0.0000000  0  6G30G 5G 6G10G17G24
  20742979.4144     -57440.81148    -27732.17948                  20742984.3484
        29.2504         40.0004
  21046850.6644    1840896.26347   1434462.48247                  21046856.5474
        26.2504         32.2504
  22257419.2194   -1221010.16747   -951434.40146                  22257425.0784
        23.0004         21.5004
  21026688.3834     189307.22147    147513.29847                  21026694.4304
        27.2504         36.2504
  23640331.8754   -1596360.84646  -1238118.69345                  23640341.0664
        12.5004          8.2504
  22428354.6644    2339193.53847   1822746.88946                  22428360.5824
        22.7504         20.2504
 00  5 15 19 10 15.0000000  0  6G30G 5G 6G10G17G24
  20744024.4774     -51948.78348    -23452.68148                  20744029.4224
        29.2504         40.2504
  21054748.4694    1882399.38547   1466802.53847                  21054754.3054
        26.2504         31.7504
  22253565.9924   -1241259.05847   -967212.72446                  22253571.5824
        24.0004         22.7504
  21028702.9534     199894.09147    155762.81747                  21028708.9534
        27.2504         35.5004
  23635277.7974   -1622920.75446  -1258814.63645                  23635287.2704
        13.0004          8.0004
  22437593.7114    2387745.34447   1860579.44146                  22437600.2384
        22.5004         20.7504
 00  5 15 19 10 30.0000000  0  6G30G 5G 6G10G17G24
  20745108.4774     -46252.70348    -19014.17748                  20745113.4224
        29.5004         40.7504
  21062679.3984    1924076.22147   1499277.95347                  21062685.3634
        26.0004         32.5004
  22249727.1644   -1261431.40347   -982931.41346                  22249733.1174
        22.7504         21.5004
  21030758.1024     210693.83747    164178.21447                  21030764.0554
        27.2504         35.7504
  23630244.3674   -1649370.02446  -1279424.36845                  23630254.2274
        12.5004          8.2504
  22446847.7114    2436374.00647   1898471.86446                  22446853.6414
        22.2504         20.7504
 00  5 15 19 10 45.0000000  0  6G30G 5G 6G10G17G24
  20746230.9694     -40354.42948    -14418.12348                  20746235.8094
        29.7504         41.0004
  21070643.0394    1965924.57047   1531887.02047                  21070648.9454
        26.2504         31.7504
  22245902.7344   -1281528.98847   -998591.83046                  22245908.6174
        23.2504         21.5004
  21032853.4144     221704.60247    172758.04047                  21032859.4494
        27.5004         36.0004
  23625232.1884   -1675710.49546  -1299949.32145                  23625242.2464
        12.5004          8.2504
  22456115.3914    2485077.44147   1936422.56446                  22456121.3794
        22.2504         20.2504
 00  5 15 19 11  0.0000000  0  6G30G 5G 6G10G17G24
  20747391.9774     -34253.90448     -9664.46748                  20747396.6414
        30.0004         41.2504
  21078639.0234    2007944.33747   1564629.65447                  21078644.9414
        26.0004         31.5004
  22242092.5944   -1301551.58047  -1014193.83746                  22242098.3014
        23.0004         21.7504
  21034988.9534     232926.43947    181502.33847                  21034994.9534
        27.2504         35.7504
  23620239.7814   -1701942.05246  -1320389.39545                  23620249.3014
        12.2504          7.7504
  22465397.6724    2533855.56147   1974431.44846                  22465404.6374
        22.7504         20.7504
 00  5 15 19 11 15.0000000  0  6G30G 5G 6G10G17G24
  20748590.3444     -27956.33248     -4757.27748                  20748594.9494
        30.0004         41.7504
  21086666.5004    2050129.75547   1597501.36747                  21086672.5004
        25.7504         31.5004
  22238295.3674   -1321504.64547  -1029741.64246                  22238301.2274
        22.0004         20.5004
  21037163.4224     244353.74247    190406.74047                  21037169.3754
        27.0004         36.2504
  23615267.9614   -1728070.21346  -1340748.90045                  23615278.0204
        12.0004          8.0004
  22474693.0394    2582702.61647   2012494.04546                  22474699.1684
        22.7504         19.2504
 00  5 15 19 11 30.0000000  0  6G30G 5G 6G10G17G24
  20749826.5554     -21459.01548       305.56848                  20749831.3834
        29.7504         41.2504
  21094726.2814    2092483.52147   1630504.26447                  21094732.3284
        26.0004         31.0004
  22234512.6644   -1341385.01547  -1045232.81746                  22234517.9384
        25.0004         23.0004
  21039377.6174     255989.39747    199473.49547                  21039383.6524
        26.7504         35.5004
  23610316.1024   -1754091.94346  -1361025.48745                  23610326.2424
        12.0004          7.7504
  22484002.1954    2631621.36147   2050612.52146                  22484008.2544
        22.2504         20.0004
 00  5 15 19 11 45.0000000  0  6G30G 5G 6G10G17G24
  20751100.9224     -14762.49448      5523.63348                  20751105.7854
        29.7504         40.7504
  21102817.8754    2135004.64347   1663637.57047                  21102823.8164
        26.2504         31.2504
  22230743.0394   -1361193.44647  -1060667.94546                  22230749.0044
        22.2504         22.5004
  21041631.2894     267832.69647    208702.04647                  21041637.3134
        27.2504         35.7504
  23605384.7894   -1780008.06346  -1381219.77845                  23605394.7194
        12.5004          8.2504
  22493324.5084    2680610.71547   2088785.99546                  22493331.1054
        23.0004         20.7504
 00  5 15 19 12  0.0000000  0  6G30G 5G 6G10G17G24
  20752412.9454      -7868.46048     10895.60548                  20752417.8444
        29.7504         41.5004
  21110940.9144    2177691.06447   1696899.67247                  21110946.9144
        25.7504         30.5004
  22226986.9534   -1380931.68347  -1076048.33646                  22226992.8134
        23.0004         21.7504
  21043924.1334     279881.81947    218090.98847                  21043930.1334
        27.5004         35.7504
  23600472.3444   -1805820.33646  -1401333.14845                  23600482.4024
        12.2504          7.7504
  22502659.9304    2729668.75747   2127013.00146                  22502666.0124
        22.5004         19.5004
 00  5 15 19 12 15.0000000  0  6G30G 5G 6G10G17G24
  20753762.5164       -775.84248     16422.31448                  20753767.2154
        29.7504         41.2504
  21119095.6724    2220543.67247   1730291.27147                  21119101.6254
        25.2504         30.7504
  22223244.3984   -1400598.42147  -1091373.05746                  22223250.0594
        23.0004         21.7504
  21046256.4384     292137.92447    227641.21347                  21046262.5204
        27.0004         35.7504
  23595580.6484   -1831527.50446  -1421364.62545                  23595590.0164
        12.5004          7.7504
  22512008.6884    2778796.35547   2165294.22046                  22512015.1094
        23.0004         20.5004
 00  5 15 19 12 30.0000000  0  6G30G 5G 6G10G17G24
  20755148.8594       6508.54548     22098.45748                  20755153.4414
        30.0004         41.2504
  21127280.2274    2263555.23347   1763806.73147                  21127286.2274
        25.0004         30.5004
  22219514.2424   -1420200.55147  -1106647.41146                  22219520.2194
        22.7504         21.2504
  21048626.6254     304593.83847    237347.13347                  21048632.6254
        27.2504         36.0004
  23590707.6254   -1857136.53646  -1441319.63045                  23590717.4614
        13.0004          9.0004
  22521369.2344    2827986.36247   2203624.05246                  22521376.1524
        21.0004         20.2504
 00  5 15 19 12 45.0000000  0  6G30G 5G 6G10G17G24
  20756572.2114      13988.46448     27926.96048                  20756576.8404
        30.0004         41.0004
  21135495.8594    2306729.26247   1797448.79047                  21135501.8714
        24.7504         30.2504
  22215797.2344   -1439734.23747  -1121868.43346                  22215803.0944
        23.5004         22.0004
  21051035.8834     317253.47247    247211.78847                  21051041.9414
        27.2504         36.0004
  23585853.3444   -1882643.70346  -1461195.25445                  23585863.0274
        13.0004          8.5004
  22530742.3134    2877242.30447   2242005.26046                  22530748.4184
        23.5004         19.7504
 00  5 15 19 13  0.0000000  0  6G30G 5G 6G10G17G24
  20758031.3914      21656.57048     33902.10648                  20758036.0554
        30.0004         41.0004
  21143741.2344    2350058.13147   1831211.50347                  21143747.2464
        24.7504         29.7504
  22212091.6564   -1459206.65047  -1137041.73546                  22212097.4694
        23.0004         21.7504
  21053482.2344     330109.34047    257229.36047                  21053488.1764
        27.0004         36.2504
  23581017.7424   -1908056.25946  -1480997.17045                  23581027.5084
        13.0004          8.7504
  22540126.5004    2926556.74547   2280432.06946                  22540133.4304
        21.0004         20.2504
 00  5 15 19 13 15.0000000  0  6G30G 5G 6G10G17G24
  20759526.2504      29512.32148     40023.46248                  20759531.1134
        29.7504         41.2504
  21152015.8524    2393540.96147   1865094.18447                  21152021.8524
        24.5004         29.7504
  22208397.7974   -1478618.38847  -1152167.73146                  22208403.6454
        23.5004         22.0004
  21055965.7274     343160.69947    267399.26047                  21055971.6804
        27.2504         36.2504
  23576199.5474   -1933374.86246  -1500725.86445                  23576209.7344
        13.0004          8.7504
  22549521.8524    2975928.60247   2318903.58746                  22549528.7344
        22.5004         20.5004
 00  5 15 19 13 30.0000000  0  6G30G 5G 6G10G17G24
  20761056.7344      37555.26048     46290.68248                  20761061.6914
        29.7504         40.7504
  21160319.6564    2437177.05147   1899096.28347                  21160325.6454
        24.2504         29.2504
  22204715.1954   -1497969.79047  -1167246.72246                  22204721.1254
        22.7504         21.7504
  21058486.3984     356406.94447    277721.01947                  21058492.3634
        27.5004         36.0004
  23571399.1254   -1958599.96246  -1520381.69545                  23571409.8634
        12.5004          8.5004
  22558927.4304    3025357.27147   2357419.42246                  22558933.6644
        21.0004         19.7504
 00  5 15 19 13 45.0000000  0  6G30G 5G 6G10G17G24
  20762622.5164      45782.72548     52701.68848                  20762627.3094
        29.7504         40.7504
  21168651.7894    2480963.33547   1933215.42947                  21168657.8364
        24.2504         29.2504
  22201043.4694   -1517263.53747  -1182280.78446                  22201049.4694
        23.0004         22.0004
  21061043.7424     369845.46547    288192.60547                  21061049.8014
        27.5004         36.5004
  23566616.2814   -1983734.26546  -1539966.78245                  23566626.1294
        12.5004          8.2504
  22568344.0084    3074839.78847   2395977.16046                  22568351.2194
        22.7504         20.2504
 00  5 15 19 14  0.0000000  0  6G30G 5G 6G10G17G24
  20764223.8984      54197.81948     59258.89848                  20764228.6214
        29.7504         40.7504
  21177013.0004    2524902.81147   1967453.93347                  21177018.9774
        24.0004         29.2504
  22197383.9454   -1536496.38947  -1197267.38446                  22197390.0394
        23.2504         22.2504
  21063638.1414     383479.37647    298816.44247                  21063644.0944
        27.0004         36.2504
  23561851.1564   -2008774.54846  -1559478.62045                  23561861.3444
        13.0004          9.5004
  22577770.8984    3124379.09547   2434579.19346                  22577777.8054
        21.5004         20.0004
 00  5 15 19 14 15.0000000  0  6G30G 5G 6G10G17G24
  20765859.2114      62791.47648     65955.24748                  20765863.9224
        30.0004         41.0004
  21185402.0004    2568986.09147   2001804.49647                  21185408.0004
        24.0004         29.0004
  22193734.0554   -1555677.23547  -1212213.48346                  22193739.5984
        23.7504         22.5004
  21066268.0944     397299.47647    309585.36247                  21066274.1414
        26.5004         35.7504
  23557102.4614   -2033729.90646  -1578924.27145                  23557112.6954
        12.2504          8.5004
  22587207.0004    3173965.98947   2473218.28646                  22587213.7384
        21.0004         19.0004
 00  5 15 19 14 30.0000000  0  6G30G 5G 6G10G17G24
  20767530.0704      71572.21448     72797.37548                  20767534.7344
        30.0004         41.0004
  21193819.6644    2613221.33447   2036273.47247                  21193825.6414
        23.7504         29.5004
  22190095.4304   -1574797.55647  -1227112.42146                  22190101.3364
        23.0004         22.2504
  21068934.9384     411314.16147    320505.90547                  21068940.8554
        26.7504         36.7504
  23552371.1414   -2058591.92446  -1598297.18045                  23552381.3874
        12.0004          8.2504
  22596653.8364    3223608.60247   2511900.81046                  22596660.8244
        22.0004         20.2504
 00  5 15 19 14 45.0000000  0  6G30G 5G 6G10G17G24
  20769233.7504      80525.38448     79773.86648                  20769238.4494
        30.0004         41.0004
  21202263.4774    2657593.60147   2070849.21847                  21202269.4414
        23.7504         29.2504
  22186465.4224   -1593871.98747  -1241975.57446                  22186471.4224
        23.5004         22.5004
  21071636.0394     425508.70647    331566.59847                  21071642.0274
        26.7504         36.7504
  23547654.6564   -2083375.32746  -1617608.84145                  23547664.8324
        12.5004          8.7504
  22606108.2894    3273292.07947   2550615.15646                  22606115.7704
        21.0004         20.0004
 00  5 15 19 15  0.0000000  0  6G30G 5G 6G10G17G24
  20770971.3524      89656.08148     86888.68548                  20770976.0514
        30.0004         41.2504
  21210734.2894    2702107.62847   2105535.42847                  21210740.3594
        23.7504         29.7504
  22182845.5554   -1612895.35847  -1256798.96646                  22182851.4264
        23.2504         22.7504
  21074372.2894     439888.14547    342771.36747                  21074378.2544
        27.5004         36.5004
  23542954.2194   -2108075.01446  -1636855.28345                  23542964.1724
        12.2504          8.7504
  22615571.4144    3323021.15747   2589365.04646                  22615577.4964
        22.0004         18.7504
 00  5 15 19 15 15.0000000  0  6G30G 5G 6G10G17G24
  20772742.7344      98964.19748     94141.75848                  20772747.4924
        29.7504         40.7504
  21219231.9454    2746762.91547   2140331.70747                  21219237.9454
        23.7504         29.2504
  22179235.2734   -1631867.80547  -1271582.66346                  22179241.1564
        23.7504         23.0004
  21077143.7974     454452.14347    354119.94947                  21077149.7974
        27.2504         36.2504
  23538270.2894   -2132691.13646  -1656036.58345                  23538280.7344
        12.5004          9.0004
  22625043.2894    3372795.41147   2628150.14546                  22625050.6294
        21.7504         20.5004
 00  5 15 19 15 30.0000000  0  6G30G 5G 6G10G17G24
  20774548.3134     108452.62748    101535.33248                  20774553.1994
        29.5004         41.0004
  21227757.0864    2791562.09147   2175240.10547                  21227763.0274
        23.7504         29.2504
  22175635.1334   -1650786.37047  -1286324.38246                  22175641.1454
        23.7504         23.2504
  21079950.7894     469203.51647    365614.53347                  21079956.8484
        27.0004         36.2504
  23533602.6564   -2157220.82046  -1675150.55045                  23533612.5514
        12.7504          9.5004
  22634524.2034    3422617.65347   2666972.60746                  22634531.6254
        22.0004         19.2504
 00  5 15 19 15 45.0000000  0  6G30G 5G 6G10G17G24
  20776387.8134     118119.59348    109068.03148                  20776392.7344
        29.7504         40.7504
  21236309.1564    2836503.17047   2210259.08047                  21236315.2034
        24.0004         29.7504
  22172044.9304   -1669652.68647  -1301025.36646                  22172050.7544
        24.5004         23.5004
  21082793.1884     484140.46747    377253.72447                  21082799.2114
        26.7504         36.5004
  23528950.6724   -2181665.76646  -1694198.47645                  23528960.8714
        12.2504          9.2504
  22644013.7894    3472485.83547   2705830.90746                  22644019.9774
        21.7504         19.0004
 00  5 15 19 16  0.0000000  0  6G30G 5G 6G10G17G24
  20778261.2584     127964.61948    116739.46948                  20778266.1804
        29.7504         40.7504
  21244887.8524    2881585.24347   2245387.91947                  21244893.8634
        24.2504         29.7504
  22168464.6024   -1688467.17847  -1315686.00746                  22168469.9344
        24.7504         24.2504
  21085670.8524     499262.32947    389036.99947                  21085676.8404
        27.2504         36.2504
  23524314.8054   -2206026.61646  -1713180.87545                  23524324.8754
        12.7504          9.2504
  22653512.2664    3522399.16947   2744724.37146                  22653519.7934
        22.0004         20.0004
 00  5 15 19 16 15.0000000  0  6G30G 5G 6G10G17G24
  20780168.5554     137988.00448    124549.89648                  20780173.5004
        29.7504         40.7504
  21253493.8284    2926808.42747   2280626.70947                  21253499.8404
        24.5004         30.0004
  22164894.2114   -1707229.53847  -1330306.00646                  22164900.0124
        22.7504         22.2504
  21088583.7114     514569.26747    400964.49447                  21088589.7234
        27.7504         36.7504
  23519695.4694   -2230303.00546  -1732097.46245                  23519705.7274
        13.0004         10.0004
  22663018.8984    3572357.64247   2783652.98846                  22663026.0634
        22.7504         19.5004
 00  5 15 19 16 30.0000000  0  6G30G 5G 6G10G17G24
  20782109.8594     148188.05648    132497.98148                  20782114.6764
        30.0004         40.7504
  21262126.1884    2972170.72847   2315973.91247                  21262132.2114
        24.2504         29.5004
  22161333.5394   -1725941.27047  -1344886.53946                  22161339.3054
        24.7504         23.7504
  21091531.3524     530059.56347    413034.86347                  21091537.3874
        27.5004         36.5004
  23515091.3364   -2254496.60446  -1750949.55045                  23515101.3594
        13.0004          9.5004
  22672533.9924    3622359.46947   2822615.43546                  22672540.3554
        21.2504         18.5004
 00  5 15 19 16 45.0000000  0  6G30G 5G 6G10G17G24
  20784083.4224     158559.77948    140579.82948                  20784088.1454
        30.0004         41.0004
  21270783.5704    3017666.79647   2351425.34747                  21270789.6174
        24.2504         29.7504
  22157781.5474   -1744607.30647  -1359431.49446                  22157787.5824
        23.5004         23.5004
  21094513.0704     545728.14847    425244.15647                  21094519.0594
        27.5004         36.2504
  23510502.0314   -2278612.46046  -1769741.04645                  23510511.5984
        13.5004          9.5004
  22682056.3524    3672399.38347   2861607.52546                  22682063.2934
        22.7504         19.2504
 00  5 15 19 17  0.0000000  0  6G30G 5G 6G10G17G24
  20786090.3054     169105.79548    148797.49548                  20786095.1214
        29.7504         41.2504
  21279467.2114    3063299.26847   2386983.06747                  21279473.2234
        24.7504         29.7504
  22154238.9534   -1763224.75547  -1373938.56346                  22154244.8484
        25.0004         24.2504
  21097529.1024     561577.81947    437594.55647                  21097535.0904
        27.2504         36.2504
  23505928.4384   -2302647.80746  -1788469.79845                  23505937.8874
        13.2504          9.5004
  22691586.3984    3722479.98847   2900631.32646                  22691593.5634
        21.5004         18.7504
 00  5 15 19 17 15.0000000  0  6G30G 5G 6G10G17G24
  20788130.8914     179829.53848    157153.65148                  20788135.7664
        30.0004         40.7504
  21288177.3444    3109071.00647   2422649.30447                  21288183.4024
        24.5004         29.2504
  22150705.8674   -1781790.31947  -1388405.23146                  22150711.2234
        25.0004         25.2504
  21100580.2974     577611.53147    450088.35747                  21100586.3444
        27.5004         36.2504
  23501370.5864   -2326599.47546  -1807133.37145                  23501380.1054
        13.0004          9.2504
  22701124.6024    3772604.18247   2939689.10946                  22701130.9654
        20.5004         17.7504
 00  5 15 19 17 30.0000000  0  6G30G 5G 6G10G17G24
  20790203.7814     190722.35748    165641.55448                  20790208.5164
        30.0004         41.2504
  21296912.1414    3154973.18647   2458417.18547                  21296918.1054
        24.5004         29.7504
  22147181.1414   -1800312.52747  -1402838.08746                  22147187.2114
        23.7504         24.5004
  21103664.8284     593820.72747    462718.90947                  21103670.8524
        27.7504         36.5004
  23496826.9064   -2350475.95546  -1825738.34845                  23496836.6954
        13.2504          9.2504
  22710669.7664    3822763.21047   2978774.01846                  22710677.0124
        22.2504         19.2504
 00  5 15 19 17 45.0000000  0  6G30G 5G 6G10G17G24
  20792310.1174     201790.27148    174265.89248                  20792314.9344
        30.0004         41.2504
  21305673.0394    3201011.59347   2494291.21747                  21305678.9574
        24.2504         29.0004
  22143665.8594   -1818785.20847  -1417232.36846                  22143671.6134
        24.5004         24.5004
  21106783.6954     610211.33547    475490.82047                  21106789.6134
        27.5004         36.5004
  23492298.3364   -2374271.15546  -1844279.97845                  23492307.9384
        12.5004          9.2504
  22720222.2894    3872962.91747   3017890.63146                  22720228.6764
        20.7504         18.5004
 00  5 15 19 18  0.0000000  0  6G30G 5G 6G10G17G24
  20794449.0704     213031.62248    183025.38048                  20794453.6884
        30.5004         42.0004
  21314459.6094    3247184.08647   2530269.73747                  21314465.5634
        24.2504         29.0004
  22140159.4924   -1837210.07247  -1431589.38946                  22140165.4924
        23.2504         24.0004
  21109937.1174     626781.46447    488402.61647                  21109943.0824
        27.5004         36.2504
  23487785.3134   -2397986.90446  -1862759.70445                  23487794.4574
        13.0004          8.7504
  22729782.4384    3923201.27847   3057037.37546                  22729789.1054
        21.2504         18.0004
 00  5 15 19 18 15.0000000  0  6G30G 5G 6G10G17G24
  20796620.6804     224442.92248    191917.29048                  20796625.2974
        30.2504         41.2504
  21323270.7584    3293487.09347   2566349.94947                  21323276.7704
        24.2504         28.7504
  22136662.0554   -1855590.28147  -1445911.59646                  22136668.2424
        25.0004         25.2504
  21113123.7194     643527.71847    501451.65147                  21113129.6724
        27.0004         36.5004
  23483287.1954   -2421626.54146  -1881180.14845                  23483296.3164
        13.0004          8.7504
  22739349.3054    3973474.84747   3096211.54346                  22739355.8554
        22.2504         17.7504
 00  5 15 19 18 30.0000000  0  6G30G 5G 6G10G17G24
  20798825.4694     236028.58048    200945.06548                  20798830.1094
        30.5004         41.0004
  21332107.5234    3339924.58747   2602534.95447                  21332113.5004
        24.2504         28.5004
  22133173.5704   -1873921.51247  -1460195.66846                  22133179.5354
        23.7504         24.2504
  21116344.7274     660454.29947    514641.20247                  21116350.7154
        27.0004         36.0004
  23478804.0004   -2445185.76046  -1899537.89245                  23478813.1454
        13.0004          9.2504
  22748923.3914    4023787.59047   3135416.24046                  22748930.4384
        21.0004         18.0004
 00  5 15 19 18 45.0000000  0  6G30G 5G 6G10G17G24
  20801062.2274     247783.45648    210104.70048                  20801066.6914
        30.5004         41.7504
  21340968.8754    3386491.19247   2638820.56847                  21340974.8404
        23.7504         28.7504
  22129693.4694   -1892208.82147  -1474445.48946                  22129699.3634
        24.0004         24.2504
  21119598.9384     677555.96747    527967.17747                  21119604.9384
        26.7504         36.0004
  23474334.8594   -2468669.67646  -1917836.98645                  23474344.0984
        13.0004          9.2504
  22758504.3594    4074134.25647   3174647.36346                  22758510.6054
        22.2504         17.7504
 00  5 15 19 19  0.0000000  0  6G30G 5G 6G10G17G24
  20803332.6484     259714.18848    219401.36248                  20803337.1604
        30.5004         41.5004
  21349856.0314    3433193.24047   2675211.72547                  21349862.0904
        24.0004         28.5004
  22126223.2504   -1910445.30147  -1488655.71046                  22126229.2854
        23.7504         25.2504
  21122888.0084     694839.38847    541434.78947                  21122894.0904
        27.0004         35.7504
  23469881.6094   -2492071.59546  -1936072.17045                  23469890.4734
        13.2504          9.5004
  22768092.4844    4124521.26847   3213909.95446                  22768098.9534
        20.5004         17.7504
 00  5 15 19 19 15.0000000  0  6G30G 5G 6G10G17G24
  20805634.4224     271810.35148    228826.93548                  20805639.0984
        30.5004         41.5004
  21358766.8054    3480020.04047   2711700.08547                  21358772.8284
        23.7504         28.2504
  22122760.9534   -1928641.29947  -1502834.37946                  22122766.8484
        23.5004         24.5004
  21126209.4534     712294.09947    555035.86747                  21126215.3954
        26.7504         36.0004
  23465441.9224   -2515401.95246  -1954251.60145                  23465451.3134
        13.0004          9.2504
  22777686.7114    4174937.97147   3253195.63946                  22777693.5944
        21.7504         17.5004
 00  5 15 19 19 30.0000000  0  6G30G 5G 6G10G17G24
  20807968.7894     284077.88748    238386.04048                  20807973.5594
        30.2504         41.2504
  21367702.8364    3526977.20747   2748290.03447                  21367708.8594
        24.2504         28.0004
  22119306.9844   -1946790.77647  -1516976.83646                  22119313.0204
        23.2504         24.5004
  21129564.5004     729925.89247    568774.93247                  21129570.5234
        27.0004         35.7504
  23461016.9144   -2538654.87346  -1972370.68145                  23461026.2934
        13.7504         10.0004
  22787287.3054    4225390.14547   3292508.99546                  22787294.3984
        21.2504         17.7504
 00  5 15 19 19 45.0000000  0  6G30G 5G 6G10G17G24
  20810335.2814     296512.94948    248075.69048                  20810339.9924
        30.2504         41.0004
  21376662.4144    3574060.61147   2784978.34547                  21376668.4144
        24.2504         28.2504
  22115861.3594   -1964897.48847  -1531085.90746                  22115867.1954
        24.0004         25.2504
  21132952.8834     747730.79447    582648.89047                  21132958.8594
        26.7504         36.0004
  23456606.0634   -2561834.10746  -1990432.35545                  23456615.1254
        13.7504          9.5004
  22796894.1414    4275873.69447   3331846.78846                  22796900.6914
        20.7504         18.0004
 00  5 15 19 20  0.0000000  0  6G30G 5G 6G10G17G24
  20812733.2034     309113.68748    257894.43348                  20812738.0434
        30.0004         41.2504
  21385645.8444    3621268.12847   2821763.37647                  21385651.8794
        24.2504         28.2504
  22112423.6094   -1982963.24047  -1545163.12246                  22112429.3524
        24.0004         25.0004
  21136373.5634     765706.78947    596656.16447                  21136379.6094
        26.7504         35.7504
  23452208.8284   -2584941.56146  -2008438.08545                  23452217.9844
        13.7504         10.0004
  22806506.5634    4326386.49947   3371207.38046                  22806513.1134
        21.7504         17.5004
 00  5 15 19 20 15.0000000  0  6G30G 5G 6G10G17G24
  20815163.3524     321884.50048    267845.70448                  20815168.2504
        30.0004         41.2504
  21394653.5164    3668603.93547   2858648.36647                  21394659.5744
        24.2504         28.2504
  22108994.3284   -2000983.43647  -1559204.80546                  22109000.2114
        22.7504         24.5004
  21139827.5234     783858.28947    610800.19047                  21139833.4534
        27.0004         36.5004
  23447826.2194   -2607972.73246  -2026384.38545                  23447835.5274
        14.0004         10.0004
  22816124.9064    4376932.82847   3410594.10146                  22816131.6214
        20.2504         17.5004
 00  5 15 19 20 30.0000000  0  6G30G 5G 6G10G17G24
  20817626.2504     334827.16848    277930.88748                  20817631.2194
        30.2504         41.5004
  21403685.8444    3716069.34247   2895634.34347                  21403691.8674
        24.2504         27.7504
  22105574.3134   -2018956.30147  -1573209.60046                  22105580.2664
        24.2504         24.7504
  21143315.5234     802186.88747    625082.22147                  21143321.5474
        26.7504         36.2504
  23443458.1564   -2630925.99246  -2044269.94945                  23443467.3014
        14.0004         10.5004
  22825750.4694    4427514.23347   3450008.13546                  22825756.8794
        22.2504         17.0004
 00  5 15 19 20 45.0000000  0  6G30G 5G 6G10G17G24
  20820120.5474     347935.21548    288144.93548                  20820125.3524
        30.2504         41.7504
  21412741.6804    3763657.68747   2932716.11547                  21412747.7154
        24.5004         27.7504
  22102162.0004   -2036888.21747  -1587182.52046                  22102167.8594
        23.7504         25.2504
  21146835.6564     820685.94947    639497.08247                  21146841.5984
        27.2504         36.7504
  23439104.0004   -2653807.77746  -2062099.84645                  23439112.9804
        14.0004         10.2504
  22835380.9774    4478123.92147   3489444.23846                  22835387.4454
        20.5004         17.2504
 00  5 15 19 21  0.0000000  0  6G30G 5G 6G10G17G24
  20822647.5864     361214.43848    298492.37248                  20822652.3324
        30.2504         41.5004
  21421821.9844    3811374.61847   2969898.08947                  21421827.9144
        24.5004         27.7504
  22098758.5554   -2054773.11447  -1601118.76646                  22098764.5434
        23.7504         25.0004
  21150389.6094     839361.40847    654049.38547                  21150395.7154
        27.0004         36.7504
  23434764.2584   -2676612.12846  -2079869.38545                  23434773.2854
        14.0004         10.2504
  22845018.4694    4528767.73947   3528906.91046                  22845025.0904
        21.5004         17.2504
 00  5 15 19 21 15.0000000  0  6G30G 5G 6G10G17G24
  20825206.8284     374663.25848    308971.96248                  20825211.5984
        30.2504         41.7504
  21430926.5234    3859218.25247   3007178.78447                  21430932.6294
        24.2504         27.7504
  22095363.7894   -2072612.46447  -1615019.53346                  22095369.8014
        23.7504         24.7504
  21153976.6334     858211.43947    668737.72547                  21153982.6334
        27.2504         36.7504
  23430439.4694   -2699340.66046  -2097579.86145                  23430449.0234
        14.0004         10.5004
  22854661.7114    4579443.87247   3568394.78146                  22854668.4024
        21.0004         17.2504
 00  5 15 19 21 30.0000000  0  6G30G 5G 6G10G17G24
  20827797.3204     388275.50848    319578.89348                  20827802.1604
        30.2504         42.0004
  21440053.8054    3907181.97647   3044553.06847                  21440059.6644
        24.2504         27.7504
  22091976.6174   -2090412.38747  -1628889.58846                  22091982.6294
        24.2504         25.5004
  21157595.7034     877229.77747    683557.21147                  21157601.6214
        27.5004         36.7504
  23426127.1954   -2721999.59646  -2115236.09745                  23426136.7854
        14.0004         10.5004
  22864309.9304    4630145.75047   3607902.71246                  22864316.3874
        20.5004         17.2504
 00  5 15 19 21 45.0000000  0  6G30G 5G 6G10G17G24
  20830418.8524     402052.41048    330314.13248                  20830423.4804
        30.7504         41.5004
  21449203.8834    3955266.71447   3082021.63747                  21449209.8014
        24.0004         27.2504
  22088597.1024   -2108171.61147  -1642727.91947                  22088602.8914
        24.2504         25.7504
  21161246.9384     896417.39847    698508.60547                  21161252.8794
        27.7504         37.5004
  23421829.0784   -2744587.79746  -2132837.23445                  23421838.4574
        14.0004         10.0004
  22873963.5784    4680874.53647   3647431.59346                  22873970.5664
        22.2504         17.7504
 00  5 15 19 22  0.0000000  0  6G30G 5G 6G10G17G24
  20833072.6024     415998.07848    341180.87248                  20833077.2774
        30.5004         42.2504
  21458377.8134    4003476.35547   3119587.53947                  21458383.8364
        23.7504         27.0004
  22085226.2194   -2125885.90147  -1656531.24446                  22085231.8794
        24.5004         25.5004
  21164931.2814     915778.50147    713595.18647                  21164937.1884
        27.5004         37.2504
  23417544.4224   -2767101.08746  -2150379.97245                  23417553.7074
        13.5004         10.0004
  22883622.7664    4731634.08447   3686984.45146                  22883629.5864
        20.5004         17.0004
 00  5 15 19 22 15.0000000  0  6G30G 5G 6G10G17G24
  20835757.1174     430105.76848    352173.86348                  20835761.7344
        30.2504         42.0004
  21467574.3754    4051804.01447   3157245.40247                  21467580.3634
        24.0004         27.2504
  22081862.5864   -2143561.67747  -1670304.55047                  22081868.1764
        24.5004         25.7504
  21168647.3284     935306.36147    728811.70247                  21168653.2704
        27.0004         37.5004
  23413273.5474   -2789546.04146  -2167869.48445                  23413282.5984
        13.7504         10.0004
  22893286.6254    4782417.57247   3726555.99146                  22893293.2584
        21.7504         18.0004
 00  5 15 19 22 30.0000000  0  6G30G 5G 6G10G17G24
  20838474.6954     444386.04148    363301.33548                  20838479.3834
        30.7504         42.0004
  21476795.2974    4100259.87947   3195003.16147                  21476801.3444
        24.2504         27.0004
  22078508.4304   -2161188.30647  -1684039.56147                  22078514.3954
        24.2504         25.7504
  21172397.2424     955011.30147    744166.20247                  21172403.2664
        27.0004         36.7504
  23409017.2344   -2811912.16646  -2185297.56445                  23409026.3914
        13.7504         10.5004
  22902956.9774    4833235.43347   3766154.27746                  22902963.7034
        20.0004         16.7504
 00  5 15 19 22 45.0000000  0  6G30G 5G 6G10G17G24
  20841225.3914     458841.52548    374565.33448                  20841230.2664
        30.2504         42.2504
  21486040.9614    4148846.25447   3232862.62047                  21486046.9964
        23.7504         26.7504
  22075164.0704   -2178763.02947  -1697734.12247                  22075169.6374
        25.2504         26.0004
  21176180.9844     974895.83747    759660.64647                  21176187.0784
        27.2504         37.2504
  23404776.4304   -2834196.81846  -2202662.14745                  23404785.7154
        14.0004         10.2504
  22912634.0394    4884089.98747   3805781.18446                  22912641.0514
        21.0004         17.5004
 00  5 15 19 23  0.0000000  0  6G30G 5G 6G10G17G24
  20844007.6564     473461.63448    385957.61148                  20844012.5314
        30.2504         41.7504
  21495309.4454    4197552.39347   3270815.40247                  21495315.4694
        23.5004         26.7504
  22071827.7194   -2196296.28547  -1711396.38447                  22071832.9924
        24.5004         26.2504
  21179997.0234     994949.39347    775286.80247                  21180003.0234
        27.2504         37.2504
  23400549.1254   -2856410.44146  -2219971.38545                  23400558.3404
        14.0004         10.2504
  22922316.5164    4934970.67147   3845428.42446                  22922323.3364
        20.7504         17.0004
 00  5 15 19 23 15.0000000  0  6G30G 5G 6G10G17G24
  20846821.1174     488246.13448    397477.98748                  20846826.0984
        30.0004         41.7504
  21504600.5164    4246377.77147   3308861.09647                  21504606.6334
        23.5004         26.7504
  22068498.9454   -2213788.03047  -1725026.27546                  22068504.9804
        23.5004         24.7504
  21183845.2194    1015171.69347    791044.44647                  21183851.1254
        27.2504         38.0004
  23396335.7034   -2878553.27546  -2237225.47445                  23396344.6484
        14.0004         10.5004
  22932003.7894    4985877.00447   3885095.67546                  22932009.9534
        21.2504         16.7504
 00  5 15 19 23 30.0000000  0  6G30G 5G 6G10G17G24
  20849664.8984     503190.30748    409122.78148                  20849669.9024
        30.0004         41.7504
  21513913.5784    4295317.28447   3346995.72847                  21513919.6724
        23.2504         26.2504
  22065177.6254   -2231242.99047  -1738627.52347                  22065182.5234
        25.7504         26.0004
  21187724.5634    1035557.83747    806929.75647                  21187730.5394
        27.0004         37.5004
  23392134.2974   -2900630.19146  -2254428.19245                  23392142.9614
        14.2504         10.5004
  22941694.7034    5036803.88447   3924778.94546                  22941701.9264
        20.5004         17.5004
 00  5 15 19 23 45.0010000  0  6G30G 5G 6G10G17G24
  20852540.1144     518300.76148    420897.14548                  20852545.1304
        30.2504         42.2504
  21523249.9354    4344379.59047   3385226.03747                  21523256.0284
        23.0004         26.5004
  22061863.4814   -2248656.72447  -1752196.65046                  22061869.3414
        23.5004         25.2504
  21191636.3724    1056114.67147    822948.07247                  21191642.3724
        27.5004         37.7504
  23387947.0444   -2922637.05146  -2271576.33345                  23387955.9424
        14.7504         10.5004
  22951391.3804    5087760.27947   3964485.17946                  22951397.7904
        20.5004         16.2504
 00  5 15 19 24  0.0010000  0  6G30G 5G 6G10G17G24
  20855446.2634     533572.51248    432797.20148                  20855451.2434
        30.0004         41.5004
  21532607.7864    4393555.03647   3423544.50547                  21532613.7634
        22.7504         26.2504
  22058557.8804   -2266029.61847  -1765733.92747                  22058563.0134
        26.7504         27.0004
  21195579.4894    1076836.38647    839094.86647                  21195585.5014
        27.5004         37.5004
  23383772.3884   -2944573.68946  -2288669.73945                  23383781.0874
        14.7504         10.5004
  22961092.1854    5138736.34347   4004206.76746                  22961099.3494
        21.2504         17.0004
 00  5 15 19 24 15.0010000  0  6G30G 5G 6G10G17G24
  20858384.2084     549010.38748    444826.69848                  20858389.1424
        30.0004         41.7504
  21541988.2864    4442850.35547   3461956.38347                  21541994.3924
        22.7504         26.0004
  22055259.9744   -2283358.86147  -1779237.23347                  22055265.3064
        24.2504         26.2504
  21199555.2634    1097728.08347    855374.11847                  21199561.2394
        27.5004         37.7504
  23379611.6144   -2966437.76746  -2305706.60945                  23379620.3604
        14.7504         10.5004
  22970797.0364    5189738.96047   4043949.05046                  22970804.0014
        20.0004         16.2504
 00  5 15 19 24 30.0010000  0  6G30G 5G 6G10G17G24
  20861351.8804     564606.31248    456979.35148                  20861356.6614
        30.2504         41.7504
  21551389.9814    4492257.25647   3500455.21047                  21551396.0174
        22.7504         26.5004
  22051969.1304   -2300652.28547  -1792712.57847                  22051975.1184
        25.5004         26.0004
  21203561.5134    1118781.72147    871779.55447                  21203567.5484
        27.5004         37.7504
  23375463.0754   -2988237.35046  -2322693.23745                  23375471.5754
        14.5004         10.7504
  22980506.7244    5240760.09246   4083705.72746                  22980514.2164
        19.7504         17.0004
 00  5 15 19 24 45.0010000  0  6G30G 5G 6G10G17G24
  20864349.9504     580361.07248    469255.77148                  20864354.8494
        29.7504         41.5004
  21560813.3024    4541776.19347   3539041.33547                  21560819.3844
        22.7504         26.2504
  22048685.0994   -2317908.97847  -1806159.33847                  22048690.9234
        24.5004         25.7504
  21207598.8334    1139997.86047    888311.61647                  21207604.7984
        27.2504         37.2504
  23371327.4664   -3009971.67046  -2339628.99245                  23371335.9074
        14.5004         10.7504
  22990218.4974    5291800.15646   4123477.19646                  22990225.2714
        19.5004         16.2504
 00  5 15 19 25  0.0010000  0  6G30G 5G 6G10G17G24
  20867377.6534     596271.90748    481653.80848                  20867382.5874
        29.7504         41.2504
  21570257.1924    4591404.13947   3577712.40347                  21570263.1924
        22.7504         26.7504
  22045407.9974   -2335131.62047  -1819579.54547                  22045413.6224
        25.2504         26.0004
  21211666.4894    1161373.74047    904968.15047                  21211672.4664
        27.2504         37.5004
  23367203.2634   -3031643.40246  -2356515.98245                  23367212.1144
        14.5004         10.5004
  22999934.9814    5342856.41747   4163261.25346                  22999941.2044
        22.0004         16.2504
 00  5 15 19 25 15.0010000  0  6G30G 5G 6G10G17G24
  20870436.5674     612346.15048    494179.17448                  20870441.4894
        29.5004         40.7504
  21579723.1924    4641148.05547   3616473.83447                  21579729.2744
        22.7504         26.0004
  22042138.5054   -2352312.89547  -1832967.54247                  22042143.8494
        26.0004         26.7504
  21215765.9034    1182916.29947    921754.56147                  21215771.9274
        27.2504         37.2504
  23363092.4504   -3053245.30046  -2373348.56545                  23363101.0324
        14.5004         10.7504
  23009654.4354    5393935.79846   4203063.36346                  23009662.5244
        18.7504         17.0004
 00  5 15 19 25 30.0010000  0  6G30G 5G 6G10G17G24
  20873526.2164     628582.07948    506830.53248                  20873531.1034
        29.2504         40.5004
  21589210.9744    4691006.03647   3655324.14947                  21589216.9624
        23.0004         26.2504
  22038876.6774   -2369454.13847  -1846324.32747                  22038882.3844
        25.2504         26.5004
  21219896.8024    1204623.94947    938669.61547                  21219902.8964
        27.5004         37.0004
  23358994.6774   -3074778.92946  -2390127.93845                  23359003.7744
        14.2504         11.0004
  23019379.2714    5445036.55547   4242882.07146                  23019385.3174
        22.0004         15.7504
 00  5 15 19 25 45.0010000  0  6G30G 5G 6G10G17G24
  20876646.0284     644976.79548    519605.61748                  20876651.0094
        29.5004         40.2504
  21598719.7164    4740975.03547   3694260.97047                  21598725.7514
        23.0004         26.5004
  22035621.8804   -2386558.06647  -1859652.03647                  22035627.2824
        25.7504         26.5004
  21224058.3964    1226493.72247    955711.00747                  21224064.3724
        27.2504         37.5004
  23354909.7004   -3096247.16146  -2406856.35845                  23354919.0214
        14.2504         11.0004
  23029106.2784    5496155.74346   4282715.23246                  23029113.9704
        18.0004         16.2504
 00  5 15 19 26  0.0010000  0  6G30G 5G 6G10G17G24
  20879796.7944     661534.99248    532508.09148                  20879801.6924
        29.7504         40.7504
  21608250.6304    4791059.30247   3733287.61247                  21608256.5604
        23.0004         26.5004
  22032375.0364   -2403619.95147  -1872946.99247                  22032380.6264
        25.2504         26.5004
  21228251.8724    1248530.12247    972882.23147                  21228257.8724
        27.0004         37.2504
  23350837.3254   -3117645.36646  -2423530.21845                  23350846.6464
        14.5004         11.2504
  23038839.0674    5547297.69547   4322566.02646                  23038846.0094
        22.7504         16.5004
 00  5 15 19 26 15.0010000  0  6G30G 5G 6G10G17G24
  20882978.4274     678253.30748    545535.33648                  20882983.2084
        30.0004         41.2504
  21617802.5604    4841255.22447   3772401.25947                  21617808.6064
        23.0004         26.5004
  22029135.7004   -2420642.97047  -1886211.65147                  22029141.5834
        25.2504         26.2504
  21232476.3884    1270729.80047    990180.67647                  21232482.4814
        27.2504         37.5004
  23346778.2784   -3138976.85046  -2440152.07745                  23346787.1064
        14.7504         11.2504
  23048574.2944    5598459.08346   4362432.05746                  23048581.6694
        18.7504         16.2504
 00  5 15 19 26 30.0010000  0  6G30G 5G 6G10G17G24
  20886190.1064     695130.76948    558686.58948                  20886194.9234
        29.7504         40.5004
  21627375.5364    4891561.59947   3811600.96947                  21627381.5484
        23.0004         26.2504
  22025903.5284   -2437627.81147  -1899446.57747                  22025908.6494
        26.7504         27.0004
  21236731.6224    1293091.64347   1007605.49547                  21236737.5284
        27.5004         37.2504
  23342731.3024   -3160242.46946  -2456722.61545                  23342740.1184
        14.7504         11.2504
  23058313.4584    5649638.80047   4402312.30846                  23058320.5634
        20.7504         15.7504
 00  5 15 19 26 45.0010000  0  6G30G 5G 6G10G17G24
  20889431.5444     712164.50848    571959.61848                  20889436.3024
        30.0004         41.2504
  21636969.0364    4941975.14547   3850884.19347                  21636975.2124
        23.0004         25.7504
  22022678.1464   -2454577.31447  -1912653.96447                  22022683.4784
        25.7504         26.7504
  21241017.2864    1315612.66147   1025154.34147                  21241023.2044
        27.7504         37.7504
  23338696.7394   -3181445.18046  -2473244.13645                  23338705.9314
        14.7504         11.5004
  23068056.0134    5700833.74446   4442204.44646                  23068063.1064
        19.7504         15.7504
 00  5 15 19 27  0.0010000  0  6G30G 5G 6G10G17G24
  20892703.5524     729358.79548    585357.75048                  20892708.3334
        30.2504         41.2504
  21646583.6464    4992500.03047   3890254.16947                  21646589.7514
        22.7504         25.7504
  22019460.3494   -2471486.93347  -1925830.26447                  22019465.6464
        26.2504         26.7504
  21245333.8804    1338296.96947   1042830.42647                  21245339.8684
        27.7504         37.7504
  23334674.5994   -3202580.60946  -2489713.23645                  23334683.6854
        14.7504         11.2504
  23077801.1384    5752047.96447   4482111.61746                  23077808.6534
        20.2504         16.5004
 00  5 15 19 27 15.0010000  0  6G30G 5G 6G10G17G24
  20896006.2634     746714.65448    598881.77948                  20896010.8804
        30.2504         41.5004
  21656219.6464    5043137.16347   3929711.61346                  21656225.6814
        23.0004         25.5004
  22016250.3104   -2488355.39747  -1938974.51047                  22016255.5014
        25.2504         26.7504
  21249682.0364    1361145.64147   1060634.58747                  21249688.0134
        27.7504         37.7504
  23330665.8804   -3223647.58146  -2506128.98345                  23330675.1304
        15.0004         11.0004
  23087551.5674    5803282.54746   4522034.62746                  23087558.2244
        18.2504         14.5004
 00  5 15 19 27 30.0010000  0  6G30G 5G 6G10G17G24
  20899340.2784     764234.74848    612533.78648                  20899344.9194
        30.5004         41.0004
  21665877.5284    5093888.81847   3969258.29747                  21665883.5174
        22.7504         25.7504
  22013048.7554   -2505180.09847  -1952084.63647                  22013054.4034
        25.5004         26.2504
  21254061.6924    1384161.14847   1078568.74447                  21254067.7284
        27.7504         38.2504
  23326670.1924   -3244643.50246  -2522489.37945                  23326678.9744
        14.7504         11.0004
  23097305.3494    5854539.88047   4561975.38946                  23097312.6424
        21.0004         17.2504
 00  5 15 19 27 45.0010000  0  6G30G 5G 6G10G17G24
  20902705.4114     781918.59748    626313.39148                  20902710.0874
        30.5004         40.7504
  21675556.8884    5144754.13547   4008893.54347                  21675562.9814
        23.2504         26.0004
  22009855.4424   -2521961.33347  -1965160.90447                  22009860.7284
        26.5004         28.0004
  21258473.0214    1407342.88847   1096632.43947                  21258478.9624
        27.7504         38.2504
  23322688.2004   -3265568.88846  -2538794.80845                  23322696.8064
        15.0004         11.5004
  23107063.3334    5905819.37146   4601933.39046                  23107070.3104
        18.0004         14.5004
 00  5 15 19 28  0.0010000  0  6G30G 5G 6G10G17G24
  20906101.1064     799763.54748    640218.52948                  20906105.7124
        30.2504         40.7504
  21685257.2474    5195730.29747   4048615.17247                  21685263.3884
        23.2504         25.7504
  22006669.6924   -2538701.43447  -1978205.12047                  22006675.2004
        25.5004         27.5004
  21262915.2634    1430688.14547   1114823.55147                  21262921.1924
        27.7504         38.0004
  23318719.4814   -3286426.18346  -2555047.17545                  23318728.0054
        15.2504         11.5004
  23116825.1774    5957118.22846   4641906.52546                  23116831.5634
        19.5004         15.2504
 00  5 15 19 28 15.0010000  0  6G30G 5G 6G10G17G24
  20909529.1854     817778.32448    654256.00248                  20909533.9424
        30.2504         40.7504
  21694980.4424    5246825.72847   4088429.72346                  21694986.4784
        23.2504         25.2504
  22003493.7784   -2555391.52747  -1991210.36947                  22003499.4744
        25.2504         26.7504
  21267390.5284    1454205.52247   1133148.78047                  21267396.5284
        27.7504         38.0004
  23314765.0134   -3307206.68046  -2571239.70545                  23314773.5954
        15.0004         11.2504
  23126592.3494    6008444.89347   4681901.29146                  23126599.6654
        20.0004         16.0004
 00  5 15 19 28 30.0010000  0  6G30G 5G 6G10G17G24
  20912986.7244     835947.66448    668413.91348                  20912991.5404
        30.2504         41.0004
  21704723.4814    5298025.06647   4128325.25047                  21704729.4584
        23.0004         25.7504
  22000324.5364   -2572046.58947  -2004188.31847                  22000329.9384
        25.2504         27.0004
  21271895.7314    1477879.86447   1151596.32447                  21271901.7314
        27.5004         38.5004
  23310821.8804   -3327925.49346  -2587384.16446                  23310830.4274
        15.2504         12.0004
  23136361.9814    6059784.37046   4721906.02846                  23136369.0284
        19.5004         15.2504
 00  5 15 19 28 45.0010000  0  6G30G 5G 6G10G17G24
  20916477.0364     854290.35848    682706.90648                  20916481.7714
        30.0004         41.0004
  21714489.6464    5349346.86947   4168316.20547                  21714495.9034
        23.2504         26.5004
  21997165.0444   -2588647.80747  -2017124.30247                  21997171.0094
        24.2504         26.5004
  21276434.1064    1501729.74447   1170180.64147                  21276440.1304
        27.7504         38.2504
  23306894.4974   -3348563.88246  -2603465.96046                  23306903.6534
        15.5004         12.2504
  23146137.6534    6111155.02147   4761935.10546                  23146144.2164
        20.2504         18.0004
 00  5 15 19 29  0.0010000  0  6G30G 5G 6G10G17G24
  20919998.9894     872797.47648    697128.02048                  20920003.7474
        30.0004         41.2504
  21724277.3884    5400781.84447   4208395.34446                  21724283.5404
        22.5004         24.5004
  21994014.6924   -2605203.84447  -2030025.09147                  21994020.2354
        25.7504         27.2504
  21281004.1694    1525746.10247   1188894.68847                  21281010.2514
        27.7504         38.2504
  23302980.8564   -3369130.78046  -2619492.03646                  23302989.2744
        15.0004         12.2504
  23155916.6854    6162547.82046   4801981.40446                  23155924.8214
        18.2504         15.5004
 00  5 15 19 29 15.0010000  0  6G30G 5G 6G10G17G24
  20923551.8644     891467.08448    711675.75148                  20923556.6694
        30.0004         41.0004
  21734086.3254    5452327.78347   4248560.94746                  21734092.5604
        22.5004         24.7504
  21990872.4274   -2621716.52147  -2042892.10647                  21990878.3334
        24.5004         27.2504
  21285605.7634    1549926.90047   1207736.85947                  21285611.7634
        27.7504         38.2504
  23299080.3494   -3389628.06246  -2635463.86946                  23299088.8964
        15.7504         12.2504
  23165701.0834    6213960.87747   4842043.48146                  23165707.1774
        20.2504         14.0004
 00  5 15 19 29 30.0010000  0  6G30G 5G 6G10G17G24
  20927134.7784     910295.60448    726347.30848                  20927139.6774
        30.0004         41.0004
  21743915.5364    5503980.68947   4288809.90046                  21743921.8064
        22.2504         24.5004
  21987737.6614   -2638189.25647  -2055727.96547                  21987743.4854
        24.5004         27.0004
  21290237.9584    1574268.39547   1226704.25847                  21290244.0284
        27.7504         38.2504
  23295192.3414   -3410059.30946  -2651384.25646                  23295200.9464
        15.5004         12.2504
  23175487.1614    6265390.23546   4882118.31446                  23175493.9234
        19.5004         15.0004
 00  5 15 19 29 45.0010000  0  6G30G 5G 6G10G17G24
  20930747.8964     929283.28348    741142.88848                  20930752.6774
        30.2504         41.2504
  21753765.4504    5555740.63347   4329142.26246                  21753771.7084
        22.2504         24.2504
  21984610.8414   -2654621.49347  -2068532.29047                  21984616.7944
        24.5004         26.7504
  21294900.5754    1598770.86648   1245797.08547                  21294906.5524
        28.2504         38.2504
  23291316.8724   -3430424.09246  -2667252.84145                  23291325.2084
        15.5004         11.7504
  23185277.2164    6316836.13846   4922205.99046                  23185284.3104
        18.7504         14.5004
 00  5 15 19 30  0.0010000  0  6G30G 5G 6G10G17G24
  20934391.6534     948430.74448    756062.97448                  20934396.4354
        30.2504         41.2504
  21763635.2634    5607608.03147   4369558.34546                  21763641.8134
        22.0004         24.2504
  21981491.5134   -2671012.40847  -2081304.41347                  21981497.3604
        24.2504         27.5004
  21299594.0994    1623434.79248   1265015.72247                  21299600.0754
        28.2504         38.7504
  23287454.1304   -3450721.79546  -2683069.16546                  23287462.7474
        15.5004         12.5004
  23195070.4664    6368299.09947   4962306.96446                  23195076.6774
        20.2504         15.0004
 00  5 15 19 30 15.0010000  0  6G30G 5G 6G10G17G24
  20938066.4034     967741.43048    771110.24448                  20938071.2084
        30.2504         41.0004
  21773526.6304    5659586.04547   4410060.63146                  21773533.3214
        22.2504         24.2504
  21978380.9114   -2687358.39147  -2094041.51747                  21978386.7004
        25.0004         27.7504
  21304318.7084    1648263.56648   1284362.81647                  21304324.6854
        28.2504         38.2504
  23283605.2314   -3470948.90746  -2698830.47946                  23283613.9664
        15.5004         12.2504
  23204867.3964    6419782.57246   5002423.93146                  23204875.1694
        18.5004         14.5004
 00  5 15 19 30 30.0010000  0  6G30G 5G 6G10G17G24
  20941771.7004     987213.35348    786283.15848                  20941776.5174
        30.0004         41.0004
  21783438.2314    5711672.50947   4450647.41946                  21783444.9354
        21.7504         24.5004
  21975278.5754   -2703661.22247  -2106745.00947                  21975284.1774
        24.5004         28.5004
  21309074.4354    1673255.01548   1303836.66747                  21309080.3884
        28.2504         38.2504
  23279769.2554   -3491107.36846  -2714538.30346                  23279777.7554
        16.2504         12.2504
  23214667.7164    6471284.19846   5042555.04146                  23214673.7864
        19.7504         13.0004
 00  5 15 19 30 45.0010000  0  6G30G 5G 6G10G17G24
  20945507.9034    1006847.24748    801582.27948                  20945512.7674
        29.7504         40.7504
  21793370.5524    5763867.90347   4491319.08346                  21793377.1384
        21.7504         23.7504
  21972184.6064   -2719920.02847  -2119414.17647                  21972190.4784
        24.2504         28.0004
  21313861.2394    1698409.79248   1323437.78247                  21313867.2744
        28.2504         38.5004
  23275946.3334   -3511196.41846  -2730192.03546                  23275954.6344
        16.2504         12.7504
  23224472.3254    6522804.84146   5082700.97246                  23224481.1304
        19.0004         15.5004
 00  5 15 19 31  0.0010000  0  6G30G 5G 6G10G17G24
  20949275.0754    1026643.15448    817007.64748                  20949279.9744
        29.7504         40.2504
  21803323.8644    5816172.13947   4532075.56446                  21803330.4854
        22.0004         23.7504
  21969099.1854   -2736134.49947  -2132048.81047                  21969105.0214
        24.5004         28.0004
  21318679.0284    1723727.94148   1343166.20647                  21318684.9934
        28.0004         38.2504
  23272136.4504   -3531215.86346  -2745791.52646                  23272144.8454
        15.7504         12.5004
  23234279.6854    6574344.39646   5122861.59846                  23234286.0484
        19.0004         12.5004
 00  5 15 19 31 15.0010000  0  6G30G 5G 6G10G17G24
  20953072.0444    1046596.17348    832555.43448                  20953076.8604
        30.0004         40.2504
  21813296.9814    5868579.96547   4572912.76046                  21813303.4034
        22.0004         23.5004
  21966021.3644   -2752309.30147  -2144652.53847                  21966027.2714
        24.5004         28.0004
  21323527.0674    1749204.48448   1363018.05547                  21323532.9974
        28.0004         38.5004
  23268339.4194   -3551170.60146  -2761340.61746                  23268347.5444
        16.2504         13.0004
  23244089.9274    6625897.78746   5163033.09846                  23244096.6654
        18.0004         13.5004
 00  5 15 19 31 30.0010000  0  6G30G 5G 6G10G17G24
  20956898.8884    1066707.12848    848226.29348                  20956903.7634
        29.7504         40.2504
  21823289.7314    5921091.95547   4613831.12746                  21823296.2944
        21.7504         23.5004
  21962950.9744   -2768443.43247  -2157224.55647                  21962956.7634
        25.0004         28.5004
  21328405.5604    1774840.09347   1382993.84747                  21328411.4894
        27.7504         38.0004
  23264554.8254   -3571059.76846  -2776838.59846                  23264563.3494
        16.5004         13.2504
  23253903.0834    6677465.85946   5203215.95046                  23253911.1264
        19.7504         15.5004
 00  5 15 19 31 45.0010000  0  6G30G 5G 6G10G17G24
  20960756.9194    1086981.10348    864024.17648                  20960761.8534
        29.7504         40.7504
  21833303.2394    5973712.89747   4654834.38646                  21833309.6144
        21.7504         23.2504
  21959889.6304   -2784531.62947  -2169760.80347                  21959895.2314
        25.5004         29.2504
  21333315.0674    1800639.67748   1403097.41347                  21333321.0324
        28.0004         38.2504
  23260783.3254   -3590878.27346  -2792281.51946                  23260791.8024
        16.2504         13.2504
  23263720.1534    6729053.40446   5243414.00746                  23263727.1654
        16.5004         12.7504
 00  5 15 19 32  0.0010000  0  6G30G 5G 6G10G17G24
  20964644.5284    1107410.33148    879943.04248                  20964649.5094
        29.7504         40.7504
  21843336.0674    6026434.73447   4695916.27346                  21843342.5484
        22.0004         23.0004
  21956835.3334   -2800581.43247  -2182267.12747                  21956840.9934
        24.7504         29.5004
  21338254.1144    1826595.40247   1423322.64947                  21338260.1734
        27.7504         38.0004
  23257023.9974   -3610633.75546  -2807675.33346                  23257032.0874
        16.5004         13.0004
  23273539.0604    6780652.55347   5283621.11746                  23273544.7674
        21.2504         13.5004
 00  5 15 19 32 15.0010000  0  6G30G 5G 6G10G17G24
  20968562.2004    1127997.36148    895984.87048                  20968567.1574
        30.0004         40.5004
  21853388.2634    6079259.86947   4737078.64346                  21853394.8024
        22.2504         23.2504
  21953789.0524   -2816590.08647  -2194741.37547                  21953794.7474
        25.5004         29.7504
  21343223.5284    1852709.79747   1443671.52647                  21343229.3884
        27.7504         38.5004
  23253276.9584   -3630323.58046  -2823017.98146                  23253285.5404
        16.0004         12.7504
  23283360.7164    6832266.03346   5323839.37946                  23283369.5214
        17.0004         13.0004
 00  5 15 19 32 30.0010000  0  6G30G 5G 6G10G17G24
  20972509.3254    1148738.99648    912147.16648                  20972514.3994
        30.0004         41.0004
  21863459.7864    6132184.91147   4778318.86546                  21863466.2204
        22.0004         22.7504
  21950750.0524   -2832560.49647  -2207185.83747                  21950755.8174
        25.0004         30.2504
  21348222.5364    1878979.51647   1464141.43547                  21348228.4424
        27.5004         37.7504
  23249541.8414   -3649950.86946  -2838311.90046                  23249550.4934
        15.7504         13.0004
  23293184.8414    6883890.34547   5364066.06746                  23293190.5954
        21.2504         13.0004
 00  5 15 19 32 45.0010000  0  6G30G 5G 6G10G17G24
  20976485.6614    1169635.12048    928429.84248                  20976490.6184
        30.2504         41.0004
  21873550.0524    6185209.43847   4819636.61346                  21873556.4854
        22.2504         23.0004
  21947718.2784   -2848492.57647  -2219600.42247                  21947723.8684
        26.0004         30.5004
  21353251.0364    1905404.36048   1484732.21647                  21353257.0604
        28.0004         38.0004
  23245818.9194   -3669515.62146  -2853557.09346                  23245827.2674
        16.0004         13.0004
  23303009.6464    6935525.38246   5404301.17546                  23303018.0284
        15.5004         13.0004
 00  5 15 19 33  0.0010000  0  6G30G 5G 6G10G17G24
  20980492.6224    1190691.64848    944837.50948                  20980497.4974
        30.0004         40.5004
  21883660.3644    6238339.15447   4861036.32346                  21883666.5284
        22.2504         22.7504
  21944694.9664   -2864380.15547  -2231980.34447                  21944700.3214
        26.0004         30.5004
  21358310.1464    1931990.20848   1505448.45547                  21358316.0874
        28.2504         38.0004
  23242108.6694   -3689011.89646  -2868748.93046                  23242116.7824
        16.2504         12.5004
  23312839.9274    6987176.96247   5444549.06046                  23312845.5284
        21.5004         12.5004
 00  5 15 19 33 15.0010000  0  6G30G 5G 6G10G17G24
  20984529.8174    1211907.23248    961369.11848                  20984534.7394
        30.2504         41.0004
  21893790.2164    6291572.39047   4902516.70046                  21893796.5444
        22.2504         22.5004
  21941679.6384   -2880224.53147  -2244326.59047                  21941685.2744
        25.2504         30.2504
  21363399.5604    1958735.58248   1526289.00347                  21363405.6184
        28.2504         37.7504
  23238411.3494   -3708441.09546  -2883888.49746                  23238419.6494
        15.7504         12.5004
  23322670.8254    7038843.64846   5484808.86146                  23322678.4704
        15.5004         13.0004
 00  5 15 19 33 30.0010000  0  6G30G 5G 6G10G17G24
  20988596.6224    1233278.60248    978022.11648                  20988601.5094
        30.0004         40.5004
  21903939.3104    6344905.73347   4944075.08046                  21903945.4624
        22.0004         22.0004
  21938672.4974   -2896028.66947  -2256641.48247                  21938678.0754
        26.2504         30.7504
  21368518.6774    1985637.04047   1547251.17747                  21368524.5954
        27.7504         37.7504
  23234726.2784   -3727806.38746  -2898978.27146                  23234734.4034
        16.2504         13.0004
  23332505.5134    7090521.85647   5525077.50146                  23332513.5094
        20.5004         14.5004
 00  5 15 19 33 45.0010000  0  6G30G 5G 6G10G17G24
  20992694.6464    1254813.30048    994802.38248                  20992699.5914
        30.0004         40.7504
  21914108.9744    6398346.46247   4985717.13446                  21914115.2784
        22.2504         22.0004
  21935674.1464   -2911784.74047  -2268918.92847                  21935679.7474
        26.0004         31.0004
  21373668.9894    2012702.02847   1568340.77747                  21373674.9544
        27.7504         37.7504
  23231054.8724   -3747100.17946  -2914012.32646                  23231063.0214
        16.5004         13.2504
  23342342.6144    7142219.35146   5565361.26645                  23342349.6144
        14.7504         11.2504
 00  5 15 19 34  0.0010000  0  6G30G 5G 6G10G17G24
  20996821.9424    1276503.77348   1011704.03248                  20996826.8534
        29.7504         40.2504
  21924297.3254    6451886.78047   5027436.79346                  21924303.5604
        22.5004         21.7504
  21932683.4894   -2927500.03347  -2281164.58447                  21932689.1734
        26.2504         31.2504
  21378849.0604    2039923.06047   1589551.96547                  21378855.1304
        27.5004         37.5004
  23227395.4664   -3766329.85446  -2928996.42546                  23227403.3214
        16.5004         13.2504
  23352183.5284    7193928.26247   5605653.88146                  23352189.5754
        20.2504         13.0004
 00  5 15 19 34 15.0010000  0  6G30G 5G 6G10G17G24
  21000978.5284    1298346.31048   1028724.17348                  21000983.3454
        29.7504         40.2504
  21934503.9194    6505522.69547   5069230.94246                  21934510.0014
        22.2504         21.7504
  21929700.0364   -2943178.07747  -2293381.22547                  21929705.5794
        26.2504         31.7504
  21384057.9194    2067296.23647   1610881.71247                  21384063.8604
        27.7504         37.7504
  23223747.6144   -3785499.06646  -2943933.40446                  23223755.8454
        17.0004         13.7504
  23362023.2944    7245644.93746   5645952.59746                  23362032.0174
        17.0004         14.5004
 00  5 15 19 34 30.0010000  0  6G30G 5G 6G10G17G24
  21005163.6384    1320338.89948   1045861.23648                  21005168.6064
        29.2504         39.7504
  21944728.2714    6559251.98647   5111097.85446                  21944734.3994
        22.5004         21.7504
  21926723.5134   -2958820.65247  -2305570.22147                  21926729.0794
        26.2504         31.5004
  21389295.4114    2094819.45947   1632328.38147                  21389301.4934
        27.2504         37.5004
  23220110.8644   -3804609.76146  -2958824.79846                  23220119.0014
        16.5004         14.0004
  23371867.4584    7297367.40046   5686255.68845                  23371873.8684
        19.5004         10.7504
 00  5 15 19 34 45.0010000  0  6G30G 5G 6G10G17G24
  21009378.4744    1342488.23548   1063120.43548                  21009383.3724
        29.2504         39.7504
  21954971.6774    6613081.06147   5153042.51546                  21954977.8294
        22.5004         21.7504
  21923754.8024   -2974420.80547  -2317726.16447                  21923760.0994
        26.7504         31.2504
  21394562.7004    2122499.24747   1653897.04547                  21394568.6884
        27.5004         37.7504
  23216486.6304   -3823655.23146  -2973665.36246                  23216494.6144
        17.2504         14.5004
  23381710.9744    7349101.92346   5726568.37146                  23381717.2674
        18.2504         12.2504
 00  5 15 19 35  0.0010000  0  6G30G 5G 6G10G17G24
  21013622.6924    1364791.75248   1080499.77848                  21013627.4154
        29.2504         39.7504
  21965233.4814    6667007.22247   5195062.83246                  21965239.8334
        22.2504         21.7504
  21920793.8254   -2989980.83947  -2329850.85347                  21920799.4974
        26.2504         32.0004
  21399859.3334    2150333.09547   1675585.75547                  21399865.3564
        27.5004         37.7504
  23212874.2944   -3842637.89446  -2988456.97546                  23212882.6654
        17.0004         14.7504
  23391558.2944    7400846.27746   5766888.55946                  23391566.4784
        18.0004         12.7504
 00  5 15 19 35 15.0010000  0  6G30G 5G 6G10G17G24
  21017896.6694    1387251.25148   1098000.66648                  21017901.6494
        29.0004         39.5004
  21975514.1064    6721032.04647   5237160.02246                  21975520.5284
        22.0004         21.5004
  21917840.9424   -3005498.70547  -2341942.67147                  21917846.4154
        27.2504         32.7504
  21405185.5914    2178322.59047   1697395.75447                  21405191.5094
        27.7504         37.7504
  23209274.4114   -3861555.86246  -3003198.19346                  23209282.5954
        17.2504         14.7504
  23401407.0284    7452601.95846   5807217.65546                  23401413.5794
        18.5004         12.5004
 00  5 15 19 35 30.0010000  0  6G30G 5G 6G10G17G24
  21022199.8564    1409864.46248   1115621.32947                  21022204.9194
        28.7504         39.2504
  21985813.3104    6775153.03647   5279332.15246                  21985819.5214
        22.2504         21.5004
  21914895.6614   -3020976.44847  -2354003.23547                  21914901.2984
        26.2504         32.0004
  21410540.9814    2206465.50347   1719325.29747                  21410546.9234
        27.7504         38.5004
  23205686.1774   -3880411.30646  -3017890.68346                  23205694.0564
        17.0004         14.7504
  23411257.6064    7504366.74246   5847553.82046                  23411265.5094
        17.5004         13.0004
 00  5 15 19 35 45.0010000  0  6G30G 5G 6G10G17G24
  21026532.9274    1432634.25648   1133364.00547                  21026538.0954
        28.7504         38.7504
  21996130.9584    6829372.68947   5321581.16446                  21996137.3214
        22.2504         22.2504
  21911958.4664   -3036411.10547  -2366030.22047                  21911963.7514
        27.0004         32.2504
  21415926.2084    2234764.48347   1741376.45047                  21415932.2314
        27.7504         37.7504
  23202110.5284   -3899201.44046  -3032532.28646                  23202118.7244
        16.7504         14.5004
  23421110.0834    7556143.27846   5887899.12546                  23421116.8214
        18.5004         12.5004
 00  5 15 19 36  0.0010000  0  6G30G 5G 6G10G17G24
  21030894.8724    1455557.36948   1151226.15047                  21030899.9814
        29.0004         39.2504
  22006466.7944    6883687.58047   5363904.37746                  22006473.2634
        22.2504         21.2504
  21909028.9584   -3051805.60147  -2378025.91847                  21909034.6534
        26.2504         31.5004
  21421340.4194    2263216.11948   1763546.55447                  21421346.4074
        28.0004         38.2504
  23198546.6774   -3917929.31146  -3047125.36946                  23198554.8964
        16.5004         14.5004
  23430964.9744    7607928.37446   5928251.13245                  23430971.5714
        16.5004         11.7504
 00  5 15 19 36 15.0010000  0  6G30G 5G 6G10G17G24
  21035286.5524    1478635.32748   1169208.95447                  21035291.6964
        28.7504         39.2504
  22016820.9504    6938099.02047   5406302.83346                  22016827.4544
        22.2504         21.2504
  21906107.4114   -3067158.11147  -2389988.88947                  21906112.4744
        27.5004         32.5004
  21426783.8724    2291821.98148   1785836.83747                  21426789.8844
        28.2504         38.5004
  23194994.9664   -3936593.26246  -3061668.64246                  23195003.3254
        16.5004         14.0004
  23440821.0914    7659723.47946   5968610.92546                  23440828.8764
        19.7504         14.5004
 00  5 15 19 36 30.0010000  0  6G30G 5G 6G10G17G24
  21039707.3334    1501866.47548   1187311.12547                  21039712.4784
        29.0004         39.2504
  22027193.1224    6992605.21947   5448775.12246                  22027199.7674
        22.2504         21.2504
  21903193.7084   -3082470.06547  -2401920.27347                  21903199.3804
        26.0004         31.7504
  21432256.3254    2320580.20648   1808245.84747                  21432262.2904
        28.5004         39.2504
  23191455.3024   -3955194.87946  -3076163.35146                  23191463.6494
        16.5004         14.0004
  23450678.5754    7711526.87446   6008977.15845                  23450685.8804
        15.7504         11.0004
 00  5 15 19 36 45.0010000  0  6G30G 5G 6G10G17G24
  21044157.6774    1525253.56048   1205534.80348                  21044162.7044
        29.0004         39.5004
  22037583.6224    7047208.56547   5491323.11346                  22037590.3844
        22.0004         21.2504
  21900288.1064   -3097738.53647  -2413817.75547                  21900293.7204
        27.0004         31.7504
  21437758.2714    2349493.33148   1830775.55547                  21437764.3064
        28.2504         39.0004
  23187927.8414   -3973731.49046  -3090607.39946                  23187936.0134
        16.2504         13.7504
  23460539.3414    7763341.15046   6049351.89546                  23460545.9504
        19.5004         12.2504
 00  5 15 19 37  0.0010000  0  6G30G 5G 6G10G17G24
  21048637.1464    1548793.87148   1223877.88248                  21048642.2784
        29.0004         39.5004
  22047992.6384    7101906.28347   5533944.63946                  22047999.5444
        22.2504         21.0004
  21897390.3884   -3112965.81747  -2425683.15747                  21897395.9784
        26.2504         31.7504
  21443289.2554    2378558.94048   1853424.08047                  21443295.1854
        28.2504         38.7504
  23184412.0364   -3992205.50046  -3105002.67646                  23184419.8924
        16.2504         13.5004
  23470399.5444    7815163.66446   6089733.06146                  23470408.5364
        16.5004         13.2504
 00  5 15 19 37 15.0010000  0  6G30G 5G 6G10G17G24
  21053145.1614    1572482.32648   1242336.39648                  21053150.3294
        28.7504         39.7504
  22058417.9814    7156692.95347   5576635.48046                  22058424.9354
        22.0004         21.2504
  21894499.4974   -3128156.84647  -2437520.29747                  21894505.3214
        26.7504         32.5004
  21448848.3964    2407771.70148   1876187.27147                  21448854.3964
        28.0004         39.0004
  23180907.3564   -4010622.02646  -3119353.14946                  23180915.6464
        16.5004         13.7504
  23480263.1614    7866989.35146   6130116.61945                  23480270.0324
        18.7504         11.0004
 00  5 15 19 37 30.0010000  0  6G30G 5G 6G10G17G24
  21057682.5444    1596326.42748   1260916.19248                  21057687.5954
        29.0004         39.5004
  22068862.0284    7211575.72147   5619401.19746                  22068869.0404
        21.7504         21.5004
  21891617.2084   -3143303.91047  -2449323.18947                  21891622.3294
        26.7504         31.7504
  21454436.8884    2437138.95848   1899070.84847                  21454442.8064
        28.2504         38.7504
  23177415.4034   -4028973.49846  -3133652.93746                  23177423.3064
        16.5004         13.7504
  23490126.0604    7918825.33446   6170508.33845                  23490132.4584
        17.2504         11.5004
 00  5 15 19 37 45.0010000  0  6G30G 5G 6G10G17G24
  21062248.8564    1620322.98248   1279614.78548                  21062253.9194
        29.2504         39.7504
  22079323.6464    7266551.28947   5662239.22146                  22079330.8334
        21.7504         21.2504
  21888742.5214   -3158409.87447  -2461094.05147                  21888748.2394
        26.2504         31.2504
  21460053.8104    2466657.46248   1922072.28847                  21460059.6924
        28.2504         38.2504
  23173934.8884   -4047263.00846  -3147904.44746                  23173942.9664
        16.5004         13.7504
  23499992.4034    7970668.69646   6210905.66046                  23500001.9114
        17.5004         12.7504
 00  5 15 19 38  0.0010000  0  6G30G 5G 6G10G17G24
  21066843.5284    1644467.92148   1298428.99648                  21066848.5794
        29.0004         39.7504
  22089802.0134    7321615.33247   5705146.20046                  22089809.1304
        21.7504         21.2504
  21885875.0284   -3173478.54747  -2472835.85347                  21885880.6424
        26.2504         31.2504
  21465699.0914    2496323.03547   1945188.32047                  21465705.0674
        27.0004         38.0004
  23170465.8564   -4065494.58146  -3162110.81046                  23170473.9354
        17.0004         14.2504
  23509857.7944    8022515.18846   6251305.50345                  23509863.5604
        18.5004         10.7504
 00  5 15 19 38 15.0010000  0  6G30G 5G 6G10G17G24
  21071467.9504    1668768.69348   1317364.64548                  21071473.1884
        28.7504         39.7504
  22100298.4274    7376775.22547   5748127.86046                  22100305.4974
        21.5004         21.0004
  21883016.0914   -3188502.19047  -2484542.56447                  21883022.0214
        26.2504         31.2504
  21471373.7244    2526143.07947   1968424.71747                  21471379.6884
        27.5004         38.0004
  23167008.4894   -4083660.63446  -3176266.11246                  23167016.4744
        17.2504         14.7504
  23519726.3964    8074372.43346   6291713.77245                  23519734.9544
        16.2504         11.7504
 00  5 15 19 38 30.0010000  0  6G30G 5G 6G10G17G24
  21076122.0914    1693227.34848   1336423.31347                  21076127.3884
        28.5004         39.0004
  22110813.7004    7432032.75147   5791185.59446                  22110820.8534
        21.2504         21.2504
  21880166.3414   -3203478.44047  -2496212.34947                  21880171.7314
        27.2504         32.0004
  21477077.7864    2556119.47548   1991782.94947                  21477083.8684
        28.2504         37.7504
  23163564.6064   -4101759.03946  -3190368.70946                  23163572.3104
        17.0004         14.2504
  23529596.6694    8126242.14146   6332131.63346                  23529605.3684
        18.7504         14.5004
 00  5 15 19 38 45.0010000  0  6G30G 5G 6G10G17G24
  21080805.0524    1717835.94948   1355598.82548                  21080810.3254
        28.7504         39.5004
  22121346.1384    7487379.85947   5834313.13446                  22121353.0794
        21.5004         21.2504
  21877323.7634   -3218415.01947  -2507851.22747                  21877329.6224
        26.0004         31.0004
  21482810.5604    2586244.33747   2015256.87147                  21482816.5604
        27.7504         38.0004
  23160131.9974   -4119797.47746  -3204424.57646                  23160139.9464
        17.5004         14.7504
  23539467.7244    8178116.65046   6372553.29945                  23539474.1814
        15.5004         10.5004
 00  5 15 19 39  0.0010000  0  6G30G 5G 6G10G17G24
  21085517.6774    1742601.11748   1374896.33747                  21085523.0324
        29.0004         39.2504
  22131896.5914    7542822.81747   5877515.37146                  22131903.8724
        21.2504         21.2504
  21874490.4504   -3233305.04547  -2519453.81847                  21874496.1224
        26.0004         30.7504
  21488572.5284    2616524.17147   2038851.54747                  21488578.5404
        27.5004         37.7504
  23156712.0214   -4137769.38046  -3218428.59846                  23156719.9464
        17.5004         15.0004
  23549341.8644    8230002.17346   6412983.58046                  23549349.0284
        18.2504         12.5004
 00  5 15 19 39 15.0010000  0  6G30G 5G 6G10G17G24
  21090259.6614    1767519.06948   1394312.90048                  21090264.9704
        29.0004         40.0004
  22142464.5604    7598357.46447   5920789.04546                  22142471.6424
        21.2504         21.0004
  21871664.9894   -3248152.12447  -2531022.95447                  21871670.7904
        25.7504         30.2504
  21494363.2634    2646954.82147   2062563.74447                  21494369.1464
        27.5004         38.0004
  23153304.0914   -4155678.50246  -3232383.69746                  23153311.8174
        17.7504         14.5004
  23559216.2634    8281895.04246   6453419.52846                  23559224.1304
        17.0004         12.7504
 00  5 15 19 39 30.0010000  0  6G30G 5G 6G10G17G24
  21095029.7944    1792586.86048   1413846.22348                  21095034.9854
        29.2504         39.7504
  22153049.6064    7653980.76447   5964131.79746                  22153056.7244
        21.2504         21.5004
  21868847.3724   -3262958.80547  -2542560.60547                  21868853.0564
        26.0004         30.7504
  21500182.2864    2677533.38647   2086391.19547                  21500188.3104
        27.5004         37.7504
  23149907.0914   -4173527.59446  -3246292.02446                  23149914.7474
        17.2504         14.7504
  23569092.6854    8333792.40446   6493858.97845                  23569100.1184
        16.5004         11.2504
 00  5 15 19 39 45.0010000  0  6G30G 5G 6G10G17G24
  21099830.0214    1817811.47548   1433501.74348                  21099835.0604
        29.2504         40.0004
  22163652.4664    7709699.57347   6007548.97446                  22163659.8644
        21.2504         22.0004
  21866039.0214   -3277717.88547  -2554061.17047                  21866044.7634
        27.0004         31.2504
  21506030.7864    2708266.88247   2110339.37347                  21506036.7744
        27.5004         37.0004
  23146523.5994   -4191309.58046  -3260148.05846                  23146531.3024
        17.2504         15.0004
  23578970.3254    8385701.07846   6534307.29046                  23578976.9234
        18.2504         13.0004
 00  5 15 19 40  0.0010000  0  6G30G 5G 6G10G17G24
  21104659.4584    1843190.35448   1453277.47548                  21104664.5324
        29.7504         40.2504
  22174272.9424    7765511.07447   6051038.37946                  22174280.0604
        21.2504         21.2504
  21863238.9664   -3292431.65347  -2565526.42647                  21863244.3804
        26.0004         31.5004
  21511908.0674    2739152.53847   2134406.11347                  21511913.9854
        27.7504         37.7504
  23143151.7244   -4209026.90546  -3273953.70546                  23143159.6384
        17.0004         15.0004
  23588850.5754    8437618.58946   6574762.42445                  23588859.4504
        16.0004         10.7504
 00  5 15 19 40 15.0010000  0  6G30G 5G 6G10G17G24
  21109517.1464    1868718.33248   1473169.38148                  21109522.1384
        29.5004         40.7504
  22184910.3174    7821409.86747   6094595.80546                  22184917.3994
        21.5004         21.2504
  21860446.7164   -3307104.96447  -2576960.14847                  21860452.1654
        26.2504         30.7504
  21517813.2474    2770185.13847   2158587.35947                  21517819.3064
        27.7504         37.5004
  23139791.5834   -4226684.72746  -3287712.98946                  23139799.4274
        16.7504         14.5004
  23598729.9034    8489539.66246   6615220.38645                  23598735.6464
        18.7504         11.5004
 00  5 15 19 40 30.0010000  0  6G30G 5G 6G10G17G24
  21114403.9814    1894398.20248   1493179.65048                  21114408.9274
        29.7504         40.5004
  22195564.7634    7877398.54847   6138223.27646                  22195572.0214
        21.7504         21.5004
  21857662.6144   -3321734.72847  -2588359.94747                  21857668.0284
        26.0004         31.0004
  21523747.0054    2801367.30948   2182885.15747                  21523753.0754
        28.0004         37.5004
  23136443.0284   -4244280.13146  -3301423.63246                  23136451.2474
        17.0004         14.7504
  23608611.8804    8541467.18646   6655683.37145                  23608621.5524
        14.7504         11.7504
 00  5 15 19 40 45.0010000  0  6G30G 5G 6G10G17G24
  21119318.6384    1920224.15648   1513303.74848                  21119323.7244
        29.5004         40.5004
  22206235.0134    7933471.11447   6181916.11146                  22206242.3534
        21.7504         21.0004
  21854885.9974   -3336326.41647  -2599730.06547                  21854891.3534
        26.7504         31.0004
  21529708.2164    2832693.36347   2207295.06747                  21529714.2984
        27.5004         37.5004
  23133105.5914   -4261818.72446  -3315090.00346                  23133113.7864
        16.5004         14.7504
  23618493.7394    8593395.05546   6696146.54246                  23618502.3564
        19.0004         13.5004
 00  5 15 19 41  0.0010000  0  6G30G 5G 6G10G17G24
  21124262.0604    1946202.92048   1533546.92048                  21124267.2514
        29.2504         40.2504
  22216922.3644    7989634.06847   6225679.37346                  22216929.6344
        21.7504         21.0004
  21852118.0134   -3350873.04147  -2611065.08547                  21852123.1104
        26.7504         31.7504
  21535698.1064    2864169.88447   2231822.22347                  21535704.0364
        27.7504         38.0004
  23129779.8494   -4279293.68546  -3328706.79746                  23129787.8684
        17.0004         15.0004
  23628375.8564    8645330.35846   6736615.63745                  23628382.1964
        14.7504          9.0004
 00  5 15 19 41 15.0010000  0  6G30G 5G 6G10G17G24
  21129236.2394    1972342.42448   1553915.34248                  21129241.5364
        29.0004         40.5004
  22227628.6224    8045895.12047   6269519.07346                  22227635.8214
        21.7504         20.7504
  21849359.9274   -3365366.42647  -2622358.61147                  21849364.9664
        26.7504         30.7504
  21541717.8884    2895804.63247   2256472.67047                  21541723.8644
        27.7504         38.2504
  23126468.4894   -4296697.08346  -3342267.83046                  23126476.3214
        17.2504         15.0004
  23638262.7474    8697280.76346   6777096.42546                  23638272.1494
        17.2504         13.0004
 00  5 15 19 41 30.0010000  0  6G30G 5G 6G10G17G24
  21134238.0054    1998626.07648   1574396.09148                  21134243.3374
        29.0004         40.0004
  22238350.3884    8102237.50247   6313422.15546                  22238357.5874
        21.2504         20.7504
  21846608.8884   -3379822.72947  -2633623.24747                  21846614.1264
        26.0004         31.0004
  21547764.8414    2927580.99648   2281233.46647                  21547770.8414
        28.2504         38.0004
  23123167.4114   -4314045.27446  -3355785.84946                  23123175.5714
        17.2504         14.7504
  23648147.7084    8749229.77346   6817576.10946                  23648156.4544
        18.2504         13.7504
 00  5 15 19 41 45.0010000  0  6G30G 5G 6G10G17G24
  21139269.3414    2025065.44448   1594998.17248                  21139274.5794
        29.2504         40.0004
  22249089.7314    8158672.55447   6357397.44146                  22249097.0134
        21.7504         20.7504
  21843867.3104   -3394230.19547  -2644849.82047                  21843872.5134
        26.7504         31.0004
  21553840.7714    2959510.37948   2306113.50647                  21553846.7004
        28.0004         38.5004
  23119878.8804   -4331326.59746  -3369251.76046                  23119886.8414
        17.5004         15.7504
  23658035.5284    8801188.89646   6858063.70045                  23658042.3374
        15.5004         10.0004
 00  5 15 19 42  0.0010000  0  6G30G 5G 6G10G17G24
  21144328.4744    2051652.36548   1615715.23348                  21144333.4544
        29.0004         40.0004
  22259844.8964    8215192.04847   6401438.53146                  22259852.4354
        21.5004         20.5004
  21841133.3964   -3408596.58447  -2656044.39347                  21841138.5284
        26.7504         31.2504
  21559944.3254    2991584.59948   2331106.39947                  21559950.2904
        28.2504         38.2504
  23116601.3724   -4348549.04346  -3382671.78646                  23116609.2864
        18.0004         15.7504
  23667923.2004    8853149.89646   6898552.77546                  23667929.4114
        18.7504         12.0004
 00  5 15 19 42 15.0010000  0  6G30G 5G 6G10G17G24
  21149415.3494    2078383.48048   1636544.65148                  21149420.4704
        29.0004         39.5004
  22270615.6694    8271792.37647   6445542.60546                  22270622.9504
        21.5004         20.0004
  21838406.7394   -3422924.99447  -2667209.36847                  21838411.8254
        27.0004         31.2504
  21566074.8804    3023800.12547   2356209.40147                  21566080.8454
        27.5004         38.0004
  23113334.8724   -4365715.85446  -3396048.46646                  23113343.0674
        18.0004         15.2504
  23677810.7944    8905109.66346   6939040.88445                  23677819.0134
        16.0004         11.7504
 00  5 15 19 42 30.0010000  0  6G30G 5G 6G10G17G24
  21154531.8104    2105271.01948   1657495.95748                  21154536.8724
        29.0004         40.0004
  22281404.2004    8328485.43747   6489718.93746                  22281411.5284
        21.2504         19.7504
  21835689.8884   -3437203.00747  -2678335.07647                  21835694.6574
        27.0004         31.5004
  21572234.3724    3056169.14047   2381432.00547                  21572240.3494
        27.7504         38.5004
  23110080.7394   -4382814.87646  -3409372.33546                  23110088.6424
        17.7504         15.2504
  23687700.5604    8957080.13146   6979537.26346                  23687708.8254
        17.2504         12.2504
 00  5 15 19 42 45.0010000  0  6G30G 5G 6G10G17G24
  21159675.9894    2132303.87948   1678560.50047                  21159681.1694
        29.0004         39.2504
  22292207.9744    8385259.97847   6533958.75746                  22292215.0564
        21.5004         19.7504
  21832980.2314   -3451441.35647  -2689429.87647                  21832985.4464
        26.0004         30.7504
  21578421.0444    3088680.51147   2406765.53747                  21578427.0094
        27.5004         38.5004
  23106837.7084   -4399856.99646  -3422651.85046                  23106845.3414
        18.0004         15.2504
  23697589.6774    9009050.26846   7020033.47945                  23697595.7124
        15.7504          9.7504
 00  5 15 19 43  0.0010000  0  6G30G 5G 6G10G17G24
  21164848.2864    2159483.92448   1699739.73648                  21164853.5364
        28.7504         39.5004
  22303027.6774    8442117.64247   6578263.35546                  22303034.5364
        21.2504         19.5004
  21830278.6614   -3465637.89847  -2700492.09547                  21830283.7354
        26.7504         31.2504
  21584635.0674    3121335.95447   2432211.33047                  21584641.1144
        27.2504         38.0004
  23103605.7714   -4416840.17746  -3435885.44346                  23103613.7314
        17.7504         15.5004
  23707480.3564    9061022.07546   7060530.92146                  23707489.8644
        17.7504         12.5004
 00  5 15 19 43 15.0010000  0  6G30G 5G 6G10G17G24
  21170049.0834    2186815.05248   1721036.69647                  21170054.4274
        28.7504         39.2504
  22313863.9974    8499062.03247   6622635.53046                  22313871.0564
        21.2504         19.2504
  21827586.0914   -3479788.54747  -2711518.55647                  21827591.2124
        26.2504         31.2504
  21590877.3644    3154139.20247   2457772.30047                  21590883.2944
        27.2504         38.0004
  23100386.0284   -4433760.52046  -3449070.06546                  23100393.5674
        18.0004         15.5004
  23717370.9744    9112999.07846   7101032.43045                  23717376.6814
        17.7504          9.7504
 00  5 15 19 43 30.0010000  0  6G30G 5G 6G10G17G24
  21175279.9814    2214302.66748   1742455.59547                  21175285.2784
        28.7504         39.0004
  22324717.7084    8556098.46147   6667079.42146                  22324724.6494
        21.2504         19.2504
  21824902.9034   -3493887.52447  -2722504.74847                  21824907.9194
        26.7504         31.5004
  21597148.9664    3187095.70447   2483452.68647                  21597155.0954
        27.7504         38.0004
  23097178.8414   -4450612.51246  -3462201.44146                  23097186.4854
        17.7504         15.5004
  23727263.9274    9164987.07646   7141542.58745                  23727272.3214
        14.5004          9.7504
 00  5 15 19 43 45.0010000  0  6G30G 5G 6G10G17G24
  21180538.3104    2241935.68948   1763987.79547                  21180543.4784
        29.0004         39.0004
  22335586.8254    8613215.78347   6711586.34346                  22335594.0834
        21.0004         18.7504
  21822227.7004   -3507945.47747  -2733458.98547                  21822232.9854
        25.7504         30.7504
  21603447.2554    3220194.27747   2509243.78047                  21603453.1964
        27.7504         38.2504
  23093982.9894   -4467406.94046  -3475287.95046                  23093990.7984
        17.7504         15.5004
  23737157.3964    9216974.87846   7182052.46146                  23737165.5094
        19.0004         13.5004
 00  5 15 19 44  0.0010000  0  6G30G 5G 6G10G17G24
  21185822.8104    2269706.01448   1785626.98647                  21185827.9894
        29.0004         39.0004
  22346469.7004    8670405.54247   6756149.71346                  22346476.7824
        21.0004         19.0004
  21819558.8964   -3521970.21547  -2744387.32547                  21819564.2864
        25.7504         30.7504
  21609771.2244    3253426.62947   2535139.11347                  21609777.2474
        27.5004         37.7504
  23090796.5364   -4484151.86646  -3488335.88346                  23090804.6494
        18.0004         15.7504
  23747048.3174    9268954.43846   7222556.00345                  23747055.7744
        15.5004         10.2504
 00  5 15 19 44 15.0010000  0  6G30G 5G 6G10G17G24
  21191136.5604    2297630.01348   1807385.92147                  21191141.7514
        29.0004         39.2504
  22357369.1854    8727683.89847   6800782.11446                  22357376.1144
        21.0004         18.5004
  21816899.4504   -3535945.14547  -2755276.86747                  21816904.8294
        26.0004         31.5004
  21616123.7784    3286809.12147   2561151.43747                  21616129.7554
        27.7504         38.0004
  23087622.7164   -4500830.88346  -3501332.46746                  23087630.3494
        18.2504         16.5004
  23756941.5994    9320942.04946   7263065.77945                  23756950.0284
        15.0004         10.2504
 00  5 15 19 44 30.0010000  0  6G30G 5G 6G10G17G24
  21196479.8174    2325708.32048   1829265.09847                  21196484.9744
        28.5004         39.0004
  22368286.1924    8785051.38147   6845483.96946                  22368293.1924
        21.0004         17.7504
  21814249.9194   -3549869.32447  -2766126.86047                  21814255.3454
        26.5004         32.0004
  21622504.9034    3320342.31547   2587281.19647                  21622510.9034
        27.5004         37.5004
  23084461.4664   -4517443.21446  -3514277.07446                  23084469.1224
        18.2504         16.0004
  23766836.9894    9372938.31747   7303582.31245                  23766841.9114
        21.0004         11.7504
 00  5 15 19 44 45.0010000  0  6G30G 5G 6G10G17G24
  21201850.1854    2353929.32048   1851255.46748                  21201855.3414
        29.0004         39.7504
  22379217.7314    8842496.19747   6890246.08346                  22379224.8024
        21.2504         18.2504
  21811607.5834   -3563754.04447  -2776946.10247                  21811613.2084
        26.0004         32.0004
  21628912.4274    3354014.59748   2613519.33047                  21628918.4624
        28.0004         37.7504
  23081310.7944   -4534000.34046  -3527178.68146                  23081318.5794
        18.2504         16.5004
  23776728.6614    9424931.80646   7344096.73045                  23776737.7244
        12.5004         10.0004
 00  5 15 19 45  0.0010000  0  6G30G 5G 6G10G17G24
  21207249.0444    2382300.59948   1873362.93248                  21207254.3994
        29.0004         39.5004
  22390165.1144    8900025.59847   6935074.11146                  22390172.1494
        20.5004         18.0004
  21808974.5754   -3577591.41047  -2787728.44347                  21808979.9894
        26.0004         32.2504
  21635348.0604    3387833.25047   2639871.52247                  21635354.1304
        27.5004         37.5004
  23078172.0524   -4550494.60546  -3540031.30146                  23078179.3454
        18.7504         16.2504
  23786625.7474    9476929.87646   7384614.54945                  23786631.7824
        18.0004          9.0004
 00  5 15 19 45 15.0010000  0  6G30G 5G 6G10G17G24
  21212675.2004    2410815.59548   1895582.38447                  21212680.4384
        29.0004         39.2504
  22401127.2714    8957632.88047   6979962.81546                  22401134.5174
        20.2504         18.0004
  21806349.1534   -3591387.56847  -2798478.68047                  21806354.8134
        25.7504         32.0004
  21641810.1224    3421791.72548   2666332.66047                  21641816.1104
        28.2504         37.5004
  23075043.9034   -4566932.38946  -3552839.90646                  23075051.3134
        18.7504         16.2504
  23796519.2314    9528926.04346   7425131.12645                  23796526.7124
        15.5004         11.0004
 00  5 15 19 45 30.0010000  0  6G30G 5G 6G10G17G24
  21218128.6304    2439472.95948   1917912.77448                  21218133.9034
        28.7504         39.5004
  22412104.2944    9015316.49347   7024911.00446                  22412111.3994
        20.2504         18.2504
  21803731.4974   -3605143.59147  -2809197.63747                  21803737.0754
        26.2504         32.5004
  21648298.4114    3455888.67148   2692901.70747                  21648304.4354
        28.0004         37.0004
  23071926.1064   -4583314.95146  -3565605.47946                  23071933.5404
        18.2504         16.2504
  23806413.3724    9580919.21546   7465645.14845                  23806423.0564
        16.2504         11.7504
 00  5 15 19 45 45.0010000  0  6G30G 5G 6G10G17G24
  21223610.9504    2468282.86248   1940362.02047                  21223616.3294
        28.5004         39.2504
  22423097.7164    9073086.53647   7069926.54246                  22423104.8104
        20.2504         17.5004
  21801123.3564   -3618848.89147  -2819877.07947                  21801128.7004
        27.0004         33.0004
  21654815.1614    3490134.11247   2719586.46447                  21654821.0794
        27.5004         36.7504
  23068821.2944   -4599631.86946  -3578319.90546                  23068828.7394
        18.0004         16.0004
  23816309.1694    9632919.44046   7506164.79645                  23816314.8534
        16.5004          7.5004
 00  5 15 19 46  0.0010000  0  6G30G 5G 6G10G17G24
  21229120.7394    2497236.73848   1962923.46247                  21229126.2944
        28.7504         39.0004
  22434105.7554    9130934.19647   7115002.55746                  22434113.0714
        20.2504         18.0004
  21798523.3564   -3632511.74947  -2830523.44847                  21798528.9584
        26.0004         33.2504
  21661358.4894    3524519.46648   2746380.23847                  21661364.3964
        28.0004         37.0004
  23065727.1384   -4615891.66946  -3590989.82646                  23065734.6534
        17.7504         15.5004
  23826203.3174    9684918.22946   7546683.37045                  23826213.0604
        14.0004         11.7504
 00  5 15 19 46 15.0010000  0  6G30G 5G 6G10G17G24
  21234658.0994    2526335.38248   1985597.70348                  21234663.4544
        28.5004         39.5004
  22445128.6774    9188860.01247   7160139.47246                  22445135.6884
        20.2504         18.2504
  21795931.7084   -3646131.22447  -2841136.00447                  21795937.3564
        27.0004         33.5004
  21667928.5604    3559045.24747   2773283.43547                  21667934.5484
        27.2504         37.0004
  23062643.9504   -4632093.55246  -3603614.61446                  23062651.4424
        18.0004         15.7504
  23836099.7244    9736916.27846   7587201.14046                  23836109.5244
        18.0004         12.2504
 00  5 15 19 46 30.0010000  0  6G30G 5G 6G10G17G24
  21240223.8494    2555584.29948   2008389.04247                  21240229.1924
        28.7504         39.2504
  22456167.7864    9246869.42247   7205341.52246                  22456175.1264
        20.5004         18.2504
  21793349.3334   -3659701.22647  -2851710.02147                  21793355.0284
        26.2504         33.5004
  21674526.3494    3593716.96947   2800300.35647                  21674532.4424
        27.5004         36.7504
  23059572.8414   -4648231.70446  -3616189.73546                  23059580.2394
        18.2504         16.2504
  23845994.1694    9788919.22246   7627722.95145                  23846000.0404
        15.7504          8.2504
 00  5 15 19 46 45.0010000  0  6G30G 5G 6G10G17G24
  21245817.1384    2584976.86848   2031292.31447                  21245822.4934
        29.0004         39.2504
  22467221.3724    9304955.48847   7250603.30446                  22467228.5834
        20.7504         18.0004
  21790775.4504   -3673228.24347  -2862250.53347                  21790780.7714
        27.7504         34.2504
  21681150.6304    3628527.84547   2827425.71147                  21681156.5714
        27.5004         36.2504
  23056512.6854   -4664312.79346  -3628720.40446                  23056519.8604
        18.0004         16.0004
  23855890.3104    9840920.38746   7668243.32545                  23855899.5834
        13.7504          8.5004
 00  5 15 19 47  0.0010000  0  6G30G 5G 6G10G17G24
  21251438.2714    2614515.45348   2054309.36747                  21251443.5094
        28.7504         38.7504
  22478289.9504    9363120.57047   7295926.65746                  22478297.4664
        20.7504         18.0004
  21788210.0604   -3686709.37047  -2872755.30047                  21788215.4974
        26.7504         34.2504
  21687802.0054    3663480.41447   2854661.46947                  21687807.9114
        27.5004         36.5004
  23053463.8964   -4680334.11146  -3641204.48646                  23053471.2824
        18.5004         16.2504
  23865787.1224    9892922.23746   7708764.15146                  23865795.2354
        19.5004         13.2504
 00  5 15 19 47 15.0010000  0  6G30G 5G 6G10G17G24
  21257087.0054    2644199.77848   2077439.98147                  21257092.1144
        29.0004         39.0004
  22489373.3174    9421364.28547   7341311.28846                  22489380.6694
        20.5004         17.7504
  21785653.4274   -3700144.42248  -2883224.15047                  21785658.8064
        28.0004         35.0004
  21694480.1304    3698574.27047   2882007.33247                  21694486.0244
        27.5004         36.7504
  23050426.4664   -4696295.71346  -3653642.04346                  23050433.9234
        18.5004         16.5004
  23875680.9274    9944924.70746   7749285.51845                  23875689.3564
        14.2504         10.2504
 00  5 15 19 47 30.0010000  0  6G30G 5G 6G10G17G24
  21262763.3494    2674029.73748   2100684.07747                  21262768.4814
        29.0004         39.0004
  22500471.6304    9479686.20047   7386756.84646                  22500478.9704
        20.5004         18.0004
  21783105.5284   -3713533.47447  -2893657.16647                  21783111.1774
        26.7504         35.0004
  21701185.0674    3733809.03248   2909462.98547                  21701191.0444
        28.2504         36.2504
  23047400.4354   -4712197.76846  -3666033.19746                  23047407.7284
        18.7504         16.7504
  23885577.8724    9996927.59146   7789807.19045                  23885583.6264
        12.7504          6.5004
 00  5 15 19 47 45.0010000  0  6G30G 5G 6G10G17G24
  21268467.8024    2704006.26848   2124042.38647                  21268472.9234
        28.7504         38.7504
  22511585.0284    9538086.91547   7432263.81846                  22511592.4504
        20.0004         17.7504
  21780566.7554   -3726875.31448  -2904053.38647                  21780572.1224
        28.0004         35.2504
  21707916.9194    3769185.53848   2937029.09247                  21707922.8724
        28.0004         36.5004
  23044386.1224   -4728039.31446  -3678377.20646                  23044393.1344
        19.0004         16.7504
  23895475.0994   10048931.56347   7830329.76946                  23895481.8604
        20.7504         13.5004
 00  5 15 19 48  0.0010000  0  6G30G 5G 6G10G17G24
  21274200.1774    2734130.07148   2147515.45247                  21274205.2984
        28.5004         38.5004
  22522713.3964    9596567.09347   7477832.70246                  22522720.7944
        20.0004         17.7504
  21778037.0674   -3740168.80347  -2914411.93647                  21778042.5284
        27.2504         35.2504
  21714676.1144    3804704.54848   2964706.24347                  21714682.0564
        28.0004         37.0004
  23041382.9034   -4743819.41446  -3690673.32746                  23041389.6884
        19.0004         17.0004
  23905368.7164   10100937.65945   7870853.94745                  23905378.3994
        10.7504          9.5004
 00  5 15 19 48 15.0010000  0  6G30G 5G 6G10G17G24
  21279959.4114    2764395.57848   2171098.93947                  21279964.5674
        28.2504         38.2504
  22533855.9894    9655121.10146   7523459.10946                  22533863.4234
        19.7504         17.5004
  21775515.6694   -3753419.00148  -2924736.74947                  21775520.7554
        28.2504         35.5004
  21721461.2004    3840360.48248   2992490.08147                  21721467.1534
        28.0004         36.7504
  23038390.7864   -4759543.36646  -3702925.70346                  23038398.0094
        18.7504         16.7504
  23915267.1224   10152940.49346   7911375.50745                  23915272.4314
        18.7504          8.0004
 00  5 15 19 48 30.0010000  0  6G30G 5G 6G10G17G24
  21285746.5364    2794806.48548   2194795.72147                  21285751.8454
        28.5004         38.2504
  22545013.1384    9713752.37746   7569145.73046                  22545020.6184
        19.7504         17.2504
  21773003.2004   -3766621.93347  -2935024.73847                  21773008.4274
        27.7504         36.2504
  21728273.0054    3876156.94548   3020383.42647                  21728279.0054
        28.0004         36.7504
  23035410.0054   -4775207.40246  -3715131.38446                  23035417.3334
        18.7504         16.7504
  23925161.1924   10204943.60746   7951897.48545                  23925168.0014
        14.0004          9.2504
 00  5 15 19 48 45.0010000  0  6G30G 5G 6G10G17G24
  21291560.2554    2825357.47748   2218601.66147                  21291565.6814
        28.5004         38.2504
  22556184.1774    9772455.28146   7614888.16446                  22556191.4464
        19.7504         17.0004
  21770498.5914   -3779782.77847  -2945279.92447                  21770503.9114
        27.2504         36.0004
  21735110.3104    3912088.20847   3048381.81047                  21735116.2514
        27.7504         37.0004
  23032439.7004   -4790816.82746  -3727294.51846                  23032446.8644
        18.5004         16.7504
  23935057.5364   10256941.71346   7992415.33945                  23935066.6344
        15.7504          9.0004
 00  5 15 19 49  0.0010000  0  6G30G 5G 6G10G17G24
  21297401.6534    2856054.40348   2242521.31547                  21297407.1264
        28.5004         37.7504
  22567369.5284    9831235.58346   7660690.91146                  22567377.2904
        19.5004         17.0004
  21768003.3804   -3792895.18047  -2955497.36147                  21768008.6884
        27.7504         36.2504
  21741974.7394    3948160.12148   3076489.78747                  21741980.7044
        28.0004         37.0004
  23029480.5524   -4806365.64646  -3739410.42146                  23029487.6924
        18.0004         15.5004
  23944951.7084   10308940.56146   8032933.93745                  23944957.7904
        15.0004          8.5004
 00  5 15 19 49 15.0010000  0  6G30G 5G 6G10G17G24
  21303270.3964    2886894.78348   2266552.75547                  21303275.7514
        28.2504         38.0004
  22578569.1854    9890090.62446   7706551.89346                  22578576.8994
        19.5004         17.0004
  21765517.1304   -3805961.28548  -2965678.73047                  21765522.2744
        28.2504         36.0004
  21748865.1854    3984370.25547   3104705.48047                  21748871.1034
        27.7504         36.2504
  23026532.5674   -4821856.10546  -3751480.84846                  23026539.6264
        18.0004         16.0004
  23954846.7244   10360938.03046   8073451.42145                  23954853.4034
        15.0004          8.2504
 00  5 15 19 49 30.0010000  0  6G30G 5G 6G10G17G24
  21309165.9114    2917876.29548   2290694.16647                  21309171.2784
        28.5004         38.0004
  22589782.7164    9949017.84946   7752469.12146                  22589790.6064
        19.0004         17.2504
  21763039.1304   -3818983.12947  -2975825.60747                  21763044.3564
        27.5004         36.2504
  21755781.7164    4020716.02448   3133026.85447                  21755787.7514
        28.2504         35.7504
  23023595.5754   -4837290.45946  -3763507.55946                  23023602.5994
        18.0004         16.2504
  23964739.7474   10412931.61446   8113965.85945                  23964749.0214
        13.2504          9.7504
 00  5 15 19 49 45.0010000  0  6G30G 5G 6G10G17G24
  21315089.8334    2949006.26948   2314951.26147                  21315095.1774
        28.2504         37.7504
  22601011.3884   10008024.67846   7798448.36846                  22601019.4074
        19.2504         17.2504
  21760570.9354   -3831952.83447  -2985931.85647                  21760576.1614
        27.5004         36.2504
  21762725.2784    4057205.06748   3161459.87447                  21762731.2784
        28.0004         35.2504
  23020670.3104   -4852661.03646  -3775484.57446                  23020677.6854
        18.2504         16.7504
  23974636.4814   10464928.99646   8154483.16045                  23974644.4784
        17.7504          9.7504
 00  5 15 19 50  0.0010000  0  6G30G 5G 6G10G17G24
  21321041.4194    2980281.53548   2339321.56947                  21321046.7394
        28.5004         38.0004
  22612254.7944   10067107.72946   7844487.02546                  22612262.8604
        18.7504         17.2504
  21758112.4974   -3844873.26447  -2995999.70747                  21758117.9234
        27.2504         36.2504
  21769695.3564    4093833.99447   3190001.89447                  21769701.3684
        27.7504         35.7504
  23017757.3724   -4867970.86746  -3787414.25546                  23017764.6884
        18.7504         16.7504
  23984528.9974   10516926.87746   8195001.06845                  23984535.3494
        12.7504          6.5004
 00  5 15 19 50 15.0010000  0  6G30G 5G 6G10G17G24
  21327019.7944    3011697.86548   2363801.79947                  21327025.0324
        28.5004         37.7504
  22623511.6464   10126262.41046   7890581.48646                  22623519.8994
        19.0004         16.5004
  21755662.2244   -3857748.32447  -3006032.20447                  21755667.6614
        27.5004         35.5004
  21776691.4744    4130598.37847   3218649.46647                  21776697.4624
        27.0004         34.5004
  23014854.6854   -4883224.14846  -3799299.86946                  23014861.9784
        18.7504         17.0004
  23994425.7164   10568921.27146   8235516.08945                  23994434.4274
        15.2504          8.5004
 00  5 15 19 50 30.0010000  0  6G30G 5G 6G10G17G24
  21333025.9814    3043260.16148   2388395.76647                  21333031.2674
        28.5004         38.5004
  22634783.1694   10185493.48846   7936735.48746                  22634791.4234
        18.7504         16.7504
  21753221.9814   -3870572.84047  -3016025.31947                  21753227.0564
        27.5004         35.5004
  21783714.2784    4167503.08647   3247406.37947                  21783720.2784
        26.7504         34.7504
  23011963.5604   -4898415.87246  -3811137.52146                  23011970.9234
        18.7504         17.2504
  24004319.9034   10620916.77846   8276032.02946                  24004327.8174
        18.0004         12.0004
 00  5 15 19 50 45.0010000  0  6G30G 5G 6G10G17G24
  21339058.6064    3074962.34148   2413098.74147                  21339063.8564
        28.7504         38.7504
  22646067.6534   10244794.81546   7982944.22446                  22646075.9664
        19.0004         17.0004
  21750790.2394   -3883352.32347  -3025983.34247                  21750795.3024
        27.5004         35.7504
  21790762.4664    4204542.12947   3276267.96847                  21790768.5134
        27.2504         34.7504
  23009083.3254   -4913551.78946  -3822931.68246                  23009090.5484
        19.0004         17.7504
  24014211.9114   10672907.85546   8316544.51045                  24014221.3024
        13.2504          8.5004
 00  5 15 19 51  0.0010000  0  6G30G 5G 6G10G17G24
  21345118.8254    3106808.53648   2437913.92947                  21345124.0054
        29.2504         39.0004
  22657366.5524   10304170.17246   8029210.64046                  22657374.6884
        19.0004         16.7504
  21748367.4974   -3896082.52747  -3035902.96747                  21748372.8174
        27.5004         35.5004
  21797837.0444    4241719.22147   3305237.13247                  21797842.9744
        27.0004         35.0004
  23006214.6464   -4928627.88846  -3834679.23446                  23006221.8454
        19.0004         17.7504
  24024106.3104   10724898.23546   8357056.43445                  24024111.8174
        15.0004          7.0004
 00  5 15 19 51 15.0010000  0  6G30G 5G 6G10G17G24
  21351207.2004    3138802.71148   2462844.42547                  21351212.4854
        29.0004         38.7504
  22668680.1384   10363623.33046   8075537.68646                  22668688.0404
        19.2504         16.5004
  21745955.1384   -3908759.09247  -3045780.79047                  21745960.7634
        26.7504         35.2504
  21804938.5444    4279038.39647   3334317.00747                  21804944.5324
        27.7504         34.5004
  23003357.6774   -4943639.99346  -3846376.92346                  23003365.0054
        19.2504         18.2504
  24034000.5524   10776892.10446   8397571.18645                  24034008.0444
        16.5004         10.2504
 00  5 15 19 51 30.0010000  0  6G30G 5G 6G10G17G24
  21357322.7864    3170939.77148   2487886.26447                  21357327.9784
        29.0004         39.2504
  22680007.6774   10423149.22746   8121921.40946                  22680015.9314
        19.2504         17.0004
  21743552.3414   -3921386.55847  -3055620.35647                  21743557.5214
        27.5004         35.7504
  21812066.2164    4316494.47047   3363503.56047                  21812072.2744
        27.7504         34.5004
  23000512.2554   -4958592.91546  -3858028.50046                  23000519.6184
        19.2504         18.2504
  24043893.6534   10828884.51746   8438084.65845                  24043904.4034
        13.0004         10.5004
 00  5 15 19 51 45.0010000  0  6G30G 5G 6G10G17G24
  21363465.3334    3203219.21048   2513039.04747                  21363470.6304
        29.0004         38.7504
  22691348.7944   10482747.14646   8168361.25346                  22691356.9314
        18.7504         16.7504
  21741158.5444   -3933965.13747  -3065421.82947                  21741163.7824
        27.2504         35.0004
  21819220.0214    4354087.01547   3392796.45347                  21819226.0214
        27.0004         34.5004
  22997678.0214   -4973487.07146  -3869634.28046                  22997685.4424
        19.5004         18.0004
  24053787.9744   10880874.95546   8478596.55045                  24053795.5954
        16.5004          8.0004
 00  5 15 19 52  0.0010000  0  6G30G 5G 6G10G17G24
  21369634.7864    3235639.97648   2538301.95547                  21369640.0484
        29.2504         38.7504
  22702703.5674   10542415.92846   8214856.31246                  22702711.5634
        18.7504         16.5004
  21738773.9424   -3946495.49247  -3075185.72747                  21738779.0754
        27.2504         35.0004
  21826399.3804    4391814.89347   3422194.79347                  21826405.4274
        27.0004         34.5004
  22994854.8334   -4988323.27146  -3881194.89846                  22994861.9504
        19.5004         18.0004
  24063680.2714   10932862.56746   8519106.47645                  24063685.8374
        15.5004          7.7504
 00  5 15 19 52 15.0010000  0  6G30G 5G 6G10G17G24
  21375831.6694    3268204.62848   2563676.98147                  21375836.9664
        29.0004         38.2504
  22714072.1064   10602158.07946   8261408.54046                  22714080.2784
        18.7504         16.2504
  21736399.4504   -3958974.70447  -3084909.77347                  21736404.9584
        26.7504         34.7504
  21833604.9354    4429680.60547   3451700.53947                  21833610.8534
        27.5004         34.2504
  22992042.9194   -5003098.84846  -3892708.28746                  22992050.2004
        19.5004         18.2504
  24073573.1534   10984850.02546   8559616.09645                  24073583.1064
        14.0004          9.2504
 00  5 15 19 52 30.0020000  0  6G30G 5G 6G10G17G24
  21382055.5804    3300911.57848   2589162.88747                  21382060.8074
        29.2504         38.5004
  22725454.6744   10661973.54246   8308017.89246                  22725462.8934
        18.7504         16.5004
  21734033.4794   -3971407.02747  -3094597.27947                  21734039.0924
        26.2504         35.0004
  21840836.5884    4467682.67347   3481312.54347                  21840842.5644
        27.7504         34.7504
  22989241.9554   -5017818.39746  -3904178.01546                  22989249.0254
        19.2504         17.7504
  24083466.9634   11036836.98246   8600125.31645                  24083473.8224
        16.5004          8.7504
 00  5 15 19 52 45.0020000  0  6G30G 5G 6G10G17G24
  21388307.2524    3333765.03548   2614762.95447                  21388312.5614
        28.7504         38.5004
  22736851.4244   10721862.70046   8354684.67746                  22736859.5494
        18.7504         16.0004
  21731678.9394   -3983781.76947  -3104239.91347                  21731684.2834
        27.5004         35.0004
  21848094.7054    4505824.56547   3511033.50147                  21848100.6934
        27.7504         34.7504
  22986453.4244   -5032471.23846  -3915595.75846                  22986460.3184
        19.2504         17.7504
  24093359.4794   11088825.20246   8640635.66245                  24093366.8544
        15.7504          9.5004
 00  5 15 19 53  0.0020000  0  6G30G 5G 6G10G17G24
  21394587.1664    3366764.51748   2640476.81047                  21394592.4394
        29.2504         38.7504
  22748261.9634   10781826.61946   8401409.72346                  22748270.1704
        18.7504         16.0004
  21729334.1434   -3996102.19247  -3113840.23047                  21729339.4394
        27.0004         34.7504
  21855379.2914    4544105.85847   3540863.07947                  21855385.3384
        27.5004         34.7504
  22983677.0644   -5047061.01146  -3926964.35846                  22983683.9364
        19.0004         17.2504
  24103252.4004   11140815.46646   8681147.46045                  24103261.9204
        14.2504         10.0004
 00  5 15 19 53 15.0020000  0  6G30G 5G 6G10G17G24
  21400893.3384    3399904.11748   2666299.84747                  21400898.6354
        29.7504         39.0004
  22759685.8694   10841859.29046   8448188.32946                  22759693.9714
        19.0004         15.5004
  21726998.8694   -4008373.73947  -3123402.45647                  21727004.2954
        26.0004         34.2504
  21862689.3934    4582520.75647   3570796.76047                  21862695.3574
        27.5004         34.7504
  22980911.4794   -5061593.41646  -3938288.25246                  22980918.3114
        18.7504         17.5004
  24113145.9714   11192801.86646   8721656.27245                  24113152.7214
        17.2504          8.7504
 00  5 15 19 53 30.0020000  0  6G30G 5G 6G10G17G24
  21407227.0494    3433187.75948   2692235.12247                  21407232.2754
        29.7504         39.2504
  22771123.9164   10901964.67646   8495023.60746                  22771132.0644
        19.0004         15.5004
  21724673.9004   -4020591.97547  -3132923.13947                  21724679.3734
        26.5004         34.7504
  21870025.8384    4621073.10647   3600837.55047                  21870031.8964
        27.7504         34.5004
  22978157.9164   -5076064.22046  -3949564.15246                  22978164.7364
        19.2504         17.2504
  24123038.2294   11244788.64046   8762165.49345                  24123045.0024
        15.7504          8.5004
 00  5 15 19 53 45.0020000  0  6G30G 5G 6G10G17G24
  21413587.9864    3466614.14448   2718281.62947                  21413593.0614
        29.2504         39.2504
  22782575.3304   10962141.25246   8541914.35046                  22782583.6074
        19.0004         15.5004
  21722358.6504   -4032757.98047  -3142403.12247                  21722364.1584
        26.5004         34.2504
  21877387.9324    4659761.51247   3630984.35847                  21877393.9324
        27.7504         34.5004
  22975415.6114   -5090474.58646  -3960792.95646                  22975422.4824
        19.2504         17.5004
  24132930.5964   11296774.67246   8802674.00445                  24132939.3184
        13.7504          8.7504
 00  5 15 19 54  0.0020000  0  6G30G 5G 6G10G17G24
  21419974.7364    3500177.20248   2744434.63347                  21419979.9394
        29.5004         38.7504
  22794038.5644   11022382.59046   8588855.55646                  22794046.8304
        19.0004         15.2504
  21720052.4084   -4044877.48247  -3151846.87247                  21720057.6004
        26.7504         34.5004
  21884774.8144    4698579.91847   3661232.46347                  21884780.8264
        27.5004         34.5004
  22972683.9324   -5104830.57046  -3971979.39046                  22972690.7914
        19.5004         17.7504
  24142822.7524   11348753.64146   8843177.04545                  24142829.2684
        16.2504          8.2504
 00  5 15 19 54 15.0020000  0  6G30G 5G 6G10G17G24
  21426388.7214    3533883.85548   2770699.52547                  21426393.9124
        29.5004         39.2504
  22805516.0804   11082695.71146   8635852.69746                  22805524.0064
        18.7504         15.2504
  21717756.4004   -4056943.02447  -3161248.58047                  21717761.9204
        25.5004         34.0004
  21892187.8544    4737535.29747   3691587.30047                  21892193.7834
        27.2504         34.5004
  22969963.5804   -5119124.89347  -3983117.76546                  22969970.5454
        20.0004         18.5004
  24152713.1744   11400732.88046   8883680.33045                  24152721.4044
        14.7504          9.7504
 00  5 15 19 54 30.0020000  0  6G30G 5G 6G10G17G24
  21432830.6434    3567735.07048   2797077.07047                  21432835.8694
        29.7504         39.2504
  22817007.0494   11143081.45446   8682906.42546                  22817015.1864
        18.5004         14.5004
  21715471.0104   -4068953.19647  -3170607.12747                  21715476.6234
        26.0004         33.2504
  21899627.0104    4776628.44047   3722049.48547                  21899633.0214
        27.5004         34.7504
  22967255.4944   -5133356.37747  -3994207.17846                  22967262.1974
        20.2504         18.7504
  24162605.5494   11452713.42746   8924184.53245                  24162614.1074
        14.5004          8.2504
 00  5 15 19 54 45.0020000  0  6G30G 5G 6G10G17G24
  21439299.3694    3601728.61248   2823565.51447                  21439304.6314
        29.2504         39.2504
  22828511.3614   11203537.33346   8730014.80546                  22828519.7564
        18.0004         14.7504
  21713195.6744   -4080909.98747  -3179924.09347                  21713201.1934
        26.5004         33.5004
  21907092.0104    4815856.98347   3752617.18047                  21907098.0804
        27.5004         34.5004
  22964558.6824   -5147527.16047  -4005249.30246                  22964565.4794
        20.2504         19.2504
  24172496.8384   11504692.98846   8964688.08945                  24172502.4864
        15.0004          6.7504
 00  5 15 19 55  0.0020000  0  6G30G 5G 6G10G17G24
  21445794.8544    3635862.44848   2850163.28147                  21445800.3034
        29.0004         39.2504
  22840028.6974   11264061.14246   8777176.11746                  22840037.1044
        18.2504         14.7504
  21710930.1584   -4092815.08047  -3189200.77047                  21710935.5614
        26.2504         34.2504
  21914582.1194    4855218.68247   3783288.62947                  21914588.1894
        27.5004         34.7504
  22961873.4004   -5161639.26647  -4016245.68646                  22961880.6584
        20.0004         19.5004
  24182387.5414   11556669.56646   9005189.32845                  24182396.0064
        14.5004          8.5004
 00  5 15 19 55 15.0020000  0  6G30G 5G 6G10G17G24
  21452316.6194    3670135.22548   2876869.31047                  21452322.0924
        29.2504         39.2504
  22851559.0104   11324651.36046   8824389.17546                  22851567.2054
        18.5004         14.2504
  21708674.3304   -4104669.42447  -3198437.90647                  21708679.6504
        26.2504         33.5004
  21922097.4474    4894712.08647   3814062.70147                  21922103.4714
        27.7504         34.7504
  22959198.8224   -5175693.86347  -4027197.26946                  22959205.8814
        20.2504         19.5004
  24192277.3934   11608641.96946   9045687.20245                  24192285.9864
        14.2504          8.7504
 00  5 15 19 55 30.0020000  0  6G30G 5G 6G10G17G24
  21458862.8774    3704535.73748   2903674.87048                  21458868.3614
        29.0004         39.5004
  22863099.3304   11385296.73846   8871645.21346                  22863107.4204
        18.0004         14.5004
  21706426.0024   -4116483.71747  -3207643.82747                  21706431.7324
        25.7504         33.2504
  21929635.9164    4934326.20647   3844930.84247                  21929641.9284
        27.5004         35.0004
  22956533.4394   -5189701.76947  -4038112.46746                  22956540.1894
        20.5004         19.5004
  24202164.9944   11660599.21046   9086173.31745                  24202171.9474
        14.2504          7.2504
 00  5 15 19 55 45.0020000  0  6G30G 5G 6G10G17G24
  21465436.4004    3739078.93348   2930591.61948                  21465441.8614
        29.2504         39.5004
  22874653.0644   11446011.94946   8918955.67246                  22874661.4244
        18.5004         14.5004
  21704188.5964   -4128242.66147  -3216806.61347                  21704194.0924
        26.5004         33.5004
  21937199.9794    4974075.86747   3875904.60047                  21937205.9554
        27.5004         35.0004
  22953879.1504   -5203648.03147  -4048979.63346                  22953886.1504
        20.0004         19.7504
  24212052.3464   11712556.24346   9126659.31445                  24212060.3654
        16.2504          9.2504
 00  5 15 19 56  0.0020000  0  6G30G 5G 6G10G17G24
  21472036.0104    3773761.00948   2957616.58548                  21472041.5534
        29.0004         39.7504
  22886219.6894   11506793.21246   8966317.59246                  22886227.7324
        18.2504         14.2504
  21701960.8544   -4139949.60947  -3225928.89947                  21701966.1274
        26.7504         34.0004
  21944789.1194    5013957.11847   3906980.89447                  21944795.1894
        27.7504         35.0004
  22951236.4554   -5217536.26647  -4059801.58146                  22951243.2644
        20.5004         19.2504
  24221937.4554   11764509.46546   9167142.27645                  24221946.0844
        12.2504          8.0004
 00  5 15 19 56 15.0020000  0  6G30G 5G 6G10G17G24
  21478662.2214    3808581.22148   2984749.18648                  21478667.9514
        29.2504         39.5004
  22897798.4474   11567639.62046   9013730.27946                  22897806.7364
        18.5004         14.5004
  21699742.6274   -4151604.94047  -3235010.95547                  21699747.9824
        26.7504         34.2504
  21952403.3934    5053969.05948   3938159.01647                  21952409.2994
        28.0004         35.0004
  22948604.4324   -5231366.98546  -4070578.71246                  22948611.4674
        19.7504         19.2504
  24231823.9634   11816458.24546   9207621.78145                  24231830.9164
        14.5004          6.5004
 00  5 15 19 56 30.0020000  0  6G30G 5G 6G10G17G24
  21485316.5644    3843549.53948   3011997.20248                  21485322.0724
        29.2504         39.7504
  22909391.2754   11628561.05546   9061201.42646                  22909399.6464
        18.2504         14.7504
  21697536.6114   -4163198.12547  -3244044.59147                  21697542.0144
        26.0004         33.7504
  21960044.0024    5094121.82147   3969446.87447                  21960049.9554
        27.7504         34.7504
  22945985.3934   -5245129.96747  -4081303.05946                  22945992.5804
        20.0004         19.2504
  24241710.7524   11868412.58846   9248105.69345                  24241718.7484
        15.2504          9.5004
 00  5 15 19 56 45.0020000  0  6G30G 5G 6G10G17G24
  21491995.3614    3878646.97648   3039345.82448                  21492000.8934
        29.2504         39.7504
  22920994.9474   11689538.31846   9108716.07346                  22921003.2134
        18.2504         14.5004
  21695338.7754   -4174747.89647  -3253044.38847                  21695344.2484
        26.7504         34.0004
  21967708.0184    5134396.12048   4000829.43447                  21967713.9474
        28.2504         35.2504
  22943375.5414   -5258844.12147  -4091989.36746                  22943382.5184
        20.2504         19.0004
  24251594.2994   11920353.73446   9288579.21945                  24251602.6464
        13.0004          7.5004
 00  5 15 19 57  0.0020000  0  6G30G 5G 6G10G17G24
  21498699.1824    3913876.44148   3066797.32647                  21498704.7484
        29.2504         39.2504
  22932609.7834   11750573.92046   9156276.18346                  22932618.5764
        17.7504         14.5004
  21693149.8224   -4186251.13547  -3262007.93447                  21693155.0144
        27.0004         35.0004
  21975395.5414    5174794.67548   4032308.82547                  21975401.4714
        28.5004         35.5004
  22940775.6974   -5272506.54147  -4102635.35346                  22940782.3654
        20.2504         19.0004
  24261476.7054   11972284.43446   9329044.67145                  24261482.7644
        13.7504          6.2504
 00  5 15 19 57 15.0020000  0  6G30G 5G 6G10G17G24
  21505430.1194    3949247.80648   3094359.40247                  21505435.7564
        29.0004         39.0004
  22944237.6974   11811677.82846   9203889.50346                  22944246.4554
        17.7504         14.2504
  21690971.5724   -4197697.28347  -3270926.99747                  21690976.8574
        26.7504         34.7504
  21983108.8694    5215327.56348   4063892.88347                  21983114.7174
        28.2504         35.2504
  22938187.4554   -5286106.94447  -4113233.02346                  22938194.0764
        20.5004         19.2504
  24271358.8774   12024214.91146   9369509.96345                  24271367.6234
        14.0004          8.5004
 00  5 15 19 57 30.0020000  0  6G30G 5G 6G10G17G24
  21512185.8774    3984748.78448   3122022.47347                  21512191.3384
        29.0004         38.7504
  22955875.8074   11872837.63246   9251546.40046                  22955884.6234
        17.5004         14.0004
  21688802.2214   -4209098.23147  -3279810.83147                  21688807.5184
        27.2504         34.7504
  21990845.0804    5255982.26147   4095571.85747                  21990851.1044
        27.7504         35.2504
  22935609.0724   -5299657.47347  -4123791.83046                  22935615.6934
        20.5004         19.5004
  24281238.4084   12076132.88246   9409965.40045                  24281247.0024
        14.2504          8.7504
 00  5 15 19 57 45.0020000  0  6G30G 5G 6G10G17G24
  21518967.0334    4020383.91848   3149790.07947                  21518972.4824
        28.7504         38.2504
  22967525.6584   11934057.66646   9299250.21246                  22967534.2754
        17.5004         14.0004
  21686642.2364   -4220449.12247  -3288655.66147                  21686647.3694
        27.5004         35.0004
  21998605.5804    5296763.28347   4127349.26447                  21998611.5574
        27.5004         34.7504
  22933040.8144   -5313153.47447  -4134308.14546                  22933047.7794
        20.5004         19.7504
  24291116.4864   12128043.02846   9450414.86045                  24291122.3114
        13.0004          5.7504
 00  5 15 19 58  0.0020000  0  7G30G 5G 6G26G10G17G24
  21525773.0184    4056149.44848   3177659.29447                  21525778.4204
        29.0004         38.0004
  22979186.3614   11995334.07446   9346997.95746                  22979195.1894
        17.0004         14.0004
  21684490.9084   -4231753.21447  -3297464.03247                  21684495.8424
        27.7504         35.5004
  24975985.5414     -21050.90345
         8.5004
  22006389.2134    5337666.91147   4159222.21247                  22006395.1894
        27.2504         35.0004
  22930482.2754   -5326598.42247  -4144784.68346                  22930489.0844
        20.2504         19.0004
  24300992.4714   12179941.82646   9490855.46945                  24301000.3264
        12.5004          6.7504
 00  5 15 19 58 15.0020000  0  7G30G 5G 6G26G10G17G24
  21532604.9004    4092051.00348   3205634.50247                  21532610.3264
        28.5004         37.7504
  22990858.6744   12056672.37546   9394793.92846                  22990867.1274
        17.5004         14.0004
  21682349.9714   -4243004.49247  -3306231.24447                  21682354.9634
        27.7504         35.7504
  24970521.3544     -49761.10745
         7.5004
  22014197.4634    5378698.67747   4191195.00747                  22014203.4514
        27.7504         35.2504
  22927934.4324   -5339986.51547  -4155216.91646                  22927941.4084
        20.2504         19.0004
  24310867.7294   12231834.93946   9531291.57345                  24310877.2254
        13.7504          8.7504
 00  5 15 19 58 30.0020000  0  7G30G 5G 6G26G10G17G24
  21539462.7294    4128089.86748   3233716.70947                  21539468.4004
        28.2504         37.2504
  23002543.2754   12118073.89746   9442639.16546                  23002552.0104
        16.7504         14.5004
  21680219.3774   -4254201.18648  -3314955.92047                  21680224.4634
        28.2504         35.7504
  24965056.3304     -78474.11343
         6.0004
  22022029.9004    5419859.86247   4223268.64747                  22022035.9714
        27.5004         34.2504
  22925397.8224   -5353316.25846  -4165603.67746                  22925404.7054
        19.7504         18.7504
  24320742.1194   12283723.90646   9571724.45945                  24320750.7484
        13.7504          7.7504
 00  5 15 19 58 45.0020000  0  7G30G 5G 6G26G10G17G24
  21546345.1504    4164257.46848   3261899.22647                  21546350.8464
        28.0004         36.7504
  23014237.9554   12179529.73346   9490526.71346                  23014246.7364
        17.2504         13.7504
  21678097.5414   -4265351.56548  -3323644.51347                  21678102.6394
        28.2504         35.7504
  24959591.2994    -107197.74145
         8.2504
  22029885.6354    5461141.70447   4255436.30347                  22029891.5884
        27.7504         35.2504
  22922870.4864   -5366596.16246  -4175951.60846                  22922877.3934
        19.7504         19.0004
  24330613.2524   12335600.13146   9612147.48345                  24330621.0964
        13.0004          6.5004
 00  5 15 19 59  0.0020000  0  7G30G 5G 6G26G10G17G24
  21553252.9164    4200557.22848   3290184.72247                  21553258.6464
        28.0004         37.5004
  23025943.4084   12241043.18046   9538459.16746                  23025952.5414
        17.0004         13.7504
  21675985.2754   -4276451.77648  -3332294.01147                  21675990.1504
        28.7504         36.2504
  24954122.7684    -135928.20043
         6.0004
  22037764.9794    5502547.53547   4287700.57047                  22037771.0024
        27.7504         34.7504
  22920353.6434   -5379822.63047  -4186257.89346                  22920360.4164
        20.2504         19.5004
  24340483.7364   12387467.27246   9652563.37245                  24340492.2834
        13.2504          7.5004
 00  5 15 19 59 15.0020000  0  7G30G 5G 6G26G10G17G24
  21560185.3144    4236986.97848   3318571.51647                  21560190.9514
        28.2504         36.7504
  23037660.0184   12302611.97546   9586434.74246                  23037668.9634
        17.2504         13.2504
  21673882.3934   -4287503.57748  -3340905.78947                  21673887.1864
        29.0004         36.5004
  24948654.1274    -164667.07544    -14928.31652                  24948675.6504
         6.7504          2.2504
  22045667.5184    5544075.15347   4320059.73947                  22045673.6004
        27.5004         34.7504
  22917846.6114   -5392997.54947  -4196524.01146                  22917853.4324
        20.5004         19.5004
  24350351.2834   12439323.24446   9692970.56745                  24350359.7954
        13.2504          6.7504
 00  5 15 19 59 30.0020000  0  7G30G 5G 6G26G10G17G24
  21567144.3224    4273556.63447   3347067.32447                  21567149.9944
        27.7504         36.7504
  23049388.4004   12364245.85446   9634461.03046                  23049397.3114
        16.7504         13.7504
  21671790.3074   -4298496.70048  -3349471.84747                  21671795.1004
        28.5004         36.7504
  24943186.9634    -193403.65545    -37320.21344                  24943205.7294
         9.7504          3.5004
  22053594.9554    5585734.30847   4352521.40547                  22053600.9204
        27.7504         34.2504
  22915351.2684   -5406110.93847  -4206742.18146                  22915358.0534
        20.2504         19.5004
  24360218.9004   12491177.97346   9733376.82145                  24360228.0574
        12.2504          7.0004
 00  5 15 19 59 45.0020000  0  7G30G 5G 6G26G10G17G24
  21574127.5574    4310254.87147   3375663.32247                  21574133.3464
        27.5004         36.5004
  23061127.3854   12425933.38746   9682529.12346                  23061136.5764
        16.7504         13.2504
  21669707.4004   -4309441.92648  -3358000.57747                  21669712.3574
        29.0004         37.0004
  24937715.3544    -222148.82744    -59718.88143                  24937734.3074
         6.5004          2.7504
  22061545.2754    5627513.62947   4385076.70947                  22061551.2524
        27.5004         34.5004
  22912865.1504   -5419173.86947  -4216921.04246                  22912871.9824
        20.5004         20.0004
  24370085.1044   12543020.26446   9773773.32245                  24370093.5214
        14.2504          8.5004
 00  5 15 20  0  0.0020000  0  7G30G 5G 6G26G10G17G24
  21581136.8224    4347088.02547   3404364.45347                  21581142.5644
        27.5004         36.7504
  23072877.1274   12487680.85346   9730643.92246                  23072886.1894
        16.5004         13.2504
  21667634.9944   -4320332.38048  -3366486.62847                  21667639.9984
        29.0004         36.7504
  24932244.8934    -250895.55543    -82118.54642                  24932265.8544
         5.7504          1.7504
  22069519.5964    5669419.51047   4417730.63047                  22069525.6074
        27.5004         34.5004
  22910390.2524   -5432179.70047  -4227055.41046                  22910397.0844
        21.0004         20.0004
  24379948.0884   12594856.83645   9814165.43545                  24379955.8384
        11.5004          6.7504
 00  5 15 20  0 15.0020000  0  7G30G 5G 6G26G10G17G24
  21588170.4244    4384049.73547   3433165.75947                  21588176.3424
        27.2504         36.5004
  23084637.9634   12549481.65646   9778800.28346                  23084647.0254
        17.0004         13.2504
  21665571.9714   -4331174.07448  -3374934.68347                  21665576.7404
        29.7504         37.0004
  24926773.5104    -279649.59344   -104524.05943                  24926794.0574
         6.7504          2.5004
  22077517.0964    5711445.52747   4450478.16347                  22077523.0614
        27.0004         34.0004
  22907925.2834   -5445134.66947  -4237150.14146                  22907932.0924
        21.2504         20.7504
  24389811.0024   12646681.36646   9854548.11045                  24389819.8304
        12.5004          6.7504
 00  5 15 20  0 30.0020000  0  7G30G 5G 6G26G10G17G24
  21595227.4794    4421134.89647   3462063.25647                  21595233.4794
        27.5004         36.2504
  23096407.3544   12611330.58746   9826994.14646                  23096416.6154
        16.5004         13.0004
  21663517.3074   -4341971.76048  -3383348.45247                  21663522.0534
        29.2504         37.0004
  24921297.7134    -308415.55542   -126938.83242                  24921316.4674
         4.5004          2.0004
  22085536.1434    5753586.37747   4483315.17247                  22085542.0374
        27.2504         33.5004
  22905468.8544   -5458043.72947  -4247209.09646                  22905475.7134
        21.0004         20.5004
  24399670.7054   12698488.75946   9894917.46445                  24399677.9634
        17.0004          9.2504
 00  5 15 20  0 45.0020000  0  7G30G 5G 6G26G10G17G24
  21602309.9794    4458352.58047   3491064.02047                  21602315.9434
        27.2504         36.7504
  23108187.8614   12673236.60746   9875232.49046                  23108196.7954
        16.5004         12.7504
  21661472.6894   -4352715.91648  -3391720.50047                  21661477.3424
        29.5004         37.7504
  24915825.0964    -337183.75645   -149355.28643                  24915844.9284
         8.0004          3.2504
  22093578.8544    5795851.09147   4516248.70147                  22093584.9124
        27.7504         33.7504
  22903022.5494   -5470897.65047  -4257225.08746                  22903029.0644
        21.0004         20.7504
  24409526.4634   12750288.27646   9935280.70945                  24409533.7684
        13.5004          7.7504
 00  5 15 20  1  0.0020000  0  7G30G 5G 6G26G10G17G24
  21609418.6824    4495709.96047   3520173.64447                  21609424.6464
        27.5004         37.0004
  23119980.6974   12735206.91546   9923520.93146                  23119990.1004
        16.5004         12.7504
  21659439.6584   -4363398.78648  -3400044.80147                  21659444.6154
        29.0004         38.0004
  24910350.8464    -365946.17345   -171767.38943                  24910370.8304
         7.5004          3.2504
  22101646.5334    5838246.92147   4549284.40247                  22101652.5334
        27.0004         34.0004
  22900588.6114   -5483688.89347  -4267192.23946                  22900595.4824
        21.2504         21.0004
  24419382.9324   12802087.55345   9975643.69545                  24419391.9124
         9.7504          5.7504
 00  5 15 20  1 15.0020000  0  7G30G 5G 6G26G10G17G24
  21616551.8464    4533194.10747   3549382.04147                  21616557.7294
        27.5004         36.7504
  23131782.7914   12797228.41846   9971849.26046                  23131792.1824
        16.2504         12.5004
  21657416.1274   -4374032.84648  -3408331.05947                  21657421.1894
        29.7504         37.2504
  24904875.1354    -394715.33542   -194184.60843                  24904896.2254
         4.7504          2.7504
  22109736.7294    5880760.93547   4582412.18647                  22109742.8224
        27.2504         33.7504
  22898163.6664   -5496430.19447  -4277120.46946                  22898170.2644
        20.7504         20.2504
  24429239.1194   12853873.51146  10015996.32645                  24429247.5374
        14.7504          7.5004
 00  5 15 20  1 30.0020000  0  7G30G 5G 6G26G10G17G24
  21623709.7684    4570809.03647   3578692.34547                  21623715.6974
        27.5004         36.7504
  23143595.7364   12859304.83246  10020220.37746                  23143605.1394
        16.0004         12.7504
  21655402.5804   -4384613.89448  -3416576.01847                  21655407.4794
        29.2504         37.7504
  24899400.8144    -423486.75143   -216603.57343                  24899422.4554
         5.7504          2.5004
  22117850.1274    5923396.83747   4615634.95247                  22117856.0334
        27.5004         33.7504
  22895749.3224   -5509117.58347  -4287006.69746                  22895756.1074
        20.7504         20.2504
  24439091.6504   12905650.13646  10056341.72745                  24439098.8264
        15.7504          9.2504
 00  5 15 20  1 45.0020000  0  7G30G 5G 6G26G10G17G24
  21630891.6194    4608550.33447   3608101.11747                  21630897.5254
        27.5004         37.0004
  23155418.2834   12921431.88746  10068630.96246                  23155428.0494
        15.7504         12.2504
  21653398.5024   -4395145.60748  -3424782.53047                  21653403.2134
        29.5004         37.7504
  24893924.2914    -452263.93543   -239027.06542                  24893944.0534
         6.0004          1.7504
  22125985.6354    5966150.30947   4648949.33647                  22125991.5884
        27.7504         33.5004
  22893344.2444   -5521755.10547  -4296854.06446                  22893350.9714
        20.7504         19.7504
  24448939.9324   12957413.53345  10096676.81345                  24448949.0644
        10.7504          7.2504
 00  5 15 20  2  0.0020000  0  7G30G 5G 6G26G10G17G24
  21638098.5964    4646422.83147   3637612.12547                  21638104.6074
        27.5004         36.7504
  23167251.0494   12983614.21946  10117084.61346                  23167260.9324
        15.7504         12.0004
  21651404.7524   -4405622.82048  -3432946.57547                  21651409.4754
        29.5004         37.7504
  24888448.2604    -481041.40945   -261450.93442                  24888467.6234
         7.5004          2.2504
  22134144.6974    6009026.26347   4682359.15947                  22134150.6624
        27.5004         33.7504
  22890950.1744   -5534337.70447  -4306658.64146                  22890956.9004
        21.0004         19.7504
  24458790.3384   13009168.64446  10137005.33445                  24458798.3224
        13.2504          6.0004
 00  5 15 20  2 15.0020000  0  7G30G 5G 6G26G10G17G24
  21645329.7214    4684422.81547   3667222.47247                  21645335.6624
        27.0004         35.7504
  23179093.8934   13045847.85146  10165578.23646                  23179103.7174
        15.7504         12.0004
  21649420.6504   -4416049.02948  -3441070.87547                  21649425.5964
        29.0004         37.5004
  24882971.4324    -509822.53544   -283877.52344                  24882991.3574
         7.0004          3.5004
  22142326.3614    6052020.56847   4715861.19847                  22142332.3964
        26.5004         33.7504
  22888565.3464   -5546868.98547  -4316423.22046                  22888571.7444
        21.0004         20.0004
  24468637.0574   13060911.57946  10177324.52245                  24468643.4434
        15.7504          7.0004
 00  5 15 20  2 30.0020000  0  7G30G 5G 6G26G10G17G24
  21652585.1584    4722550.87647   3696932.62347                  21652591.1354
        27.0004         36.0004
  23190946.6894   13108133.27446  10214112.21446                  23190956.3964
        16.2504         12.0004
  21647446.4634   -4426423.09348  -3449154.54447                  21647451.3264
        29.5004         37.5004
  24877492.9394    -538606.10943   -306305.92043                  24877514.1704
         5.7504          2.5004
  22150530.6354    6095133.90947   4749455.99347                  22150536.5644
        27.0004         33.7504
  22886190.5024   -5559348.14747  -4326147.19246                  22886196.7834
        21.2504         20.2504
  24478480.2134   13112643.28546  10217634.93345                  24478489.2994
        13.2504          8.7504
 00  5 15 20  2 45.0020000  0  7G30G 5G 6G26G10G17G24
  21659865.6194    4760809.62247   3726744.60347                  21659871.4554
        27.0004         35.7504
  23202809.3934   13170473.07946  10262688.57345                  23202818.9594
        15.5004         11.7504
  21645482.8614   -4436741.92448  -3457195.17747                  21645487.7364
        29.2504         37.7504
  24872015.6974    -567388.73843   -328733.68842                  24872033.8544
         6.0004          2.0004
  22158757.8854    6138368.81947   4783145.52247                  22158763.9554
        27.0004         33.5004
  22883826.3304   -5571772.31447  -4335828.31346                  22883832.8694
        21.2504         20.7504
  24488323.5644   13164366.60946  10257938.66245                  24488334.2444
        13.0004          9.0004
 00  5 15 20  3  0.0020000  0  7G30G 5G 6G26G10G17G24
  21667170.6974    4799197.19347   3756656.96547                  21667176.5924
        27.0004         35.2504
  23214682.3854   13232865.34646  10311305.81345                  23214691.6704
        15.7504         11.7504
  21643529.4474   -4447006.85048  -3465193.80147                  21643534.2994
        29.0004         37.7504
  24866539.1044    -596171.60544   -351161.65143                  24866559.1934
         7.0004          2.7504
  22167008.0964    6181723.43147   4816928.32647                  22167014.1544
        27.2504         33.5004
  22881472.2524   -5584143.15347  -4345467.87646                  22881478.7914
        21.0004         21.0004
  24498164.2684   13216079.84746  10298234.60545                  24498172.8264
        14.2504          6.7504
 00  5 15 20  3 15.0020000  0  7G30G 5G 6G26G10G17G24
  21674499.4554    4837710.85147   3786667.57147                  21674505.4324
        26.7504         35.2504
  23226564.8304   13295307.17946  10359961.67145                  23226574.5024
        15.5004         11.5004
  21641585.9324   -4457220.27148  -3473152.29247                  21641591.1114
        28.5004         37.5004
  24861062.0414    -624956.92245   -373591.45043                  24861080.8894
         7.7504          2.5004
  22175280.2914    6225194.86247   4850802.15247                  22175286.3034
        26.7504         33.0004
  22879127.6584   -5596463.33147  -4355067.96746                  22879134.2564
        21.0004         21.0004
  24508002.9164   13267780.38146  10338520.79045                  24508008.5644
        14.7504          5.2504
 00  5 15 20  3 30.0020000  0  7G30G 5G 6G26G10G17G24
  21681853.2214    4876353.26647   3816778.51947                  21681859.0574
        27.0004         35.5004
  23238457.0494   13357801.15046  10408658.15645                  23238466.8034
        15.7504         11.5004
  21639652.8304   -4467378.97748  -3481068.14847                  21639657.7874
        29.0004         37.2504
  24855583.1664    -653741.47345   -396020.85242                  24855598.3814
         7.5004          1.7504
  22183575.3304    6268785.72247   4884769.04447                  22183581.3544
        26.7504         33.0004
  22876793.4164   -5608729.92647  -4364626.30046                  22876800.0144
        21.0004         20.7504
  24517839.0574   13319470.99746  10378799.20545                  24517847.4164
        14.2504          8.7504
 00  5 15 20  3 45.0020000  0  7G30G 5G 6G26G10G17G24
  21689231.2444    4915126.15647   3846991.12947                  21689237.0454
        27.5004         35.7504
  23250359.6584   13420348.84346  10457396.50445                  23250369.2014
        16.0004         11.5004
  21637730.4324   -4477480.91148  -3488939.76947                  21637735.4004
        28.7504         37.7504
  24850104.9864    -682522.89642   -418447.75142                  24850126.3224
         4.7504          2.2504
  22191893.5024    6312497.60547   4918830.24647                  22191899.4904
        27.0004         33.2504
  22874469.7834   -5620940.99147  -4374141.35846                  22874476.3224
        21.0004         21.0004
  24527672.3074   13371153.61745  10419071.21645                  24527684.1824
         9.7504          7.5004
 00  5 15 20  4  0.0020000  0  8G30G 5G 6G26G10G23G17G24
  21696633.3464    4954023.68047   3877300.85947                  21696638.9364
        27.7504         36.2504
  23262271.1044   13482944.25946  10506172.04345                  23262280.7404
        15.5004         11.2504
  21635817.8144   -4487531.47448  -3496771.35747                  21635822.9124
        28.2504         37.7504
  24844629.2294    -711306.39645   -440875.92543                  24844649.8144
         8.2504          3.2504
  22200233.5184    6356324.76947   4952981.27447                  22200239.5534
        26.7504         33.0004
  25125377.4794     -28666.66853
         5.7504
  22872155.4244   -5633102.18247  -4383617.56346                  22872162.1044
        21.0004         21.2504
  24537507.5574   13422822.58946  10459332.58645                  24537516.5614
        16.0004          7.7504
 00  5 15 20  4 15.0020000  0  8G30G 5G 6G26G10G23G17G24
  21704059.1664    4993046.03447   3907707.85847                  21704064.7914
        27.7504         36.2504
  23274191.9394   13545587.63446  10554984.94945                  23274201.5764
        15.7504         11.2504
  21633915.1354   -4497529.81547  -3504562.25547                  21633920.2684
        27.7504         37.2504
  24839151.5024    -740090.87845   -463305.26443                  24839170.4554
         8.5004          3.0004
  22208595.5494    6400267.50747   4987222.35647                  22208601.5144
        27.0004         32.7504
  25117941.2134     -67744.20944
         6.7504
  22869850.8304   -5645213.02047  -4393054.52646                  22869857.5104
        21.0004         21.2504
  24547337.4164   13474478.29146  10499583.87545                  24547343.0534
        18.2504          7.5004
 00  5 15 20  4 30.0020000  0  8G30G 5G 6G26G10G23G17G24
  21711510.1114    5032200.90248   3938218.12047                  21711515.7364
        28.2504         37.2504
  23286123.1504   13608286.44946  10603841.05245                  23286133.2324
        15.5004         11.0004
  21632024.0414   -4507467.90848  -3512306.20447                  21632029.1044
        28.5004         37.5004
  24833675.1354    -768868.37144   -485729.07742                  24833693.8774
         6.7504          2.2504
  22216981.1044    6444333.33347   5021559.35247                  22216987.0334
        27.0004         33.2504
  25110510.3304    -106794.83945
         8.0004
  22867557.1824   -5657265.69747  -4402446.17046                  22867563.8854
        21.2504         21.2504
  24557163.0184   13526128.61245  10539830.89045                  24557171.8224
        10.2504          6.2504
 00  5 15 20  4 45.0020000  0  8G30G 5G 6G26G10G23G17G24
  21718985.7214    5071486.07648   3968829.91347                  21718991.3814
        28.2504         36.7504
  23298064.4324   13671038.52446  10652738.65545                  23298074.3264
        15.7504         11.2504
  21630144.0254   -4517347.35448  -3520004.46047                  21630148.8654
        28.2504         37.5004
  24828200.6894    -797640.01945   -508148.24244                  24828218.3184
        10.0004          3.5004
  22225389.6504    6488520.00147   5055990.51047                  22225395.6744
        27.2504         33.2504
  25103084.6824    -145820.09345
         8.2504
  22865274.4554   -5669262.07847  -4411793.95146                  22865280.9244
        21.2504         20.7504
  24566992.1824   13577771.65846  10580072.01445                  24567001.7014
        12.2504          6.0004
 00  5 15 20  5  0.0020000  0  8G30G 5G 6G26G10G23G17G24
  21726486.0644    5110900.35048   3999542.30647                  21726491.7954
        28.2504         36.7504
  23310015.8384   13733842.41046  10701676.63145                  23310026.2364
        15.2504         11.0004
  21628274.9004   -4527169.03548  -3527657.69747                  21628279.7754
        28.2504         37.2504
  24822722.4164    -826406.90442   -530563.81041                  24822741.3224
         4.5004          0.7504
  22233820.6824    6532826.12547   5090514.75747                  22233826.6584
        27.5004         33.0004
  25095662.1354    -184820.79444    -24308.39753                  25095680.3144
         7.0004          2.7504
  22863001.8614   -5681203.23947  -4421098.69846                  22863008.3654
        21.2504         20.7504
  24576818.4864   13629406.04646  10620306.59045                  24576825.0494
        15.7504          7.5004
 00  5 15 20  5 15.0020000  0  8G30G 5G 6G26G10G23G17G24
  21734009.4554    5150435.98848   4030349.26347                  21734015.2914
        28.2504         36.2504
  23321975.4794   13796690.18146  10750648.80845                  23321985.2444
        15.2504         11.2504
  21626415.3774   -4536940.36647  -3535271.70647                  21626420.4984
        27.5004         37.0004
  24817251.4474    -855175.92245   -552980.96243                  24817269.8384
        10.0004          3.0004
  22242273.0884    6577243.76047   5125125.89347                  22242279.1004
        27.0004         33.0004
  25088243.7994    -223804.27844    -54684.93442                  25088263.3734
         6.2504          1.7504
  22860738.5414   -5693096.80947  -4430366.37346                  22860745.1394
        21.0004         21.2504
  24586640.7604   13681024.31146  10660528.61045                  24586649.6114
        13.7504          8.7504
 00  5 15 20  5 30.0020000  0  8G30G 5G 6G26G10G23G17G24
  21741556.6824    5190097.47248   4061254.28447                  21741562.5764
        28.0004         36.2504
  23333944.2834   13859586.34146  10799658.67545                  23333953.7214
        15.0004         11.0004
  21624566.5884   -4546656.32848  -3542842.55847                  21624571.8614
        28.2504         37.5004
  24811775.4864    -883941.87244   -575395.77044                  24811794.9324
         7.0004          3.7504
  22250747.8144    6621777.53047   5159827.51847                  22250753.7914
        27.5004         33.2504
  25080828.8614    -262765.42444    -85044.02542                  25080847.9434
         6.7504          1.5004
  22858485.1664   -5704937.98447  -4439593.20646                  22858491.7404
        21.0004         20.5004
  24596460.8074   13732631.09646  10700741.55645                  24596470.1864
        13.0004          7.0004
 00  5 15 20  5 45.0020000  0  8G30G 5G 6G26G10G23G17G24
  21749127.1114    5229879.48647   4092253.22847                  21749132.9474
        27.7504         36.0004
  23345921.4324   13922525.53746  10848702.09345                  23345931.1744
        15.0004         11.0004
  21622727.3304   -4556321.73148  -3550374.02247                  21622732.5334
        28.0004         37.2504
  24806302.1894    -912709.54045   -597811.75143                  24806321.8114
         8.5004          3.0004
  22259243.1824    6666422.04147   5194615.44147                  22259249.2404
        27.2504         33.0004
  25073418.3224    -301708.91644   -115389.35843                  25073437.6504
         7.0004          2.5004
  22856240.9394   -5716731.84347  -4448783.18346                  22856247.5844
        21.2504         21.0004
  24606278.0254   13784221.41946  10740941.76945                  24606284.4124
        12.7504          5.2504
 00  5 15 20  6  0.0020000  0  8G30G 5G 6G26G10G23G17G24
  21756721.5494    5269788.66447   4123351.25647                  21756727.3264
        27.7504         36.2504
  23357907.6354   13985514.15646  10897784.00645                  23357917.5764
        15.5004         10.7504
  21620899.0644   -4565929.55947  -3557860.62747                  21620904.0454
        27.7504         37.5004
  24800828.3614    -941471.54845   -620223.57043                  24800843.9044
         7.7504          2.7504
  22267761.1354    6711183.82747   5229494.74647                  22267767.1704
        27.5004         32.5004
  25066012.5494    -340627.72844   -145715.46443                  25066031.6784
         7.2504          2.7504
  22854006.8694   -5728471.67147  -4457931.04946                  22854013.3614
        21.0004         20.5004
  24616093.9474   13835801.94546  10781134.41645                  24616101.4984
        12.7504          6.5004
 00  5 15 20  6 15.0020000  0  8G30G 5G 6G26G10G23G17G24
  21764339.1974    5309820.87447   4154545.15247                  21764345.1154
        27.7504         36.0004
  23369903.1434   14048547.96846  10946901.14945                  23369912.7324
        15.5004         10.5004
  21619080.9324   -4575483.49047  -3565305.23147                  21619086.0184
        27.7504         37.2504
  24795354.0884    -970231.67044   -642633.76142                  24795370.9904
         6.2504          2.0004
  22276300.5024    6756058.74747   5264462.20747                  22276306.5254
        27.7504         32.7504
  25058609.3304    -379525.50744   -176025.17443                  25058626.6434
         7.0004          2.5004
  22851782.4004   -5740161.39547  -4467039.87846                  22851788.6934
        21.5004         21.0004
  24625907.0724   13887368.83346  10821316.29045                  24625916.0644
        14.0004          8.5004
 00  5 15 20  6 30.0020000  0  8G30G 5G 6G26G10G23G17G24
  21771981.0494    5349978.11947   4185836.48347                  21771986.9554
        27.5004         35.7504
  23381906.9164   14111628.94446  10996055.03445                  23381916.8224
        15.5004         10.7504
  21617273.6044   -4584980.96747  -3572705.84447                  21617278.7714
        27.5004         37.7504
  24789884.1194    -998986.91745   -665040.19543                  24789900.7644
        10.2504          2.7504
  22284861.9554    6801048.68247   5299519.29147                  22284867.8614
        27.0004         32.7504
  25051212.2054    -418399.68744   -206316.46943                  25051230.9124
         7.0004          2.5004
  22849567.9084   -5751798.76847  -4476107.91546                  22849574.3894
        22.0004         21.0004
  24635717.3694   13938924.18546  10861489.23545                  24635726.3264
        13.0004          7.7504
 00  5 15 20  6 45.0020000  0  8G30G 5G 6G26G10G23G17G24
  21779646.8304    5390262.01947   4217226.50147                  21779652.4674
        27.7504         36.0004
  23393920.1824   14174758.69446  11045246.92745                  23393930.1464
        15.2504         10.5004
  21615477.3934   -4594419.80847  -3580060.76647                  21615482.4554
        27.7504         37.5004
  24784411.1434   -1027735.23444   -687441.34643                  24784427.8694
         6.5004          2.7504
  22293445.4634    6846155.23047   5334667.23847                  22293451.4864
        26.7504         32.7504
  25043820.0184    -457248.02345   -236587.66843                  25043840.1434
         7.5004          2.7504
  22847363.6194   -5763381.85947  -4485133.65346                  22847369.9004
        21.7504         21.2504
  24645525.7214   13990469.88945  10901654.69445                  24645532.7684
        11.0004          5.0004
 00  5 15 20  7  0.0020000  0  8G30G 5G 6G26G10G23G17G24
  21787336.0644    5430668.21548   4248711.81647                  21787341.7484
        28.0004         35.7504
  23405941.9554   14237932.60146  11094473.22345                  23405951.8384
        15.5004         10.5004
  21613691.6824   -4603804.06747  -3587373.15547                  21613696.6744
        27.7504         37.0004
  24778941.8384   -1056480.31045   -709839.79144                  24778960.7094
         8.5004          3.7504
  22302050.2294    6891373.86047   5369902.52947                  22302056.2404
        26.7504         32.2504
  25036431.5804    -496074.42545   -266841.76543                  25036449.5374
         8.2504          2.5004
  22845169.0494   -5774914.88347  -4494120.38046                  22845175.1194
        21.5004         20.7504
  24655332.5414   14042001.68346  10941809.28045                  24655340.9004
        12.5004          6.7504
 00  5 15 20  7 15.0020000  0  8G30G 5G 6G26G10G23G17G24
  21795048.4794    5471196.94548   4280292.60947                  21795054.1154
        28.2504         36.5004
  23417971.8544   14301150.91446  11143734.13245                  23417981.9824
        15.5004         11.0004
  21611916.5024   -4613132.93447  -3594642.38647                  21611921.4364
        27.5004         36.7504
  24773472.8694   -1085221.13445   -732234.97443                  24773491.5414
         7.5004          3.2504
  22310676.3774    6936704.93047   5405225.42347                  22310682.3304
        26.5004         32.2504
  25029047.0104    -534878.05345   -297078.16543                  25029065.6114
         8.2504          2.7504
  22842983.9244   -5786397.31847  -4503067.68646                  22842990.2174
        21.5004         21.0004
  24665136.7214   14093519.98846  10981953.34645                  24665145.2214
        13.7504          7.7504
 00  5 15 20  7 30.0020000  0  8G30G 5G 6G26G10G23G17G24
  21802785.7364    5511856.54948   4311975.38547                  21802791.3614
        28.2504         36.2504
  23430012.1824   14364421.93146  11193036.09045                  23430022.1704
        15.7504         10.7504
  21610153.3854   -4622397.57547  -3601861.56547                  21610158.3774
        27.5004         36.7504
  24768005.7444   -1113948.82445   -754619.88642                  24768024.3934
         7.5004          2.2504
  22319325.5724    6982156.70347   5440642.38247                  22319331.6664
        26.2504         32.7504
  25021668.7444    -573650.01644   -327289.82643                  25021687.9084
         7.0004          2.7504
  22840810.0334   -5797820.63347  -4511968.92146                  22840816.3034
        21.2504         21.0004
  24674938.2294   14145033.49145  11022093.70945                  24674946.4364
        11.0004          5.7504
 00  5 15 20  7 45.0020000  0  8G30G 5G 6G26G10G23G17G24
  21810547.1974    5552642.24748   4343756.41847                  21810552.8814
        28.2504         36.7504
  23442061.1114   14427740.74546  11242375.30945                  23442071.1464
        15.5004         10.2504
  21608401.8774   -4631602.28047  -3609034.04547                  21608406.9634
        27.5004         37.0004
  24762540.4394   -1142667.33245   -776997.81243                  24762558.3734
         8.2504          2.7504
  22327996.7444    7027724.35047   5476149.62547                  22328002.8034
        27.0004         31.7504
  25014295.6044    -612394.50144   -357480.07343                  25014315.8344
         7.2504          3.2504
  22838646.8074   -5809189.32247  -4520827.59346                  22838652.9944
        21.2504         20.7504
  24684739.7684   14196537.45245  11062226.58945                  24684748.4904
        11.5004          5.2504
 00  5 15 20  8  0.0020000  0  8G30G 5G 6G26G10G23G17G24
  21818330.8464    5593546.62548   4375629.92847                  21818336.4824
        28.2504         36.7504
  23454118.2294   14491099.83546  11291745.90545                  23454128.1114
        15.5004         10.5004
  21606660.3224   -4640754.01747  -3616165.24647                  21606665.3614
        27.5004         37.0004
  24757075.5724   -1171383.53844   -799373.78142                  24757090.5294
         6.7504          2.0004
  22336688.7294    7073400.50347   5511741.42547                  22336694.8114
        27.5004         32.0004
  25006926.9164    -651118.35345   -387654.25043                  25006944.6044
         7.5004          2.7504
  22836492.1274   -5820510.59247  -4529649.31646                  22836498.4324
        21.0004         20.5004
  24694538.0724   14248024.72946  11102346.51245                  24694545.8814
        15.0004          7.5004
 00  5 15 20  8 15.0020000  0  8G30G 5G 6G26G10G23G17G24
  21826138.8074    5634577.17948   4407601.75647                  21826144.3504
        28.2504         36.2504
  23466184.2604   14554506.65846  11341153.70145                  23466194.0844
        15.7504         10.7504
  21604930.4634   -4649844.78247  -3623248.94247                  21604935.3384
        27.5004         36.7504
  24751613.6114   -1200089.23445   -821741.64943                  24751630.8424
         8.5004          3.2504
  22345402.6354    7119192.55947   5547423.54047                  22345408.6354
        27.5004         32.2504
  24999563.1044    -689813.48344   -417806.06443                  24999580.7794
         7.0004          2.5004
  22834348.2684   -5831776.71247  -4538428.05846                  22834354.6664
        21.0004         20.7504
  24704333.7834   14299503.09146  11142459.49145                  24704341.9904
        13.7504          7.7504
 00  5 15 20  8 30.0020000  0  8G30G 5G 6G26G10G23G17G24
  21833969.3614    5675726.87148   4439666.41847                  21833975.0574
        28.2504         36.2504
  23478257.9004   14617953.96446  11390593.03445                  23478267.9004
        15.5004         10.5004
  21603210.7834   -4658881.21747  -3630290.30247                  21603215.7294
        27.2504         36.2504
  24746151.2524   -1228790.92145   -844106.31744                  24746170.1824
         7.5004          3.7504
  22354137.1504    7165093.26547   5583190.31847                  22354143.0684
        27.0004         32.0004
  24992202.5964    -728486.45644   -447940.64043                  24992222.4284
         6.2504          2.7504
  22832213.5644   -5842994.58547  -4547169.21446                  22832219.6584
        21.2504         20.7504
  24714125.1194   14350965.60145  11182560.09145                  24714134.6864
         9.2504          5.2504
 00  5 15 20  8 45.0020000  0  8G30G 5G 6G26G10G23G17G24
  21841825.3144    5717009.36348   4471834.55947                  21841831.0804
        28.0004         35.5004
  23490341.9714   14681455.28946  11440074.46045                  23490352.0064
        15.5004         10.5004
  21601504.1744   -4667849.23547  -3637278.35047                  21601509.0614
        27.5004         36.5004
  24740692.8934   -1257474.25945   -866456.71843                  24740709.1744
         8.2504          3.0004
  22362895.1744    7211116.32547   5619052.43247                  22362901.2214
        26.7504         32.2504
  24984850.9004    -767123.27744   -478047.03943                  24984869.8184
         6.2504          2.5004
  22830090.5184   -5854150.45147  -4555862.05046                  22830096.7404
        21.2504         21.0004
  24723919.5184   14402426.20546  11222659.14345                  24723929.7994
        12.2504          6.7504
 00  5 15 20  9  0.0020000  0  8G30G 5G 6G26G10G23G17G24
  21849703.7834    5758411.63948   4504096.04247                  21849709.5374
        28.0004         35.2504
  23502433.7054   14744997.61446  11489587.84945                  23502443.8464
        15.7504         10.2504
  21599808.2994   -4676761.19047  -3644222.71147                  21599813.1744
        27.2504         37.0004
  24735235.1114   -1286151.61544   -888802.50242                  24735252.5884
         6.2504          2.2504
  22371674.0334    7257248.70647   5654999.72647                  22371679.9634
        26.7504         31.5004
  24977502.1044    -805736.28844   -508134.78043                  24977520.9284
         6.7504          2.5004
  22827977.1354   -5865257.02047  -4564516.47446                  22827983.2644
        21.0004         20.7504
  24733709.6974   14453871.86646  11262746.62145                  24733719.2404
        13.7504          7.2504
 00  5 15 20  9 15.0020000  0  8G30G 5G 6G26G10G23G17G24
  21857605.3384    5799934.43147   4536451.42947                  21857611.1044
        27.7504         35.0004
  23514533.6194   14808581.70746  11539133.76345                  23514543.6664
        15.5004         10.2504
  21598123.1894   -4685615.90547  -3651122.47147                  21598128.3464
        27.0004         36.5004
  24729779.8544   -1314821.46745   -911142.36243                  24729797.9754
         8.2504          2.5004
  22380473.5414    7303491.19047   5691032.82547                  22380479.4474
        26.7504         31.7504
  24970158.9084    -844324.15444   -538203.02943                  24970176.7364
         7.2504          3.0004
  22825873.1434   -5876313.23047  -4573131.65746                  22825879.4714
        21.2504         21.2504
  24743495.6114   14505303.80445  11302823.45445                  24743503.4324
        11.0004          5.2504
 00  5 15 20  9 30.0020000  0  8G30G 5G 6G26G10G23G17G24
  21865531.5254    5841586.48747   4568907.54047                  21865537.3034
        27.5004         34.7504
  23526643.0884   14872216.14046  11588718.90745                  23526653.0294
        15.7504         10.0004
  21596451.0724   -4694404.19547  -3657970.46847                  21596456.1584
        27.5004         36.7504
  24724326.5104   -1343474.44345   -933469.15243                  24724343.4594
         8.0004          3.2504
  22389295.7914    7349852.39047   5727158.42347                  22389301.7794
        27.0004         31.7504
  24962822.6824    -882877.62545   -568244.47743                  24962841.3774
         7.5004          3.0004
  22823780.3304   -5887310.16047  -4581700.64846                  22823786.7874
        21.2504         21.2504
  24753281.7914   14556730.74445  11342896.34545                  24753290.5614
        10.5004          5.5004
 00  5 15 20  9 45.0020000  0  8G30G 5G 6G26G10G23G17G24
  21873481.8304    5883366.09747   4601463.05347                  21873487.6314
        27.7504         35.0004
  23538761.4004   14935899.09646  11638341.86045                  23538771.7874
        15.5004         10.2504
  21594790.9554   -4703127.26347  -3664767.65047                  21594795.6894
        27.2504         36.0004
  24718878.7054   -1372111.67545   -955783.65643                  24718897.0844
         9.0004          3.2504
  22398140.3934    7396330.46747   5763375.09547                  22398146.3224
        26.7504         32.0004
  24955491.6824    -921397.87944   -598259.99943                  24955508.6664
         7.0004          2.7504
  22821698.9944   -5898249.30147  -4590224.60946                  22821705.2524
        21.7504         21.5004
  24763067.8694   14608151.20746  11382964.16045                  24763077.3184
        12.0004          7.0004
 00  5 15 20 10  0.0020000  0  8G30G 5G 6G26G10G23G17G24
  21881454.9794    5925263.89747   4634110.65847                  21881460.7324
        27.7504         35.0004
  23550887.3544   14999621.35946  11687995.44545                  23550898.0214
        15.5004         10.0004
  21593141.6824   -4711793.85047  -3671520.81347                  21593146.4754
        27.5004         36.5004
  24713428.3384   -1400741.79143   -978092.57043                  24713447.7254
         5.7504          2.7504
  22407005.2684    7442916.22447   5799675.67347                  22407011.2214
        27.0004         32.0004
  24948165.4164    -959893.56044   -628256.39943                  24948182.7754
         7.0004          2.7504
  22819626.2834   -5909139.63847  -4598710.54746                  22819632.3544
        21.7504         21.5004
  24772850.2994   14659556.29946  11423019.99445                  24772859.4204
        13.2504          8.0004
 00  5 15 20 10 15.0020000  0  8G30G 5G 6G26G10G23G17G24
  21889450.8224    5967282.68247   4666852.53347                  21889456.6114
        27.7504         35.0004
  23563021.6114   15063385.58646  11737681.72245                  23563032.0334
        15.5004          9.7504
  21591503.9794   -4720400.87247  -3678227.56847                  21591508.9594
        27.2504         36.5004
  24707982.4084   -1429361.23944  -1000393.15143                  24708001.8894
         7.0004          3.0004
  22415891.2754    7489612.29647   5836062.21247                  22415897.2644
        27.2504         32.0004
  24940845.6894    -998361.45144   -658231.12643                  24940863.1784
         7.0004          2.5004
  22817563.7914   -5919978.19147  -4607156.12646                  22817570.1074
        21.7504         22.0004
  24782629.3224   14710948.90246  11463066.10745                  24782637.5294
        12.2504          5.7504
 00  5 15 20 10 30.0020000  0  8G30G 5G 6G26G10G23G17G24
  21897471.6114    6009432.53848   4699696.54647                  21897477.2834
        28.0004         34.7504
  23575165.5254   15127201.59946  11787408.36045                  23575175.7834
        15.2504          9.5004
  21589879.4864   -4728937.79747  -3684879.69747                  21589884.5254
        27.0004         36.5004
  24702539.9324   -1457959.36944  -1022677.16343                  24702557.0684
         7.0004          2.7504
  22424800.2524    7536428.54547   5872542.38747                  22424806.2754
        27.2504         31.7504
  24933532.5724   -1036790.99744   -688175.99743                  24933551.7714
         7.0004          2.7504
  22815513.0104   -5930754.78047  -4615553.42046                  22815519.3854
        21.5004         22.2504
  24792408.2524   14762339.13045  11503110.45145                  24792415.3934
        10.7504          4.5004
 00  5 15 20 10 45.0020000  0  8G30G 5G 6G26G10G23G17G24
  21905516.0804    6051706.92348   4732637.59147                  21905521.8464
        28.0004         35.2504
  23587317.9394   15191062.75746  11837170.15845                  23587327.9284
        14.7504          9.7504
  21588266.9244   -4737410.65248  -3691481.90047                  21588271.8344
        28.0004         36.5004
  24697102.2294   -1486542.02745  -1044949.17943                  24697118.2404
         9.2504          3.0004
  22433730.5104    7583358.44947   5909111.13747                  22433736.5104
        27.0004         32.0004
  24926226.0964   -1075188.14344   -718095.60543                  24926244.0184
         7.0004          3.0004
  22813472.6894   -5941475.72147  -4623907.35646                  22813478.9244
        21.2504         22.0004
  24802185.8144   14813720.74345  11543148.01945                  24802195.2644
         9.7504          4.5004
 00  5 15 20 11  0.0020000  0  8G30G 5G 6G26G10G23G17G24
  21913584.2834    6094104.51648   4765674.64247                  21913590.0844
        28.2504         34.7504
  23599478.7834   15254967.81346  11886966.18245                  23599489.1824
        14.7504          9.5004
  21586666.7524   -4745820.03348  -3698034.65347                  21586671.4394
        28.0004         36.5004
  24691664.2054   -1515109.81244  -1067209.61143                  24691681.2604
         6.5004          3.0004
  22442682.3934    7630400.75447   5945767.46247                  22442688.3694
        27.0004         31.7504
  24918924.7684   -1113553.43445   -747990.39043                  24918942.9944
         7.7504          2.7504
  22811443.1974   -5952142.01647  -4632218.70546                  22811449.5724
        21.2504         21.7504
  24811962.7754   14865092.80346  11583178.09045                  24811972.1894
        13.2504          6.5004
 00  5 15 20 11 15.0020000  0  8G30G 5G 6G26G10G23G17G24
  21921674.7444    6136619.96847   4798803.53447                  21921680.4394
        27.7504         35.2504
  23611647.1114   15318911.18246  11936792.05845                  23611657.4284
        14.2504          9.7504
  21585077.5804   -4754171.07447  -3704541.94147                  21585082.4794
        27.5004         36.0004
  24686229.5104   -1543667.63044  -1089462.17443                  24686247.5494
         7.0004          3.0004
  22451654.7444    7677549.88047   5982507.02747                  22451660.7324
        27.0004         31.7504
  24911629.2684   -1151892.02645   -777864.40443                  24911646.6864
         7.7504          3.0004
  22809422.6974   -5962758.93947  -4640491.58746                  22809428.8964
        21.5004         22.0004
  24821735.5494   14916449.86246  11623196.56645                  24821743.5804
        13.2504          6.2504
 00  5 15 20 11 30.0020000  0  8G30G 5G 6G26G10G23G17G24
  21929788.6894    6179260.22647   4832029.67147                  21929794.4434
        27.7504         35.2504
  23623823.5574   15382899.74746  11986653.13045                  23623833.9674
        14.2504          9.2504
  21583500.9084   -4762456.24947  -3710997.90047                  21583505.8424
        27.5004         36.2504
  24680798.4474   -1572207.81544  -1111701.03243                  24680818.7484
         6.2504          3.0004
  22460648.5334    7724812.76747   6019335.23147                  22460654.4754
        27.2504         31.5004
  24904340.8304   -1190196.19144   -807711.56543                  24904358.4824
         7.2504          3.0004
  22807413.1584   -5973319.18547  -4648720.30646                  22807419.3694
        21.7504         21.7504
  24831505.5964   14967799.40545  11663209.17145                  24831515.1504
        10.0004          5.7504
 00  5 15 20 11 45.0020000  0  8G30G 5G 6G26G10G23G17G24
  21937927.1504    6222027.46347   4865354.76147                  21937933.0804
        27.7504         35.2504
  23636009.5024   15446935.69846  12036551.14945                  23636020.0534
        14.5004          9.5004
  21581937.4944   -4770672.79648  -3717400.38747                  21581942.2524
        28.0004         37.2504
  24675372.1044   -1600727.24645  -1133923.69443                  24675389.2174
         8.2504          3.2504
  22469664.5184    7772191.66447   6056253.84647                  22469670.5184
        26.7504         32.2504
  24897057.8464   -1228463.19844   -837529.75743                  24897075.6274
         7.0004          3.0004
  22805415.0334   -5983820.23147  -4656902.89846                  22805420.9864
        22.2504         22.0004
  24841276.8144   15019143.65345  11703217.56045                  24841287.4594
        10.2504          5.0004
 00  5 15 20 12  0.0020000  0  8G30G 5G 6G26G10G23G17G24
  21946088.4714    6264915.57948   4898774.03547                  21946094.2954
        28.2504         35.2504
  23648202.9714   15511012.90046  12086481.29745                  23648213.6394
        14.2504          9.5004
  21580385.7364   -4778826.38248  -3723753.81647                  21580390.3894
        28.0004         36.2504
  24669947.6894   -1629231.45845  -1156134.61344                  24669963.5144
         9.0004          3.5004
  22478701.1664    7819680.39047   6093258.03247                  22478707.1074
        27.0004         31.0004
  24889782.3464   -1266698.68645   -867323.41643                  24889800.7134
         7.7504          2.5004
  22803426.7444   -5994268.06847  -4665044.02846                  22803432.9794
        22.2504         21.7504
  24851045.5804   15070476.70045  11743217.27245                  24851055.2874
        11.5004          4.7504
 00  5 15 20 12 15.0020000  0  8G30G 5G 6G26G10G23G17G24
  21954272.4244    6307922.41247   4932285.81847                  21954278.2604
        27.7504         34.7504
  23660404.2214   15575129.04546  12136441.79645                  23660414.7254
        14.0004          9.2504
  21578845.8614   -4786918.67447  -3730059.48247                  21578850.6784
        27.2504         36.5004
  24664526.0644   -1657722.01645  -1178334.84643                  24664543.0374
         8.5004          3.0004
  22487758.4474    7867276.65847   6130346.02247                  22487764.4004
        26.7504         31.5004
  24882511.8694   -1304904.16045   -897093.69543                  24882528.9244
         8.2504          2.7504
  22801448.3464   -6004664.60147  -4673145.18146                  22801454.2874
        22.0004         21.7504
  24860811.2914   15121796.76545  11783206.91044                  24860819.1704
        11.0004          4.2504
 00  5 15 20 12 30.0020000  0  8G30G 5G 6G26G10G23G17G24
  21962479.4554    6351050.00547   4965891.69447                  21962485.2324
        27.7504         34.5004
  23672612.5414   15639286.17146  12186434.23945                  23672623.1154
        13.7504          9.0004
  21577318.1504   -4794947.09747  -3736315.37347                  21577323.0844
        27.7504         36.7504
  24659107.0804   -1686196.09445  -1200522.18043                  24659125.0254
         8.2504          3.2504
  22496836.7524    7914982.69647   6167519.54047                  22496842.6824
        27.2504         31.0004
  24875247.7604   -1343077.02445   -926838.55143                  24875266.0574
         7.7504          3.0004
  22799480.2604   -6015007.48547  -4681204.52546                  22799486.2834
        22.2504         21.7504
  24870575.5024   15173106.00346  11823188.11445                  24870583.1464
        12.0004          5.0004
 00  5 15 20 12 45.0020000  0  8G30G 5G 6G26G10G23G17G24
  21970710.8694    6394306.23547   4999597.81347                  21970716.6704
        27.5004         34.5004
  23684830.5334   15703492.02546  12236464.63645                  23684841.5884
        13.7504          8.7504
  21575804.2054   -4802903.32548  -3742515.01747                  21575808.9864
        28.2504         37.0004
  24653692.9944   -1714645.28045  -1222690.06343                  24653710.9634
         9.0004          3.2504
  22505937.1744    7962806.25047   6204784.63447                  22505943.2564
        27.0004         30.5004
  24867991.7294   -1381208.98145   -956551.51743                  24868009.0064
         8.2504          2.7504
  22797523.3144   -6025288.72647  -4689215.83946                  22797529.3264
        22.0004         21.7504
  24880339.0414   15224412.41346  11863167.06845                  24880347.8934
        13.0004          6.7504
 00  5 15 20 13  0.0020000  0  8G30G 5G 6G26G10G23G17G24
  21978965.8304    6437685.43847   5033399.74947                  21978971.7134
        27.5004         34.2504
  23697056.9394   15767740.90346  12286528.55145                  23697067.3384
        13.7504          8.5004
  21574302.8384   -4810792.45848  -3748662.37947                  21574307.5494
        28.2504         36.7504
  24648283.7684   -1743074.41545  -1244842.48444                  24648300.7644
         9.7504          3.5004
  22515059.0254    8010741.45847   6242136.73547                  22515065.0844
        26.2504         30.5004
  24860743.0104   -1419305.10745   -986236.54044                  24860759.4794
         9.5004          3.5004
  22795577.6894   -6035513.71447  -4697183.31546                  22795583.8074
        21.5004         21.5004
  24890100.3614   15275710.69645  11903139.66945                  24890108.5804
        10.7504          5.7504
 00  5 15 20 13 15.0020000  0  8G30G 5G 6G26G10G23G17G24
  21987243.6114    6481186.85647   5067296.92447                  21987249.5064
        27.2504         34.0004
  23709291.1824   15832032.16246  12336625.50345                  23709301.8034
        14.2504          8.5004
  21572814.3694   -4818614.68247  -3754757.60447                  21572819.3264
        27.7504         36.7504
  24642877.8544   -1771483.55245  -1266979.26844                  24642894.1584
        10.2504          3.7504
  22524201.7834    8058787.70747   6279575.34947                  22524207.7014
        26.5004         30.5004
  24853500.2524   -1457365.39745  -1015893.69244                  24853517.3184
        10.2504          3.5004
  22793642.5494   -6045682.78547  -4705107.22146                  22793648.9944
        21.2504         22.2504
  24899859.3544   15327000.45045  11943105.67744                  24899868.4754
         9.2504          4.2504
 00  5 15 20 13 30.0020000  0  8G30G 5G 6G26G10G23G17G24
  21995544.0724    6524805.58347   5101285.50547                  21995550.0724
        27.2504         33.5004
  23721532.5724   15896360.64846  12386751.47745                  23721542.7134
        13.7504          8.2504
  21571337.8074   -4826374.51448  -3760804.20947                  21571342.5414
        28.5004         36.7504
  24637472.3694   -1799876.97445  -1289103.82043                  24637489.8114
         7.7504          3.0004
  22533364.9164    8106940.04147   6317096.63847                  22533370.9394
        26.2504         30.7504
  24846263.1504   -1495394.31645  -1045526.40243                  24846280.1934
        10.2504          3.2504
  22791717.0574   -6055800.78947  -4712991.33046                  22791723.4554
        21.2504         22.7504
  24909618.7684   15378276.84646  11983061.23445                  24909627.5374
        12.0004          5.7504
 00  5 15 20 13 45.0020000  0  8G30G 5G 6G26G10G23G17G24
  22003868.5334    6568550.00147   5135372.02747                  22003874.5104
        27.0004         33.5004
  23733782.4394   15960734.59146  12436912.83545                  23733793.0494
        14.0004          8.0004
  21569874.5414   -4834063.07048  -3766795.27847                  21569879.0884
        28.5004         37.0004
  24632074.8304   -1828245.67645  -1311209.07344                  24632091.2754
         8.5004          3.7504
  22542549.8464    8155206.73447   6354707.02647                  22542555.8224
        26.2504         29.7504
  24839033.2604   -1533382.91445  -1075127.68344                  24839048.9794
         9.2504          3.5004
  22789803.2914   -6065859.10147  -4720828.93346                  22789809.5614
        21.5004         22.7504
  24919375.0104   15429548.52645  12023013.14745                  24919384.2714
        11.5004          6.5004
 00  5 15 20 14  0.0020000  0  8G30G 5G 6G26G10G23G17G24
  22012214.4554    6612407.63747   5169546.76647                  22012220.2684
        27.2504         33.7504
  23746038.8934   16025141.53646  12487099.93645                  23746049.5844
        13.2504          8.0004
  21568422.8934   -4841692.32848  -3772740.13847                  21568427.4514
        28.2504         37.0004
  24626679.4714   -1856601.27745  -1333304.10444                  24626696.4794
         9.5004          3.5004
  22551754.1504    8203575.37747   6392396.86047                  22551760.1274
        26.0004         29.7504
  24831809.5804   -1571343.10545  -1104706.77743                  24831827.5614
         8.5004          3.2504
  22787898.0644   -6075869.94747  -4728629.54546                  22787904.2054
        22.0004         22.7504
  24929128.3224   15480803.20545  12062951.76045                  24929137.5724
        11.0004          5.2504
 00  5 15 20 14 15.0020000  0  8G30G 5G 6G26G10G23G17G24
  22020582.0414    6656380.18947   5203811.05947                  22020587.9364
        27.2504         33.2504
  23758301.6824   16089583.09446  12537313.99045                  23758312.4794
        13.2504          8.0004
  21566982.8144   -4849260.13548  -3778637.11047                  21566987.4674
        28.5004         37.2504
  24621286.4474   -1884941.51045  -1355387.19145                  24621303.3504
         9.7504          4.7504
  22560977.9634    8252047.43947   6430167.28347                  22560983.9044
        26.0004         29.5004
  24824591.0414   -1609272.66845  -1134262.02743                  24824608.0024
         8.5004          3.0004
  22786002.6894   -6085831.45247  -4736391.72546                  22786008.8074
        22.2504         22.5004
  24938879.1044   15532042.87645  12102878.73245                  24938888.4944
        11.5004          4.5004
 00  5 15 20 14 30.0020000  0  8G30G 5G 6G26G10G23G17G24
  22028972.8224    6700473.38647   5238169.35647                  22028978.8464
        27.5004         33.5004
  23770572.2684   16154065.04246  12587559.53045                  23770582.9594
        13.2504          7.2504
  21565555.6434   -4856760.10348  -3784481.22747                  21565560.2254
        29.0004         37.7504
  24615897.7214   -1913259.90145  -1377453.22943                  24615916.1934
         9.0004          3.0004
  22570222.7214    8300628.69747   6468022.79447                  22570228.6974
        26.2504         29.7504
  24817380.0964   -1647165.20945  -1163788.45244                  24817397.6074
         8.2504          3.5004
  22784117.5254   -6095737.48647  -4744110.66046                  22784123.7134
        22.5004         23.0004
  24948627.7054   15583273.45045  12142798.65745                  24948636.8854
        11.2504          5.2504
 00  5 15 20 14 45.0020000  0  8G30G 5G 6G26G10G23G17G24
  22037386.7604    6744689.59747   5272623.50647                  22037392.6314
        27.5004         33.5004
  23782851.3614   16218589.61846  12637838.28045                  23782862.1464
        13.2504          8.2504
  21564141.7294   -4864189.40648  -3790270.27547                  21564146.0884
        29.2504         37.7504
  24610512.9714   -1941553.44045  -1399499.98443                  24610529.9084
         8.2504          2.5004
  22579488.4944    8349321.48547   6505965.20747                  22579494.5184
        26.2504         29.2504
  24810176.9164   -1685017.89745  -1193283.84244                  24810194.5804
         8.0004          3.5004
  22782243.2364   -6105585.43347  -4751784.34646                  22782249.3074
        22.7504         22.7504
  24958375.1664   15634497.76245  12182713.61245                  24958385.9514
        10.0004          5.0004
 00  5 15 20 15  0.0020000  0  8G30G 5G 6G26G10G23G17G24
  22045824.7134    6789030.52947   5307174.84547                  22045830.5724
        27.5004         33.7504
  23795138.1974   16283158.42146  12688151.47345                  23795149.0064
        13.2504          7.7504
  21562741.9634   -4871545.93748  -3796002.62047                  21562746.4044
        29.0004         37.7504
  24605132.8224   -1969819.76945  -1421525.42444                  24605149.2444
         9.2504          4.0004
  22588776.2054    8398127.36847   6543995.75047                  22588782.2294
        26.5004         29.2504
  24802981.3384   -1722828.44845  -1222746.35443                  24802998.2994
         7.7504          3.0004
  22780380.8544   -6115373.48547  -4759411.36046                  22780386.9004
        22.2504         22.7504
  24968122.9084   15685717.43445  12222624.96245                  24968132.0414
        11.5004          5.2504
 00  5 15 20 15 15.0020000  0  8G30G 5G 6G26G10G23G17G24
  22054285.9794    6833494.91147   5341822.37547                  22054291.8614
        27.7504         34.0004
  23807433.4794   16347770.11146  12738498.11745                  23807444.7794
        13.2504          7.7504
  21561355.7684   -4878830.44648  -3801678.84947                  21561360.3264
        28.7504         37.5004
  24599760.8614   -1998059.38545  -1443530.14444                  24599778.4084
        10.2504          4.0004
  22598084.8544    8447045.09647   6582113.43947                  22598090.7364
        26.7504         29.2504
  24795794.8544   -1760597.56645  -1252176.57143                  24795812.9754
         8.5004          3.2504
  22778529.2834   -6125102.65447  -4766992.49046                  22778535.2484
        22.2504         22.7504
  24977868.1824   15736931.53245  12262532.04045                  24977876.2714
        11.7504          5.2504
 00  5 15 20 15 30.0020000  0  8G30G 5G 6G26G10G23G17G24
  22062768.7994    6878072.42048   5376558.05947                  22062774.7644
        28.0004         33.7504
  23819734.9714   16412414.36846  12788870.11045                  23819746.0024
        12.7504          7.7504
  21559981.2364   -4886052.77648  -3807306.61947                  21559985.7834
        29.7504         38.5004
  24594387.9394   -2026282.01045  -1465521.54545                  24594405.1234
         8.5004          4.5004
  22607412.7684    8496064.28847   6620310.20047                  22607418.8264
        26.2504         28.5004
  24788613.8464   -1798335.02045  -1281582.15444                  24788630.9364
         9.7504          4.0004
  22776687.1824   -6134783.01847  -4774535.58446                  22776693.2644
        22.0004         22.2504
  24987610.9714   15788129.92645  12302426.85545                  24987621.1234
        11.0004          5.7504
 00  5 15 20 15 45.0020000  0  8G30G 5G 6G26G10G23G17G24
  22071274.4554    6922769.99247   5411387.29347                  22071280.3034
        27.7504         34.0004
  23832044.3544   16477098.22046  12839272.96845                  23832055.6544
        12.5004          7.5004
  21558620.3614   -4893205.17248  -3812879.90147                  21558624.7444
        29.7504         38.5004
  24589022.9714   -2054479.85945  -1487493.64743                  24589040.9984
         8.2504          3.2504
  22616761.7834    8545192.03847   6658591.54547                  22616767.7714
        27.0004         28.7504
  24781439.9084   -1836033.07745  -1310957.03344                  24781457.0454
         9.2504          3.7504
  22774855.5104   -6144407.14747  -4782034.85746                  22774861.5804
        22.0004         23.2504
  24997352.1354   15839320.01545  12342315.13945                  24997361.9944
        11.5004          6.5004
 00  5 15 20 16  0.0020000  0  8G30G 5G 6G26G10G23G17G24
  22079800.8074    6967575.98347   5446301.01447                  22079806.6664
        27.7504         33.7504
  23844358.3074   16541809.79846  12889697.43245                  23844369.4674
        12.5004          8.2504
  21557270.4324   -4900298.93148  -3818407.48847                  21557274.8854
        29.5004         38.0004
  24583659.0104   -2082663.89245  -1509454.99243                  24583673.6044
         9.0004          3.0004
  22626128.6664    8594416.52547   6696948.27647                  22626134.7714
        26.0004         28.2504
  24774269.9794   -1873702.97845  -1340309.94343                  24774287.9244
         8.0004          2.5004
  22773032.8774   -6153986.62147  -4789499.34046                  22773038.9824
        22.0004         22.5004
  25007089.6274   15890490.33445  12382188.03645                  25007099.9434
        11.0004          6.0004
 00  5 15 20 16 15.0020000  0  8G30G 5G 6G26G10G23G17G24
  22088348.8544    7012496.14347   5481303.69447                  22088354.7714
        27.7504         34.0004
  23856679.1354   16606554.77746  12940147.91445                  23856690.6354
        12.7504          8.2504
  21555932.8074   -4907327.87048  -3823884.56647                  21555937.1544
        29.5004         38.0004
  24578300.9164   -2110827.69345  -1531400.68444                  24578314.5724
        11.0004          3.5004
  22635515.3144    8643743.45047   6735384.82747                  22635521.2564
        25.7504         28.5004
  24767109.1744   -1911338.44045  -1369636.02443                  24767126.0884
         8.2504          3.2504
  22771219.2994   -6163515.46847  -4796924.36646                  22771225.4044
        22.2504         23.2504
  25016823.9794   15941646.78045  12422050.15343                  25016832.3264
        10.0004          3.2504
 00  5 15 20 16 30.0020000  0  8G30G 5G 6G26G10G23G17G24
  22096918.6584    7057530.21847   5516395.14647                  22096924.7054
        27.7504         33.5004
  23869006.0024   16671332.94846  12990624.27245                  23869018.2404
        12.5004          7.5004
  21554607.7294   -4914291.62648  -3829310.85347                  21554612.0184
        30.0004         38.2504
  24572943.9324   -2138970.81145  -1553330.23544                  24572960.7404
         8.0004          3.5004
  22644921.3384    8693172.60647   6773901.03347                  22644927.3144
        26.0004         28.2504
  24759953.3304   -1948939.01345  -1398934.93544                  24759971.4164
         9.0004          4.0004
  22769415.9004   -6172993.63147  -4804309.90546                  22769422.0534
        22.2504         22.7504
  25026557.3384   15992789.44646  12461901.61145                  25026565.2644
        12.2504          4.5004
 00  5 15 20 16 45.0020000  0  8G30G 5G 6G26G10G23G17G24
  22105511.4714    7102685.34348   5551580.91547                  22105517.3074
        28.0004         33.2504
  23881340.5494   16736151.34646  13041131.96845                  23881352.2014
        12.2504          8.0004
  21553296.4324   -4921182.60548  -3834680.43447                  21553300.5924
        30.2504         38.7504
  24567593.7684   -2167085.46944  -1575237.46644                  24567612.7564
         7.2504          3.7504
  22654348.3144    8742710.96847   6812502.34247                  22654354.2794
        26.0004         28.0004
  24752806.5184   -1986497.13945  -1428200.78044                  24752824.8384
         8.2504          4.0004
  22767623.0184   -6182413.79847  -4811650.25046                  22767629.1114
        22.2504         23.7504
  25036288.1114   16043925.65746  12501747.96745                  25036297.0454
        13.7504          6.5004
 00  5 15 20 17  0.0020000  0  8G30G 5G 6G26G10G23G17G24
  22114127.5804    7147963.53447   5586862.57947                  22114133.4864
        27.7504         32.7504
  23893684.0184   16801011.84646  13091672.46545                  23893696.1394
        13.2504          8.2504
  21551999.3304   -4927998.31248  -3839991.36247                  21552003.6314
        29.5004         38.7504
  24562250.9244   -2195169.02645  -1597120.44944                  24562268.4824
        10.0004          4.2504
  22663796.2054    8792360.53547   6851190.29847                  22663802.1584
        26.7504         28.2504
  24745666.8774   -2024010.25545  -1457431.50743                  24745684.0844
         7.5004          3.2504
  22765841.7994   -6191773.75847  -4818943.68146                  22765847.8814
        22.5004         24.0004
  25046017.6044   16095057.48145  12541590.84345                  25046027.6394
        11.2504          7.5004
 00  5 15 20 17 15.0020000  0  8G30G 5G 6G26G10G23G17G24
  22122766.0724    7193358.35347   5622235.13147                  22122771.8504
        27.5004         32.7504
  23906032.6664   16865908.00146  13142240.74145                  23906044.6354
        13.0004          8.0004
  21550715.5024   -4934744.57548  -3845248.17147                  21550719.9084
        29.2504         38.7504
  24556910.8854   -2223226.91545  -1618983.58044                  24556925.4554
         9.5004          4.0004
  22673264.2604    8842114.91947   6889959.93847                  22673270.2604
        26.0004         28.2504
  24738536.1354   -2061484.19245  -1486631.70744                  24738552.9204
         9.0004          3.7504
  22764071.1664   -6201079.59747  -4826194.94846                  22764077.1784
        22.7504         23.5004
  25055745.2754   16146179.02045  12581425.69245                  25055755.7444
         9.7504          5.7504
 00  5 15 20 17 30.0020000  0  8G30G 5G 6G26G10G23G17G24
  22131426.6434    7238870.38547   5657699.00847                  22131432.5024
        27.0004         32.5004
  23918389.5104   16930840.38946  13192837.26045                  23918401.1864
        13.0004          7.5004
  21549445.2994   -4941420.31548  -3850450.03247                  21549449.6704
        29.7504         38.0004
  24551577.5254   -2251258.01845  -1640825.81444                  24551592.1784
         9.2504          3.5004
  22682752.2914    8891974.61947   6928811.63447                  22682758.1864
        26.2504         28.0004
  24731412.5804   -2098917.67845  -1515800.42644                  24731428.4984
         9.7504          4.2504
  22762310.8774   -6210330.42947  -4833403.34446                  22762316.9244
        23.5004         24.2504
  25065472.4944   16197291.07945  12621253.14845                  25065481.8034
        11.5004          5.5004
 00  5 15 20 17 45.0020000  0  8G30G 5G 6G26G10G23G17G24
  22140110.0884    7284502.36947   5693256.35647                  22140116.0764
        27.0004         32.0004
  23930753.1504   16995811.71446  13243464.12045                  23930764.7444
        13.0004          8.0004
  21548188.9474   -4948022.25448  -3855594.38547                  21548193.0844
        30.0004         39.0004
  24546246.3224   -2279259.05643  -1662644.65943                  24546263.8344
         5.7504          2.5004
  22692261.0104    8941942.33747   6967747.51547                  22692266.9394
        26.0004         28.2504
  24724297.2294   -2136307.52545  -1544935.16444                  24724313.0644
         8.5004          4.2504
  22760561.6354   -6219523.31947  -4840566.59946                  22760567.5644
        23.0004         24.0004
  25075197.1974   16248396.52045  12661075.58545                  25075206.1664
        11.7504          5.0004
 00  5 15 20 18  0.0020000  0  8G30G 5G 6G26G10G23G17G24
  22148815.6744    7330249.94247   5728903.77447                  22148821.6864
        26.7504         31.2504
  23943123.8614   17060817.51046  13294117.83345                  23943135.8544
        13.2504          8.0004
  21546945.9084   -4954554.23248  -3860684.22547                  21546950.1974
        29.7504         38.5004
  24540923.8854   -2307233.44245  -1684442.57343                  24540942.5334
         7.5004          3.0004
  22701789.2834    8992013.64347   7006764.09547                  22701795.1894
        26.7504         28.0004
  24717189.7524   -2173657.49645  -1574038.79044                  24717205.6354
         8.7504          3.7504
  22758822.3614   -6228662.33347  -4847687.87146                  22758828.2794
        22.7504         23.7504
  25084920.0414   16299491.34445  12700889.72145                  25084928.7524
        11.0004          4.7504
 00  5 15 20 18 15.0020000  0  8G30G 5G 6G26G10G23G17G24
  22157542.6824    7376111.21847   5764639.79447                  22157548.7174
        26.5004         31.0004
  23955499.8304   17125855.95846  13344796.99445                  23955512.1744
        12.7504          8.0004
  21545715.9394   -4961017.55448  -3865720.56247                  21545720.3814
        29.7504         38.7504
  24535606.1194   -2335182.27445  -1706220.64845                  24535623.3384
         9.2504          4.7504
  22711336.7364    9042186.82047   7045860.06847                  22711342.8074
        26.5004         27.7504
  24710089.9164   -2210968.71345  -1603112.20145                  24710105.9634
        10.0004          4.5004
  22757093.1744   -6237749.04247  -4854768.37646                  22757099.3144
        22.2504         24.0004
  25094640.7994   16350574.07245  12740694.36545                  25094650.4474
        10.7504          5.0004
 00  5 15 20 18 30.0020000  0  8G30G 5G 6G26G10G23G17G24
  22166293.1824    7422094.72547   5800471.05647                  22166299.0884
        26.5004         30.7504
  23967884.4324   17190935.38746  13395508.07945                  23967896.4244
        13.2504          8.0004
  21544500.6974   -4967403.30548  -3870696.45547                  21544505.0214
        30.0004         39.0004
  24530293.7684   -2363096.58345  -1727971.88545                  24530309.7564
         8.7504          5.0004
  22720905.4714    9092470.13947   7085041.86247                  22720911.3894
        26.0004         28.0004
  24702998.6354   -2248232.29145  -1632148.52745                  24703014.3304
        10.0004          4.5004
  22755375.4244   -6246774.87247  -4861801.44946                  22755381.3774
        22.0004         23.2504
  25104361.6894   16401653.15545  12780496.18345                  25104370.5294
        11.7504          5.5004
 00  5 15 20 18 45.0020000  0  8G30G 5G 6G26G10G23G17G24
  22175065.5644    7468194.04547   5836392.55947                  22175071.5294
        26.5004         30.7504
  23980275.3464   17256049.47646  13446246.18145                  23980287.3854
        12.7504          8.0004
  21543299.4474   -4973717.25948  -3875616.41048                  21543303.5254
        30.0004         39.5004
  24524985.8144   -2390981.84744  -1749700.43144                  24525001.9674
         7.0004          3.7504
  22730493.6584    9142857.22547   7124304.50647                  22730499.6114
        26.0004         27.2504
  24695914.4714   -2285453.95045  -1661152.17644                  24695930.6234
         9.0004          4.2504
  22753668.1584   -6255745.81047  -4868791.75046                  22753674.1704
        22.0004         23.2504
  25114079.8224   16452722.62945  12820290.54545                  25114089.4004
        11.2504          5.2504
 00  5 15 20 19  0.0020000  0  8G30G 5G 6G26G10G23G17G24
  22183859.2294    7514404.89947   5872400.97647                  22183865.2754
        26.7504         31.2504
  23992671.7134   17321193.94446  13497007.94645                  23992683.1314
        12.5004          7.5004
  21542110.5414   -4979963.09148  -3880483.28247                  21542114.7364
        29.5004         38.5004
  24519683.6194   -2418841.65243  -1771409.13642                  24519701.8224
         5.5004          2.2504
  22740100.9634    9193343.91147   7163644.77247                  22740106.9754
        25.2504         27.5004
  24688838.9244   -2322637.29545  -1690125.97644                  24688855.5804
         9.0004          4.2504
  22751970.5414   -6264665.82047  -4875742.36246                  22751976.6354
        21.7504         23.0004
  25123795.3304   16503778.70345  12860074.39545                  25123804.8964
        11.0004          6.2504
 00  5 15 20 19 15.0020000  0  8G30G 5G 6G26G10G23G17G24
  22192675.0724    7560733.13347   5908500.85347                  22192681.0844
        27.0004         31.0004
  24005075.5574   17386374.56646  13547797.89245                  24005087.2794
        13.0004          7.7504
  21540936.2134   -4986134.51648  -3885292.16647                  21540940.5964
        29.5004         38.5004
  24514389.1744   -2446669.38945  -1793092.85043                  24514404.9754
         8.5004          3.2504
  22749728.1114    9243935.98147   7203067.15147                  22749734.1354
        25.2504         27.2504
  24681771.7994   -2359775.95445  -1719064.95445                  24681789.0414
         9.7504          5.2504
  22750284.0184   -6273528.86847  -4882648.58646                  22750289.9944
        21.7504         23.2504
  25133509.3854   16554827.28845  12899852.42345                  25133519.5144
        10.7504          5.7504
 00  5 15 20 19 30.0020000  0  8G30G 5G 6G26G10G23G17G24
  22201515.0644    7607186.55747   5944698.28547                  22201521.0414
        27.0004         31.0004
  24017487.1744   17451599.06646  13598622.01445                  24017499.3184
        12.2504          7.5004
  21539777.6194   -4992223.22348  -3890036.60247                  21539781.8854
        29.7504         38.7504
  24509103.1274   -2474456.68845  -1814745.12245                  24509117.1584
        11.0004          5.0004
  22759377.1744    9294641.17647   7242577.67847                  22759383.2564
        25.5004         28.0004
  24674714.2994   -2396861.59045  -1747962.60045                  24674730.7684
        10.0004          5.5004
  22748609.7994   -6282326.84947  -4889504.12146                  22748615.7874
        22.0004         23.2504
  25143223.8304   16605876.38745  12939630.86845                  25143233.0684
        10.2504          5.2504
 00  5 15 20 19 45.0020000  0  8G30G 5G 6G26G10G23G17G24
  22210376.5184    7653753.65947   5980984.30047                  22210382.4244
        26.7504         31.2504
  24029905.5804   17516855.82446  13649471.27945                  24029917.5024
        13.2504          7.7504
  21538632.6824   -4998240.19348  -3894725.13847                  21538636.9004
        29.5004         38.7504
  24503818.9474   -2502214.33645  -1836374.27445                  24503835.1584
         8.0004          5.0004
  22769045.2364    9345447.85847   7282167.28347                  22769051.1784
        25.7504         27.2504
  24667664.5334   -2433905.24945  -1776827.56645                  24667681.4824
         9.2504          4.7504
  22746945.8224   -6291071.07747  -4896317.76446                  22746951.7994
        22.5004         23.5004
  25152936.6274   16656914.72845  12979400.96044                  25152944.7644
        10.5004          3.7504
 00  5 15 20 20  0.0020000  0  8G30G 5G 6G26G10G23G17G24
  22219259.7914    7700434.55547   6017358.97647                  22219265.8264
        27.5004         31.2504
  24042330.4244   17582145.00746  13700345.80945                  24042342.0764
        13.0004          7.5004
  21537501.4794   -5004184.82848  -3899357.30547                  21537505.8384
        29.2504         38.5004
  24498540.8144   -2529941.51744  -1857979.61544                  24498557.1544
         7.2504          3.7504
  22778733.1114    9396356.14847   7321836.06347                  22778739.1234
        25.2504         27.5004
  24660623.5414   -2470906.10645  -1805659.16244                  24660639.1784
         9.2504          4.0004
  22745292.2134   -6299761.19147  -4903089.24546                  22745298.2014
        22.7504         24.0004
  25162646.5494   16707942.78345  13019163.11145                  25162656.7364
        10.7504          4.7504
 00  5 15 20 20 15.0020000  0  8G30G 5G 6G26G10G23G17G24
  22228165.8144    7747236.75847   6053828.18747                  22228171.7324
        27.2504         31.5004
  24054761.4714   17647474.05946  13751251.40545                  24054773.1824
        12.2504          7.7504
  21536385.5884   -5010049.03948  -3903926.80747                  21536390.0064
        29.0004         38.0004
  24493273.8854   -2557630.08145  -1879554.84644                  24493290.7174
         8.2504          3.7504
  22788441.3144    9447373.51647   7361589.84647                  22788447.3854
        25.2504         26.7504
  24653592.5334   -2507856.13145  -1834451.16345                  24653608.6044
        10.2504          4.5004
  22743650.4004   -6308389.53847  -4909812.59946                  22743656.4364
        22.7504         23.7504
  25172356.3544   16758968.22445
        10.2504
 00  5 15 20 20 30.0020000  0  8G30G 5G 6G26G10G23G17G24
  22237094.1744    7794154.81247   6090387.66347                  22237100.2094
        27.0004         31.5004
  24067200.0104   17712837.50246  13802183.80045                  24067211.8384
        13.2504          7.2504
  21535284.0414   -5015837.62848  -3908437.38547                  21535288.1544
        29.2504         38.5004
  24488010.7604   -2585284.41745  -1901103.52544                  24488026.2564
         8.5004          3.7504
  22798169.2684    9498494.64347   7401424.47547                  22798175.2444
        25.2504         27.2504
  24646569.9244   -2544760.07445  -1863207.26945                  24646585.4794
        10.2504          5.0004
  22742019.3144   -6316961.19047  -4916491.76946                  22742025.1974
        23.0004         24.7504
  25182064.4944   16809986.05645
         9.2504
 00  5 15 20 20 45.0020000  0  8G30G 5G 6G26G10G23G17G24
  22246045.5104    7841194.88647   6127042.23047                  22246051.4984
        27.2504         31.5004
  24079646.3464   17778241.44146  13853147.75045                  24079657.7054
        12.5004          7.0004
  21534197.9004   -5021543.97048  -3912883.87047                  21534202.2954
        29.2504         38.2504
  24482757.5724   -2612897.84545  -1922620.28944                  24482770.6314
        10.5004          4.2504
  22807918.1744    9549725.48447   7441344.59047                  22807924.1274
        25.2504         27.0004
  24639556.1274   -2581611.27345  -1891922.23045                  24639572.1624
         9.7504          5.0004
  22740400.0254   -6325469.74647  -4923121.77146                  22740406.0614
        22.7504         24.5004
  25191772.5644   16861002.62745     15897.19655                  25191781.6044
         9.0004          4.7504
 00  5 15 20 21  0.0030000  0  8G30G 5G 6G26G10G23G17G24
  22255018.1164    7888346.20647   6163783.46547                  22255024.0224
        27.2504         31.5004
  24092097.9524   17843676.36246  13904135.83245                  24092110.0504
        12.5004          7.0004
  21533125.1244   -5027181.83148  -3917276.99247                  21533129.7064
        29.0004         38.0004
  24477506.4444   -2640485.43845  -1944116.92144                  24477522.4794
         9.0004          4.2504
  22817685.9054    9601055.55047   7481342.03647                  22817692.0464
        25.2504         27.2504
  24632550.7964   -2618425.48245  -1920608.40244                  24632566.9134
         9.0004          3.7504
  22738790.2414   -6333929.34047  -4929713.62346                  22738796.1474
        22.7504         24.7504
  25201479.1794   16912007.78045     55641.41745                  25201487.7144
        10.5004          4.5004
 00  5 15 20 21 15.0030000  0  8G30G 5G 6G26G10G23G17G24
  22264012.3044    7935610.49447   6200612.73847                  22264018.2924
        27.0004         30.7504
  24104555.8904   17909141.47146  13955147.44945                  24104567.6834
        12.5004          7.0004
  21532067.1634   -5032741.87448  -3921609.47847                  21532071.6984
        29.0004         38.0004
  24472262.8044   -2668034.59245  -1965583.55245                  24472280.7144
         7.7504          5.0004
  22827472.8434    9652486.06347   7521417.73947                  22827478.7964
        25.7504         27.2504
  24625555.1474   -2655189.18145  -1949255.19344                  24625571.6404
        10.0004          4.2504
  22737191.4604   -6342330.55147  -4936259.98346                  22737197.4014
        23.0004         24.7504
  25211183.2654   16963002.77345     95377.76045                  25211192.4684
        10.7504          4.5004
 00  5 15 20 21 30.0030000  0  8G30G 5G 6G26G10G23G17G24
  22273028.5694    7982991.03847   6237532.60347                  22273034.5114
        26.7504         30.2504
  24117020.0854   17974641.18146  14006186.02145                  24117032.4294
        12.2504          7.0004
  21531024.0304   -5038223.84548  -3925881.12847                  21531028.3194
        29.0004         38.0004
  24467029.1014   -2695546.52045  -1987021.16345                  24467045.3824
        10.0004          5.5004
  22837279.6014    9704020.55047   7561574.46947                  22837285.4954
        25.7504         26.5004
  24618568.0694   -2691904.14845  -1977864.03945                  24618583.8124
        10.2504          5.0004
  22735603.7494   -6350673.68147  -4942761.07946                  22735609.7264
        22.7504         25.0004
  25220885.8824   17013991.59845    135109.24645                  25220895.2374
         9.5004          5.2504
 00  5 15 20 21 45.0030000  0  8G30G 5G 6G26G10G23G17G24
  22282067.6634    8030491.65047   6274546.01547                  22282073.6284
        26.5004         30.2504
  24129491.6714   18040179.36346  14057254.56845                  24129504.0264
        12.0004          7.2504
  21529996.5304   -5043623.30648  -3930088.49147                  21530001.0304
        29.0004         38.0004
  24461801.1794   -2723016.53745  -2008426.15245                  24461817.7764
         9.7504          5.5004
  22847106.8044    9755662.77547   7601815.15347                  22847112.9214
        25.5004         26.7504
  24611591.9684   -2728565.91845  -2006431.42045                  24611607.2064
        10.7504          5.7504
  22734027.8124   -6358954.64947  -4949213.74446                  22734033.8124
        22.2504         25.0004
  25230587.4054   17064978.44445    174839.13245                  25230598.7534
         8.2504          4.5004
 00  5 15 20 22  0.0030000  0  8G30G 5G 6G26G10G23G17G24
  22291128.1084    8078104.32847   6311646.76047                  22291134.0734
        26.2504         30.0004
  24141968.6324   18105747.90946  14108346.76345                  24141980.6014
        12.2504          6.5004
  21528983.2264   -5048947.78548  -3934237.42147                  21528987.6084
        28.5004         38.0004
  24456580.2024   -2750451.91845  -2029804.15845                  24456595.0304
         9.7504          4.5004
  22856953.2024    9807404.65047   7642133.47147                  22856959.2724
        25.7504         26.5004
  24604624.1874   -2765181.93645  -2034963.13145                  24604638.9094
        10.7504          5.2504
  22732462.2964   -6367181.03747  -4955623.87746                  22732468.3784
        22.7504         24.5004
  25240289.0224   17115955.55445    214561.47044                  25240298.0734
         8.5004          4.0004
 00  5 15 20 22 15.0030000  0  8G30G 5G 6G26G10G23G17G24
  22300209.8584    8125830.01247   6348835.55847                  22300215.8824
        26.2504         29.5004
  24154452.4294   18171347.79046  14159463.41745                  24154464.9954
        12.5004          6.5004
  21527984.4444   -5054195.82848  -3938326.78947                  21527988.7694
        29.0004         38.2504
  24451365.6634   -2777851.07945  -2051153.97644                  24451379.5774
         9.2504          4.0004
  22866818.3354    9859247.07847   7682530.14847                  22866824.3704
        25.7504         26.5004
  24597664.5694   -2801750.70745  -2063458.07245                  24597679.1514
        10.0004          5.0004
  22730907.6794   -6375351.71347  -4961990.59846                  22730913.6084
        22.5004         24.0004
  25249988.5854   17166923.91745    254277.03245                  25249997.2264
        10.2504          4.5004
 00  5 15 20 22 30.0030000  0  8G30G 5G 6G26G10G23G17G24
  22309313.1714    8173667.60747   6386111.56447                  22309319.1124
        26.0004         29.7504
  24166941.4444   18236977.73646  14210603.43745                  24166953.2374
        12.0004          6.7504
  21527000.2334   -5059368.04848  -3942357.07947                  21527004.5814
        29.0004         38.5004
  24446157.5934   -2805214.43345  -2072475.89544                  24446173.5344
         7.7504          3.7504
  22876702.7414    9911188.83647   7723004.23147                  22876708.6594
        25.7504         26.5004
  24590714.3354   -2838272.94345  -2091916.73345                  24590728.9764
         9.2504          4.5004
  22729362.8434   -6383467.57947  -4968314.61246                  22729368.8784
        22.5004         24.2504
  25259685.2964   17217882.86245    293985.30545                  25259693.7844
         9.7504          4.7504
 00  5 15 20 22 45.0030000  0  8G30G 5G 6G26G10G23G17G24
  22318436.9914    8221612.94547   6423471.51447                  22318442.9334
        26.2504         29.5004
  24179435.3274   18302633.74045  14261763.80545                  24179447.4134
        11.7504          6.5004
  21526029.7104   -5064467.95448  -3946331.01547                  21526034.0934
        28.5004         38.0004
  24440956.9294   -2832545.14945  -2093772.27645                  24440973.3624
         8.7504          5.0004
  22886604.9764    9963225.95547   7763552.61247                  22886610.9994
        26.0004         26.5004
  24583772.2104   -2874751.87845  -2120341.62144                  24583788.5974
         9.2504          4.2504
  22727828.4834   -6391532.32747  -4974598.79546                  22727834.5194
        22.5004         24.5004
  25269379.3974   17268828.57945    333683.17445                  25269389.5974
         8.5004          4.5004
 00  5 15 20 23  0.0030000  0  8G30G 5G 6G26G10G23G17G24
  22327582.6474    8269673.25747   6460921.07047                  22327588.6364
        26.2504         29.5004
  24191935.6474   18368322.94946  14312950.03545                  24191948.5194
        12.0004          6.2504
  21525074.5774   -5069487.73248  -3950242.51347                  21525078.9254
        28.5004         38.0004
  24435764.2574   -2859835.44845  -2115037.20145                  24435781.5224
         9.2504          5.5004
  22896526.8584   10015365.61147   7804180.90247                  22896532.7534
        26.0004         26.0004
  24576840.4214   -2911179.75245  -2148726.72845                  24576855.5194
        10.5004          4.7504
  22726304.8434   -6399538.62647  -4980837.42846                  22726310.8904
        22.7504         24.2504
  25279073.6324   17319768.70145    373376.61045                  25279085.4254
         9.0004          4.7504
 00  5 15 20 23 15.0030000  0  8G30G 5G 6G26G10G23G17G24
  22336750.5074    8317850.99747   6498462.11647                  22336756.5424
        26.2504         29.5004
  24204443.7724   18434047.67546  14364163.93745                  24204456.8084
        12.2504          6.7504
  21524135.2334   -5074424.56048  -3954089.37747                  21524139.5344
        28.7504         37.7504
  24430579.4134   -2887082.21745  -2136268.19745                  24430595.1794
        10.0004          5.0004
  22906468.6324   10067610.13847   7844890.90147                  22906474.7024
        25.7504         26.5004
  24569918.6794   -2947553.61745  -2177069.79045                  24569933.4134
        11.0004          5.2504
  22724792.7884   -6407483.84447  -4987028.47246                  22724798.9644
        22.7504         24.2504
  25288767.1874   17370705.60945    413067.62745                  25288777.4564
        10.0004          4.7504
 00  5 15 20 23 30.0030000  0  8G30G 5G 6G26G10G23G17G24
  22345940.6474    8366145.61547   6536094.24147                  22345946.6714
        26.2504         29.2504
  24216956.4604   18499807.44845  14415405.15345                  24216968.5694
        11.5004          6.5004
  21523211.5544   -5079278.30748  -3957871.50447                  21523215.9254
        28.5004         37.5004
  24425402.2264   -2914285.06345  -2157465.04245                  24425415.6944
        10.7504          4.7504
  22916430.3044   10119959.11247   7885682.29047                  22916436.3154
        25.5004         26.0004
  24563006.8434   -2983873.29845  -2205370.62645                  24563021.3904
        11.0004          5.2504
  22723292.4764   -6415367.99947  -4993171.92646                  22723298.5464
        23.0004         24.5004
  25298459.8044   17421639.22945    452756.15944                  25298468.9134
        11.0004          4.0004
 00  5 15 20 23 45.0030000  0  8G30G 5G 6G26G10G23G17G24
  22355152.1084    8414551.14547   6573812.78947                  22355158.0974
        26.5004         29.2504
  24229476.0464   18565596.24546  14466668.97845                  24229489.1514
        12.5004          6.2504
  21522302.5934   -5084054.46748  -3961593.17047                  21522306.9294
        28.2504         38.2504
  24420233.5464   -2941449.42845  -2178631.89245                  24420246.4174
         9.7504          4.5004
  22926410.7724   10172406.51947   7926550.37446                  22926416.8314
        25.7504         25.5004
  24556104.6474   -3020144.32145  -2233633.52245                  24556119.6754
        10.2504          5.2504
  22721802.6634   -6423196.93347  -4999272.35846                  22721808.6754
        22.5004         24.5004
  25308149.4214   17472563.86245    492437.68044                  25308159.6674
         9.0004          4.0004
 00  5 15 20 24  0.0030000  0  8G30G 5G 6G26G10G23G17G24
  22364385.5934    8463074.53847   6611623.17647                  22364391.5584
        26.5004         29.0004
  24242002.5774   18631421.08245  14517960.89045                  24242015.6834
        11.5004          6.0004
  21521409.9604   -5088745.49948  -3965248.50647                  21521414.3434
        29.0004         37.7504
  24415071.6014   -2968567.58245  -2199762.67445                  24415087.2614
         8.0004          4.5004
  22936411.2494   10224959.22447   7967500.51747                  22936417.2964
        25.7504         26.2504
  24549213.1084   -3056359.10445  -2261852.59345                  24549228.5464
         9.7504          4.7504
  22720324.7654   -6430963.41347  -5005324.12046                  22720330.9294
        22.7504         24.7504
  25317839.7724   17523486.79145    532117.76345                  25317850.0194
         8.7504          5.2504
 00  5 15 20 24 15.0030000  0  8G30G 5G 6G26G10G23G17G24
  22373639.5544    8511704.28647   6649516.43847                  22373645.4014
        26.7504         29.5004
  24254532.3664   18697270.40245  14569271.87345                  24254545.0974
        11.5004          7.0004
  21520531.3974   -5093362.39048  -3968846.07047                  21520535.7454
        28.5004         38.0004
  24409918.8664   -2995650.06845  -2220865.65145                  24409934.5154
        10.0004          5.0004
  22946429.2964   10277605.81347   8008523.82146                  22946435.4374
        25.2504         25.5004
  24542329.9684   -3092528.47045  -2290036.27745                  24542345.3354
         9.7504          4.5004
  22718856.6014   -6438678.59747  -5011335.91247                  22718862.6594
        22.7504         25.7504
  25327527.9134   17574396.92945    571787.89345                  25327538.4874
         9.2504          5.0004
 00  5 15 20 24 30.0030000  0  8G30G 5G 6G26G10G23G17G24
  22382914.2334    8560441.42147   6687493.38447                  22382920.1634
        26.7504         29.2504
  24267069.2334   18763145.19846  14620602.68745                  24267082.3274
        12.0004          6.0004
  21519667.1324   -5097903.62448  -3972384.68147                  21519671.4444
        28.2504         37.7504
  24404772.3514   -3022695.41145  -2241939.72145                  24404786.6514
        11.5004          5.7504
  22956465.9134   10330347.13547   8049620.93647                  22956471.8434
        25.5004         26.0004
  24535456.1634   -3128650.89045  -2318183.39845                  24535470.0654
        10.2504          5.2504
  22717398.4994   -6446341.20147  -5017306.73746                  22717404.5224
        22.2504         25.2504
  25337213.5694   17625295.38145    611448.94845                  25337223.8154
         9.7504          4.5004
 00  5 15 20 24 45.0030000  0  8G30G 5G 6G26G10G23G17G24
  22392210.0304    8609290.98147   6725557.92147                  22392216.0304
        26.7504         29.2504
  24279610.5304   18829050.53945  14671957.33545                  24279623.4014
        11.0004          5.7504
  21518818.3904   -5102363.53548  -3975859.92047                  21518822.9724
        28.2504         37.7504
  24399634.0934   -3049697.74445  -2262980.30245                  24399646.5774
        11.2504          5.0004
  22966520.9994   10383188.25647   8090795.82046                  22966527.0464
        24.5004         25.2504
  24528592.2654   -3164720.71245  -2346289.49945                  24528606.4834
        11.2504          5.7504
  22715951.3974   -6453945.90047  -5023232.43946                  22715957.5154
        23.0004         25.2504
  25346899.1404   17676187.53045    651105.10744                  25346908.1084
        10.0004          3.5004
 00  5 15 20 25  0.0030000  0  8G30G 5G 6G26G10G23G17G24
  22401526.6634    8658250.32147   6763708.01547                  22401532.6984
        26.7504         29.2504
  24292156.8664   18894983.66745  14723333.62445                  24292170.4524
        11.5004          6.0004
  21517984.7574   -5106744.22748  -3979273.42847                  21517989.2454
        28.5004         37.7504
  24394502.8744   -3076658.89645  -2283988.83345                  24394516.4254
        10.0004          5.2504
  22976595.1084   10436126.52747   8132046.39446                  22976601.0854
        24.5004         25.2504
  24521737.8744   -3200739.98145  -2374356.24045                  24521752.6324
        11.0004          5.5004
  22714514.6874   -6461495.16647  -5029114.94846                  22714520.7224
        23.0004         25.5004
  25356581.4834   17727070.92245    690754.50244                  25356589.4334
        10.2504          4.0004
 00  5 15 20 25 15.0030000  0  8G30G 5G 6G26G10G23G17G24
  22410864.3514    8707319.35047   6801943.56847                  22410870.3514
        26.7504         29.2504
  24304709.6714   18960944.57145  14774731.54045                  24304722.2724
        11.7504          6.5004
  21517166.2964   -5111045.12048  -3982624.76447                  21517170.6904
        28.5004         37.7504
  24389379.5464   -3103578.29845  -2304964.71044                  24389396.1324
         8.0004          4.0004
  22986687.2964   10489161.98947   8173372.71746                  22986693.2024
        23.7504         25.0004
  24514893.0304   -3236708.10945  -2402383.10845                  24514908.2454
        11.0004          5.7504
  22713088.5934   -6468988.66647  -5034954.00146                  22713094.6634
        23.0004         25.5004
  25366262.7414   17777945.97145    730397.32245                  25366272.2374
        10.7504          5.0004
 00  5 15 20 25 30.0030000  0  8G30G 5G 6G26G10G23G17G24
  22420222.7184    8756497.72647   6840264.33547                  22420228.7884
        26.7504         29.5004
  24317266.3044   19026932.83345  14826150.78845                  24317279.5734
        10.2504          5.7504
  21516363.1794   -5115266.03648  -3985913.77447                  21516367.3864
        28.0004         38.0004
  24384265.9294   -3130455.39845  -2325907.63545                  24384281.8004
        10.0004          4.7504
  22996797.9054   10542294.24947   8214774.45246                  22996803.8474
        24.5004         24.5004
  24508057.5384   -3272624.92345  -2430370.00545                  24508073.1984
        10.7504          5.5004
  22711673.3974   -6476426.46547  -5040749.65247                  22711679.4094
        23.0004         25.7504
  25375942.0694   17828812.68545    770033.63545                  25375951.3784
        10.0004          5.0004
 00  5 15 20 25 45.0030000  0  8G30G 5G 6G26G10G23G17G24
  22429602.1554    8805787.76447   6878672.11147                  22429608.1084
        27.0004         29.0004
  24329829.1014   19092950.69445  14877593.09045                  24329841.5854
        11.0004          6.0004
  21515575.5304   -5119404.29248  -3989138.37647                  21515579.8664
        28.2504         37.7504
  24379160.2574   -3157287.20746  -2346815.33445                  24379172.5774
        12.2504          5.2504
  23006927.3904   10595525.47147   8256253.30546                  23006933.3544
        25.0004         24.5004
  24501233.4054   -3308487.52145  -2458314.63245                  24501248.2574
        10.7504          5.5004
  22710268.8434   -6483806.05947  -5046499.95246                  22710274.8544
        23.2504         25.2504
  25385619.8194   17879673.66445    809665.45544                  25385630.6404
         8.5004          3.7504
 00  5 15 20 26  0.0030000  0  8G30G 5G 6G26G10G23G17G24
  22439001.3974    8855181.20147   6917160.45247                  22439007.4334
        27.0004         29.2504
  24342396.2494   19158989.88745  14929052.02345                  24342409.6014
        10.2504          5.7504
  21514802.4134   -5123467.51848  -3992304.50947                  21514806.9374
        28.0004         38.0004
  24374061.1084   -3184081.23245  -2367693.65845                  24374072.9374
        11.2504          4.7504
  23017074.5544   10648847.44347   8297802.87246                  23017080.5074
        24.7504         24.2504
  24494417.8354   -3344303.60245  -2486223.04145                  24494432.0424
        11.5004          6.0004
  22708874.2184   -6491135.42847  -5052211.11646                  22708880.1594
        23.5004         25.2504
  25395296.4294   17930520.75345    849286.50344                  25395305.3624
         9.2504          3.5004
 00  5 15 20 26 15.0030000  0  8G30G 5G 6G26G10G23G17G24
  22448421.1324    8904681.22647   6955731.85247                  22448427.0384
        27.0004         29.2504
  24354968.0854   19225053.47945  14980529.95445                  24354981.5774
        11.5004          5.5004
  21514044.2964   -5127451.94848  -3995409.25447                  21514048.7264
        28.0004         38.0004
  24368967.7574   -3210833.67244  -2388539.50844                  24368982.1634
         6.7504          4.0004
  23027239.1014   10702263.18647   8339425.51146                  23027245.0544
        24.5004         24.5004
  24487611.9214   -3380069.38445  -2514092.25445                  24487626.3044
        11.5004          6.0004
  22707489.6014   -6498411.14847  -5057880.47546                  22707495.6124
        23.2504         25.2504
  25404970.8664   17981357.40345    888899.47844                  25404979.6244
        11.0004          4.2504
 00  5 15 20 26 30.0030000  0  8G30G 5G 6G26G10G23G17G24
  22457860.8044    8954286.93147   6994385.60147                  22457866.7574
        26.7504         29.0004
  24367544.5774   19291140.65645  15032026.27245                  24367558.2924
        10.0004          5.7504
  21513300.8664   -5131357.89348  -3998452.83347                  21513305.3434
        28.2504         37.7504
  24363886.0544   -3237544.67545  -2409352.94645                  24363903.7764
         8.2504          4.5004
  23037421.5544   10755771.90547   8381120.59946                  23037427.4374
        24.0004         24.0004
  24480814.8194   -3415785.12645  -2541922.46245                  24480828.3234
        11.2504          6.0004
  22706115.2024   -6505633.79247  -5063508.47046                  22706121.1904
        23.0004         25.2504
  25414642.6474   18032183.25245    928503.99845                  25414652.8944
        10.0004          5.2504
 00  5 15 20 26 45.0030000  0  8G30G 5G 6G26G10G23G17G24
  22467321.1944    9004002.31847   7033124.81147                  22467327.1834
        26.7504         29.2504
  24380125.2104   19357255.26945  15083543.96245                  24380138.2224
        10.7504          5.7504
  21512573.4684   -5135180.87747  -4001431.76947                  21512578.0384
        27.7504         37.7504
  24358812.8044   -3264209.35346  -2430130.38745                  24358826.6834
        12.5004          6.0004
  23047622.4994   10809377.58047   8422891.22946                  23047628.5694
        24.7504         24.5004
  24474028.2334   -3451446.34445  -2569710.19545                  24474042.6874
        10.5004          5.7504
  22704751.7414   -6512799.11947  -5069091.80546                  22704757.7534
        22.7504         25.2504
  25424312.7024   18083002.50945    968103.28545                  25424324.0034
         8.2504          4.5004
 00  5 15 20 27  0.0030000  0  8G30G 5G 6G26G10G23G17G24
  22476802.2414    9053824.96647   7071947.60347                  22476808.2294
        26.7504         29.0004
  24392712.2654   19423395.24245  15135081.40845                  24392725.6404
        10.7504          5.2504
  21511861.2804   -5138922.65748  -4004347.42747                  21511865.7104
        28.2504         37.5004
  24353746.8904   -3290829.42945  -2450873.14245                  24353759.2694
        11.7504          5.5004
  23057841.2264   10863077.89147   8464735.60846                  23057847.2144
        24.0004         24.5004
  24467252.3274   -3487054.69745  -2597456.70345                  24467266.2884
        10.7504          5.7504
  22703398.4914   -6519909.09347  -5074632.00846                  22703404.5034
        22.7504         24.7504
  25433981.8584   18133813.07845   1007695.79144                  25433992.0694
         8.7504          4.0004
 00  5 15 20 27 15.0030000  0  8G30G 5G 6G26G10G23G17G24
  22486304.2184    9103758.42647   7110856.73847                  22486310.2534
        26.5004         28.5004
  24405302.7654   19489563.92545  15186641.26045                  24405316.2804
        10.2504          5.5004
  21511165.5774   -5142579.23148  -4007196.69847                  21511169.9954
        28.0004         37.2504
  24348688.4834   -3317400.61445  -2471577.78144                  24348702.2334
         7.5004          4.0004
  23068078.7884   10916876.21447   8506656.35446                  23068084.8704
        25.0004         23.7504
  24460486.5934   -3522606.15145  -2625158.90445                  24460500.6944
        11.2504          6.0004
  22702056.7184   -6526960.04247  -5080126.21546                  22702062.6714
        22.7504         25.0004
  25443650.5074   18184618.71045   1047284.51444                  25443661.3624
        10.5004          4.2504
 00  5 15 20 27 30.0030000  0  8G30G 5G 6G26G10G23G17G24
  22495826.7264    9153797.99647   7149848.56547                  22495832.7024
        26.2504         28.2504
  24417899.6164   19555756.63945  15238219.78145                  24417913.7414
        11.0004          5.5004
  21510485.0154   -5146154.68048  -4009982.75147                  21510489.5384
        28.0004         37.7504
  24343641.0624   -3343926.94845  -2492247.36945                  24343657.0384
         9.0004          5.0004
  23078334.0624   10970767.87447   8548649.84646                  23078340.2264
        24.7504         24.7504
  24453731.5464   -3558104.78745  -2652819.94745                  24453745.5894
        11.7504          6.2504
  22700725.4214   -6533956.34747  -5085577.84347                  22700731.5034
        22.7504         25.7504
  25453316.7884   18235415.12345   1086866.13344                  25453325.7694
        11.2504          3.5004
 00  5 15 20 27 45.0030000  0  8G30G 5G 6G26G10G23G17G24
  22505369.5074    9203946.23047   7188925.06047                  22505375.5654
        26.2504         28.5004
  24430500.5544   19621975.87345  15289819.00245                  24430514.3864
        10.7504          5.7504
  21509820.8124   -5149645.89648  -4012703.16647                  21509825.4174
        28.0004         37.7504
  24338603.2024   -3370405.06145  -2512879.44345                  24338617.6674
        11.5004          6.5004
  23088607.6554   11024755.46447   8590718.06446                  23088613.6324
        23.7504         24.0004
  24446986.5624   -3593547.41145  -2680437.33645                  24446999.9134
        11.5004          6.2504
  22699404.8354   -6540895.23547  -5090984.73547                  22699410.8944
        22.7504         25.7504
  25462981.3974   18286205.05945   1126442.69843                  25462990.0624
        10.2504          3.2504
 00  5 15 20 28  0.0030000  0  8G30G 5G 6G26G10G23G17G24
  22514933.8124    9254207.25247   7228089.43947                  22514939.8824
        26.0004         28.2504
  24443107.9684   19688225.69445  15341442.06245                  24443122.0814
        10.2504          5.5004
  21509173.2884   -5153048.34248  -4015354.40947                  21509177.6594
        28.2504         37.0004
  24333575.2334   -3396830.08946  -2533470.16345                  24333588.8664
        12.2504          6.2504
  23098900.2494   11078843.01547   8632864.18646                  23098906.2144
        24.2504         23.5004
  24440253.5224   -3628929.36045  -2708007.46445                  24440266.1124
        11.7504          6.0004
  22698096.2494   -6547772.35247  -5096343.48447                  22698102.3664
        23.2504         26.2504
  25472645.5384   18336993.01745   1166017.63144                  25472655.1514
         9.2504          4.0004
 00  5 15 20 28 15.0030000  0  8G30G 5G 6G26G10G23G17G24
  22524518.5224    9304575.44047   7267337.32747                  22524524.5464
        26.0004         28.5004
  24455719.5934   19754500.54645  15393084.60045                  24455734.0694
        10.7504          5.7504
  21508541.7804   -5156366.97248  -4017940.34847                  21508546.1984
        28.2504         37.0004
  24328554.5384   -3423206.86945  -2554023.29645                  24328567.4684
        10.0004          4.7504
  23109210.4834   11133024.99447   8675083.90446                  23109216.8354
        23.0004         24.2504
  24433531.4214   -3664255.58645  -2735534.16545                  24433545.0654
        11.0004          5.7504
  22696798.4764   -6554592.90647  -5101658.16947                  22696804.5114
        23.5004         26.7504
  25482309.6244   18387773.81345   1205586.97944                  25482320.1874
         9.7504          3.7504
 00  5 15 20 28 30.0030000  0  8G30G 5G 6G26G10G23G17G24
  22534122.7964    9355045.38147   7306664.49647                  22534128.8084
        26.2504         28.5004
  24468335.2884   19820795.17645  15444742.55045                  24468349.5544
        11.0004          5.7504
  21507925.2884   -5159606.59448  -4020464.71547                  21507929.6474
        28.0004         37.5004
  24323542.8824   -3449540.01245  -2574542.43945                  24323555.3314
         9.5004          4.5004
  23119538.0464   11187295.94847   8717372.92546                  23119543.9764
        23.5004         23.5004
  24426818.5464   -3699530.86045  -2763021.14645                  24426832.1324
        11.0004          5.7504
  22695510.3824   -6561361.93847  -5106932.70847                  22695516.3474
        24.0004         27.2504
  25491970.3584   18438542.19045   1245146.68143                  25491980.6284
         9.5004          3.2504
 00  5 15 20 28 45.0030000  0  8G30G 5G 6G26G10G23G17G24
  22543747.8194    9405625.02547   7346077.15147                  22543753.8434
        26.2504         29.2504
  24480955.9524   19887117.29645  15496421.93445                  24480968.8474
        10.7504          5.5004
  21507325.5304   -5162758.70548  -4022920.89847                  21507329.9724
        28.0004         37.5004
  24318541.6874   -3475820.82145  -2595020.77945                  24318556.1514
         9.2504          5.0004
  23129883.6874   11241663.69247   8759737.38046                  23129889.7454
        23.7504         23.2504
  24420116.8434   -3734746.66745  -2790461.80845                  24420130.8154
        11.7504          6.5004
  22694233.4834   -6568071.32347  -5112160.76447                  22694239.5304
        24.0004         26.7504
  25501630.4684   18489306.61745   1284703.34243                  25501639.4724
         9.0004          3.2504
 00  5 15 20 29  0.0030000  0  8G30G 5G 6G26G10G23G17G24
  22553392.1244    9456305.92047   7385568.70847                  22553398.1714
        26.2504         29.5004
  24493580.5154   19953458.48745  15548116.17645                  24493593.9604
        11.0004          5.2504
  21506740.6634   -5165831.22648  -4025315.06147                  21506745.0694
        28.2504         37.7504
  24313549.9764   -3502057.07845  -2615464.38945                  24313564.8394
        10.7504          6.2504
  23140246.6944   11296119.94447   8802170.80846                  23140252.6364
        23.7504         23.0004
  24413425.1324   -3769910.93245  -2817862.31045                  24413439.1754
        11.5004          6.2504
  22692966.6164   -6574729.27747  -5117348.74847                  22692972.6984
        23.7504         26.7504
  25511287.8354   18540058.77145   1324250.32645                  25511299.3474
         7.5004          5.2504
 00  5 15 20 29 15.0030000  0  8G30G 5G 6G26G10G23G17G24
  22563055.4994    9507086.64147   7425138.04747                  22563061.5584
        26.2504         29.7504
  24506208.4444   20019817.30245  15599824.14745                  24506221.8664
        11.0004          5.2504
  21506171.0074   -5168825.12348  -4027647.95847                  21506175.2494
        28.2504         37.2504
  24308565.0774   -3528249.47746  -2635873.82845                  24308579.4604
        12.0004          7.2504
  23150625.7884   11350663.07847   8844671.92146                  23150631.8354
        23.2504         22.7504
  24406742.9684   -3805024.52945  -2845223.32645                  24406756.1324
        11.2504          6.0004
  22691709.1404   -6581336.97247  -5122497.57147                  22691715.1164
        23.7504         26.0004
  25520943.8194   18590797.45745   1363786.97143                  25520956.9954
         8.7504          3.0004
 00  5 15 20 29 30.0030000  0  8G30G 5G 6G26G10G23G17G24
  22572737.7334    9557966.48347   7464784.62147                  22572743.9684
        26.2504         29.5004
  24518839.8584   20086193.05445  15651545.31045                  24518853.3394
        11.2504          5.5004
  21505616.3124   -5171740.53048  -4029919.69647                  21505620.6364
        28.2504         37.7504
  24303589.6794   -3554398.05145  -2656249.12945                  24303603.4644
        11.7504          6.5004
  23161021.4994   11405292.41947   8887240.21646                  23161027.4404
        23.2504         22.5004
  24400070.3044   -3840087.51845  -2872544.91445                  24400083.1044
        11.2504          6.0004
  22690460.9374   -6587894.83247  -5127607.56346                  22690466.9484
        23.2504         25.5004
  25530596.2724   18641522.28945   1403312.68245                  25530607.5624
        10.2504          4.7504
 00  5 15 20 29 45.0030000  0  7G30G 5G 6G26G10G23G17
  22582439.7574    9608950.80147   7504512.60647                  22582446.2614
        26.7504         30.0004
  24531474.6324   20152591.13745  15703283.88345                  24531487.9014
        11.0004          5.5004
  21505077.5694   -5174571.38948  -4032125.54947                  21505081.8474
        28.2504         37.5004
  24298622.1634   -3580496.45645  -2676585.35945                  24298634.1674
         9.7504          5.0004
  23171434.3274   11460013.42347   8929879.94446                  23171440.3624
        23.5004         23.5004
  24393408.8434   -3875093.81145  -2899822.30745                  24393421.9834
        11.7504          6.0004
  22689223.7184   -6594397.05747  -5132674.19846                  22689229.7534
        23.0004         25.2504
 00  5 15 20 30  0.0030000  0  7G30G 5G 6G26G10G23G17
  22592160.8194    9660035.77147   7544319.01747                  22592167.5464
        26.7504         29.7504
  24544113.3824   20219007.76745  15755036.89245                  24544127.4014
        11.5004          5.5004
  21504554.3904   -5177320.96448  -4034268.06347                  21504558.8544
        28.2504         37.5004
  24293665.0224   -3606547.79745  -2696884.88345                  24293678.3514
        10.0004          4.7504
  23181864.3274   11514822.30547   8972588.13946                  23181870.2454
        22.5004         22.0004
  24386757.4134   -3910046.65045  -2927058.07845                  24386770.2724
        11.7504          6.5004
  22687996.2184   -6600847.16347  -5137700.22247                  22688002.1834
        23.2504         25.7504
 00  5 15 20 30 15.0030000  0  7G30G 5G 6G26G10G23G17
  22601902.0154    9711225.45047   7584207.02547                  22601908.6124
        26.5004         29.7504
  24556756.6714   20285446.99045  15806807.51745                  24556770.7844
        11.7504          5.5004
  21504047.4604   -5179984.59248  -4036343.61047                  21504051.8434
        28.2504         37.2504
  24288717.7184   -3632547.19246  -2717143.94445                  24288731.0934
        12.2504          6.0004
  23192311.4374   11569723.07247   9015367.93946                  23192317.4254
        22.5004         22.2504
  24380117.3354   -3944941.39745  -2954248.56045                  24380130.5814
        11.7504          6.5004
  22686779.5154   -6607240.77847  -5142682.22846                  22686785.5034
        23.5004         25.5004
 00  5 15 20 30 30.0030000  0  7G30G 5G 6G26G10G23G17
  22611663.7264    9762522.23547   7624178.48447                  22611670.1244
        27.0004         29.5004
  24569404.5934   20351910.98345  15858597.45145                  24569418.0624
        11.5004          5.2504
  21503557.5154   -5182559.49248  -4038350.01347                  21503562.0154
        28.2504         37.2504
  24283780.7884   -3658491.69646  -2737360.25745                  24283793.1204
        13.0004          7.2504
  23202776.6944   11624718.03147   9058221.13646                  23202782.6124
        22.0004         22.2504
  24373488.5074   -3979775.16945  -2981391.53345                  24373502.1514
        11.7504          6.5004
  22685574.0304   -6613575.45347  -5147618.30847                  22685580.1244
        23.5004         26.2504
